GFSWCAN_prec_precacc_018.txt.gz
Total_Precipitation_Accumulation
0.36 0.25 0.09 0.03 0.00 0.00 0.00 0.00 0.00 0.00 0.00 0.00 0.00 0.00 0.00 0.00 0.00 0.00 0.02 0.05 0.12 0.08 0.00 0.00 0.00 0.00 0.00 0.01 0.04 0.04 0.03 0.00 0.01 0.01 0.01 0.00 0.01 0.01 0.01 0.00 0.01 0.03 0.09 0.10 0.05 0.14 0.05 0.00 0.02 0.12 0.16 0.07 0.07 0.05
0.28 0.27 0.20 0.09 0.04 0.02 0.01 0.00 0.00 0.00 0.00 0.00 0.00 0.00 0.00 0.00 0.00 0.00 0.01 0.05 0.09 0.12 0.02 0.00 0.00 0.00 0.00 0.00 0.04 0.08 0.04 0.03 0.06 0.03 0.01 0.01 0.01 0.01 0.00 0.02 0.00 0.01 0.01 0.02 0.03 0.02 0.00 0.00 0.02 0.01 0.03 0.08 0.06 0.06
0.33 0.25 0.22 0.11 0.06 0.03 0.02 0.01 0.00 0.00 0.00 0.00 0.00 0.00 0.00 0.01 0.02 0.02 0.01 0.04 0.03 0.05 0.03 0.02 0.00 0.00 0.00 0.00 0.02 0.11 0.04 0.03 0.07 0.09 0.16 0.08 0.12 0.06 0.05 0.04 0.01 0.04 0.02 0.02 0.02 0.01 0.00 0.01 0.01 0.02 0.06 0.07 0.07 0.14
0.28 0.31 0.24 0.19 0.09 0.06 0.02 0.01 0.01 0.01 0.00 0.00 0.00 0.00 0.00 0.00 0.00 0.02 0.03 0.04 0.10 0.13 0.10 0.03 0.00 0.00 0.00 0.00 0.00 0.01 0.04 0.10 0.17 0.25 0.23 0.16 0.23 0.12 0.07 0.02 0.04 0.07 0.05 0.03 0.04 0.01 0.02 0.03 0.06 0.09 0.10 0.18 0.23 0.16
0.09 0.21 0.25 0.23 0.17 0.11 0.06 0.02 0.01 0.02 0.02 0.01 0.01 0.01 0.00 0.00 0.02 0.05 0.08 0.04 0.08 0.22 0.21 0.08 0.02 0.00 0.00 0.00 0.00 0.01 0.06 0.10 0.21 0.20 0.13 0.04 0.02 0.04 0.04 0.04 0.08 0.04 0.02 0.04 0.08 0.05 0.19 0.11 0.16 0.20 0.21 0.23 0.15 0.08
0.03 0.10 0.21 0.22 0.19 0.18 0.12 0.08 0.02 0.01 0.05 0.06 0.05 0.05 0.06 0.09 0.28 0.66 0.62 0.18 0.07 0.18 0.63 0.35 0.04 0.00 0.00 0.00 0.00 0.00 0.01 0.09 0.23 0.13 0.03 0.01 0.01 0.09 0.19 0.09 0.01 0.00 0.01 0.10 0.15 0.10 0.16 0.14 0.12 0.13 0.18 0.13 0.04 0.01
0.00 0.03 0.10 0.16 0.19 0.20 0.20 0.13 0.08 0.03 0.03 0.04 0.07 0.12 0.19 0.37 0.73 0.90 0.64 0.18 0.04 0.20 0.96 0.67 0.12 0.01 0.00 0.00 0.01 0.02 0.04 0.09 0.10 0.09 0.04 0.01 0.02 0.23 0.25 0.10 0.00 0.00 0.01 0.04 0.05 0.08 0.11 0.10 0.16 0.14 0.06 0.01 0.00 0.00
0.00 0.00 0.02 0.09 0.11 0.11 0.12 0.16 0.12 0.10 0.07 0.06 0.06 0.13 0.37 1.01 1.27 0.96 0.63 0.59 0.43 0.45 0.70 0.65 0.20 0.02 0.00 0.00 0.01 0.00 0.00 0.01 0.04 0.06 0.04 0.05 0.04 0.12 0.20 0.03 0.00 0.00 0.00 0.00 0.01 0.01 0.06 0.03 0.01 0.01 0.00 0.00 0.00 0.00
0.00 0.00 0.00 0.01 0.02 0.03 0.03 0.03 0.08 0.12 0.17 0.19 0.27 0.39 0.53 0.51 0.45 0.48 0.69 0.71 0.83 0.94 1.05 0.55 0.08 0.03 0.05 0.03 0.03 0.04 0.07 0.12 0.10 0.04 0.01 0.05 0.03 0.05 0.01 0.00 0.00 0.00 0.00 0.01 0.00 0.00 0.00 0.00 0.00 0.01 0.00 0.00 0.00 0.00
0.00 0.00 0.00 0.00 0.00 0.00 0.00 0.01 0.03 0.07 0.20 0.34 0.33 0.34 0.41 0.37 0.35 0.34 0.47 0.65 1.01 1.13 0.94 0.45 0.11 0.08 0.04 0.06 0.12 0.16 0.27 0.21 0.17 0.02 0.03 0.05 0.02 0.00 0.00 0.00 0.00 0.00 0.00 0.00 0.00 0.01 0.03 0.04 0.02 0.00 0.00 0.00 0.00 0.00
0.01 0.01 0.00 0.00 0.00 0.00 0.01 0.01 0.03 0.05 0.09 0.12 0.20 0.27 0.24 0.21 0.21 0.27 0.29 0.32 0.34 0.31 0.24 0.10 0.04 0.05 0.06 0.10 0.18 0.27 0.26 0.13 0.14 0.01 0.08 0.06 0.01 0.00 0.00 0.00 0.00 0.00 0.00 0.00 0.01 0.01 0.01 0.00 0.00 0.00 0.00 0.00 0.00 0.00
0.01 0.01 0.00 0.00 0.00 0.01 0.02 0.04 0.05 0.01 0.01 0.03 0.06 0.14 0.15 0.09 0.05 0.06 0.11 0.08 0.07 0.03 0.01 0.02 0.01 0.02 0.07 0.09 0.16 0.24 0.13 0.11 0.07 0.01 0.05 0.05 0.01 0.00 0.00 0.00 0.00 0.00 0.00 0.00 0.00 0.00 0.00 0.00 0.00 0.00 0.00 0.00 0.00 0.00
0.01 0.01 0.00 0.00 0.00 0.00 0.01 0.01 0.00 0.00 0.00 0.00 0.00 0.02 0.02 0.02 0.03 0.03 0.03 0.05 0.05 0.02 0.03 0.01 0.01 0.01 0.01 0.04 0.17 0.17 0.18 0.17 0.10 0.12 0.06 0.02 0.02 0.00 0.00 0.00 0.00 0.00 0.00 0.00 0.00 0.00 0.00 0.00 0.00 0.00 0.00 0.00 0.00 0.00
0.01 0.02 0.01 0.00 0.00 0.00 0.00 0.00 0.00 0.00 0.00 0.00 0.00 0.00 0.00 0.00 0.00 0.02 0.02 0.02 0.03 0.04 0.03 0.02 0.03 0.01 0.01 0.02 0.02 0.03 0.05 0.04 0.06 0.03 0.01 0.01 0.00 0.00 0.00 0.00 0.00 0.00 0.00 0.00 0.00 0.00 0.00 0.00 0.00 0.00 0.00 0.00 0.00 0.00
0.02 0.02 0.03 0.01 0.00 0.00 0.00 0.00 0.00 0.00 0.00 0.00 0.00 0.00 0.01 0.01 0.01 0.00 0.00 0.01 0.02 0.02 0.01 0.02 0.04 0.02 0.01 0.00 0.00 0.00 0.01 0.01 0.01 0.00 0.02 0.01 0.00 0.00 0.00 0.00 0.00 0.00 0.00 0.00 0.00 0.00 0.00 0.00 0.00 0.00 0.00 0.00 0.00 0.00
0.03 0.04 0.03 0.02 0.01 0.00 0.00 0.00 0.01 0.00 0.00 0.00 0.00 0.00 0.01 0.01 0.01 0.00 0.00 0.00 0.01 0.01 0.00 0.00 0.00 0.00 0.01 0.01 0.01 0.01 0.00 0.00 0.00 0.02 0.02 0.00 0.00 0.00 0.00 0.00 0.00 0.00 0.00 0.00 0.00 0.00 0.00 0.00 0.00 0.01 0.01 0.01 0.02 0.01
0.01 0.01 0.03 0.03 0.02 0.00 0.00 0.01 0.00 0.00 0.00 0.00 0.00 0.00 0.01 0.00 0.00 0.00 0.00 0.00 0.01 0.00 0.00 0.00 0.00 0.00 0.00 0.01 0.00 0.00 0.00 0.00 0.00 0.00 0.00 0.00 0.00 0.00 0.00 0.00 0.00 0.00 0.00 0.00 0.00 0.00 0.01 0.01 0.03 0.04 0.04 0.02 0.01 0.01
0.00 0.01 0.01 0.02 0.02 0.02 0.02 0.01 0.00 0.00 0.00 0.00 0.00 0.00 0.00 0.00 0.00 0.00 0.00 0.00 0.01 0.00 0.00 0.01 0.01 0.00 0.00 0.00 0.00 0.00 0.00 0.00 0.00 0.00 0.00 0.00 0.00 0.00 0.00 0.00 0.00 0.00 0.00 0.00 0.00 0.02 0.03 0.03 0.05 0.04 0.02 0.01 0.02 0.03
0.00 0.00 0.01 0.01 0.01 0.01 0.01 0.01 0.01 0.01 0.00 0.00 0.00 0.00 0.00 0.00 0.00 0.00 0.00 0.00 0.01 0.02 0.05 0.03 0.02 0.00 0.00 0.00 0.01 0.01 0.01 0.00 0.00 0.00 0.00 0.00 0.00 0.00 0.00 0.00 0.00 0.00 0.01 0.01 0.02 0.04 0.03 0.02 0.02 0.02 0.02 0.04 0.06 0.06
0.01 0.02 0.03 0.02 0.01 0.02 0.00 0.02 0.01 0.01 0.01 0.00 0.00 0.00 0.00 0.00 0.00 0.00 0.00 0.00 0.01 0.05 0.07 0.04 0.00 0.00 0.00 0.00 0.00 0.00 0.00 0.00 0.00 0.00 0.00 0.00 0.00 0.00 0.00 0.00 0.00 0.01 0.02 0.01 0.03 0.05 0.05 0.03 0.01 0.02 0.05 0.09 0.11 0.08
0.05 0.12 0.10 0.07 0.09 0.05 0.01 0.01 0.00 0.00 0.00 0.00 0.00 0.01 0.01 0.01 0.01 0.00 0.00 0.02 0.06 0.05 0.02 0.00 0.00 0.00 0.00 0.00 0.00 0.00 0.00 0.00 0.01 0.03 0.02 0.00 0.00 0.00 0.00 0.00 0.01 0.03 0.04 0.03 0.03 0.03 0.02 0.03 0.02 0.04 0.08 0.10 0.10 0.08
0.09 0.06 0.06 0.09 0.08 0.03 0.02 0.01 0.01 0.02 0.01 0.01 0.01 0.00 0.01 0.01 0.01 0.01 0.02 0.04 0.03 0.00 0.00 0.00 0.00 0.00 0.00 0.00 0.00 0.00 0.00 0.00 0.00 0.00 0.00 0.00 0.01 0.01 0.01 0.01 0.04 0.03 0.03 0.03 0.03 0.07 0.06 0.03 0.07 0.08 0.06 0.04 0.04 0.05
0.03 0.04 0.08 0.10 0.11 0.10 0.08 0.03 0.03 0.02 0.01 0.01 0.01 0.01 0.01 0.01 0.00 0.01 0.01 0.00 0.00 0.00 0.00 0.00 0.00 0.00 0.00 0.00 0.00 0.00 0.00 0.00 0.00 0.00 0.00 0.01 0.01 0.01 0.01 0.01 0.01 0.05 0.07 0.03 0.02 0.06 0.07 0.07 0.07 0.07 0.04 0.02 0.01 0.01
0.04 0.10 0.14 0.13 0.08 0.10 0.06 0.04 0.04 0.02 0.03 0.02 0.02 0.01 0.00 0.02 0.03 0.03 0.01 0.00 0.00 0.00 0.00 0.00 0.00 0.00 0.00 0.00 0.00 0.00 0.01 0.03 0.02 0.00 0.02 0.05 0.01 0.00 0.01 0.03 0.04 0.03 0.04 0.03 0.04 0.04 0.06 0.07 0.06 0.05 0.04 0.05 0.05 0.04
0.28 0.22 0.09 0.09 0.04 0.04 0.03 0.03 0.02 0.02 0.01 0.01 0.01 0.00 0.00 0.03 0.02 0.01 0.00 0.00 0.00 0.00 0.00 0.00 0.00 0.00 0.01 0.01 0.00 0.01 0.03 0.07 0.03 0.02 0.01 0.03 0.08 0.09 0.06 0.04 0.04 0.03 0.03 0.04 0.08 0.13 0.10 0.09 0.09 0.07 0.06 0.05 0.03 0.02
0.30 0.10 0.03 0.01 0.03 0.01 0.01 0.00 0.00 0.00 0.01 0.01 0.01 0.01 0.02 0.03 0.02 0.01 0.00 0.00 0.00 0.01 0.01 0.00 0.04 0.04 0.02 0.03 0.02 0.02 0.03 0.04 0.08 0.07 0.04 0.06 0.07 0.10 0.11 0.08 0.05 0.02 0.02 0.04 0.07 0.07 0.04 0.02 0.02 0.02 0.02 0.02 0.02 0.03
0.17 0.05 0.03 0.00 0.01 0.01 0.01 0.01 0.01 0.03 0.01 0.01 0.01 0.03 0.07 0.07 0.01 0.00 0.00 0.00 0.00 0.01 0.01 0.02 0.04 0.03 0.02 0.01 0.02 0.02 0.01 0.04 0.07 0.05 0.02 0.01 0.01 0.02 0.04 0.09 0.10 0.05 0.02 0.02 0.03 0.05 0.05 0.03 0.03 0.03 0.04 0.03 0.03 0.05
0.02 0.00 0.01 0.02 0.00 0.01 0.02 0.02 0.02 0.01 0.00 0.00 0.01 0.03 0.06 0.01 0.00 0.00 0.01 0.01 0.01 0.00 0.00 0.00 0.00 0.01 0.00 0.00 0.00 0.00 0.00 0.01 0.01 0.01 0.00 0.00 0.00 0.00 0.00 0.02 0.02 0.03 0.02 0.02 0.03 0.04 0.05 0.07 0.07 0.07 0.06 0.05 0.03 0.04
0.01 0.01 0.02 0.02 0.04 0.06 0.04 0.01 0.00 0.00 0.00 0.01 0.02 0.01 0.00 0.00 0.01 0.01 0.01 0.01 0.00 0.00 0.00 0.00 0.00 0.00 0.00 0.00 0.00 0.00 0.01 0.02 0.05 0.06 0.04 0.03 0.02 0.02 0.01 0.01 0.02 0.03 0.02 0.03 0.04 0.07 0.09 0.10 0.08 0.07 0.07 0.07 0.07 0.10
0.00 0.02 0.02 0.02 0.03 0.04 0.02 0.01 0.00 0.01 0.02 0.04 0.04 0.06 0.03 0.00 0.00 0.01 0.00 0.00 0.00 0.00 0.00 0.00 0.01 0.01 0.02 0.02 0.02 0.02 0.02 0.03 0.06 0.11 0.09 0.05 0.06 0.05 0.06 0.08 0.08 0.07 0.09 0.12 0.11 0.07 0.10 0.12 0.13 0.14 0.15 0.18 0.19 0.19
0.02 0.03 0.03 0.04 0.02 0.00 0.01 0.02 0.02 0.02 0.01 0.00 0.01 0.05 0.03 0.01 0.02 0.01 0.00 0.00 0.00 0.00 0.01 0.01 0.03 0.04 0.05 0.05 0.06 0.06 0.07 0.10 0.04 0.05 0.07 0.09 0.12 0.14 0.14 0.14 0.13 0.13 0.13 0.13 0.10 0.11 0.13 0.16 0.17 0.16 0.15 0.14 0.14 0.12
0.04 0.05 0.06 0.06 0.03 0.05 0.05 0.04 0.05 0.05 0.02 0.03 0.02 0.02 0.02 0.04 0.06 0.09 0.05 0.01 0.02 0.03 0.04 0.04 0.05 0.07 0.09 0.08 0.10 0.09 0.07 0.09 0.07 0.08 0.10 0.12 0.13 0.13 0.12 0.11 0.11 0.09 0.08 0.07 0.06 0.05 0.05 0.06 0.07 0.05 0.04 0.05 0.05 0.05
0.07 0.08 0.09 0.09 0.06 0.04 0.04 0.06 0.07 0.04 0.02 0.01 0.01 0.01 0.02 0.06 0.16 0.16 0.06 0.05 0.08 0.10 0.10 0.11 0.12 0.14 0.15 0.14 0.14 0.12 0.10 0.09 0.08 0.06 0.07 0.07 0.07 0.06 0.06 0.06 0.07 0.06 0.05 0.04 0.03 0.02 0.02 0.02 0.02 0.05 0.05 0.05 0.05 0.03

GFSWCAN_prec_precacc_021.txt.gz
Total_Precipitation_Accumulation
0.44 0.28 0.10 0.03 0.00 0.00 0.00 0.00 0.00 0.00 0.00 0.00 0.00 0.00 0.00 0.00 0.00 0.00 0.02 0.05 0.12 0.08 0.00 0.00 0.00 0.00 0.00 0.01 0.04 0.04 0.03 0.00 0.01 0.01 0.01 0.00 0.01 0.01 0.01 0.00 0.01 0.03 0.09 0.10 0.06 0.15 0.05 0.00 0.02 0.12 0.16 0.07 0.07 0.06
0.34 0.29 0.21 0.09 0.04 0.02 0.01 0.00 0.00 0.00 0.00 0.00 0.00 0.00 0.00 0.00 0.00 0.00 0.01 0.05 0.09 0.12 0.02 0.00 0.00 0.00 0.00 0.00 0.04 0.08 0.04 0.03 0.06 0.03 0.01 0.01 0.01 0.01 0.00 0.02 0.00 0.01 0.01 0.02 0.03 0.03 0.00 0.00 0.02 0.01 0.03 0.09 0.06 0.06
0.37 0.26 0.23 0.12 0.06 0.03 0.02 0.01 0.00 0.00 0.00 0.00 0.00 0.00 0.00 0.01 0.02 0.02 0.01 0.04 0.03 0.05 0.03 0.02 0.00 0.00 0.00 0.00 0.02 0.11 0.04 0.03 0.07 0.09 0.16 0.08 0.12 0.06 0.05 0.04 0.01 0.04 0.02 0.02 0.02 0.01 0.00 0.01 0.01 0.02 0.06 0.07 0.11 0.19
0.29 0.32 0.26 0.22 0.11 0.06 0.02 0.01 0.01 0.01 0.00 0.00 0.00 0.00 0.00 0.00 0.00 0.02 0.03 0.04 0.10 0.13 0.10 0.03 0.00 0.00 0.00 0.00 0.00 0.01 0.04 0.10 0.17 0.25 0.24 0.17 0.23 0.12 0.07 0.02 0.05 0.07 0.06 0.03 0.04 0.01 0.02 0.03 0.07 0.11 0.17 0.28 0.27 0.19
0.09 0.21 0.27 0.26 0.21 0.13 0.06 0.02 0.01 0.02 0.02 0.01 0.01 0.01 0.00 0.00 0.02 0.05 0.08 0.04 0.08 0.22 0.21 0.08 0.02 0.00 0.00 0.00 0.00 0.01 0.06 0.10 0.21 0.20 0.13 0.04 0.02 0.04 0.06 0.08 0.13 0.06 0.03 0.05 0.08 0.05 0.20 0.13 0.22 0.33 0.33 0.25 0.15 0.09
0.03 0.10 0.22 0.26 0.22 0.19 0.13 0.08 0.02 0.02 0.05 0.06 0.05 0.05 0.06 0.09 0.28 0.66 0.62 0.18 0.07 0.18 0.63 0.35 0.04 0.00 0.00 0.00 0.00 0.00 0.01 0.09 0.23 0.13 0.03 0.01 0.01 0.10 0.25 0.13 0.02 0.00 0.01 0.11 0.16 0.11 0.19 0.24 0.28 0.20 0.19 0.13 0.04 0.01
0.00 0.03 0.11 0.19 0.21 0.22 0.22 0.14 0.09 0.04 0.03 0.05 0.09 0.13 0.20 0.39 0.74 0.90 0.64 0.18 0.04 0.20 0.96 0.67 0.12 0.01 0.00 0.00 0.01 0.02 0.04 0.09 0.10 0.10 0.05 0.02 0.03 0.28 0.36 0.13 0.00 0.00 0.01 0.04 0.05 0.09 0.16 0.16 0.18 0.14 0.06 0.01 0.00 0.00
0.00 0.00 0.02 0.10 0.13 0.13 0.19 0.23 0.14 0.10 0.08 0.07 0.09 0.16 0.42 1.08 1.30 0.97 0.64 0.60 0.44 0.45 0.70 0.65 0.20 0.02 0.00 0.00 0.01 0.00 0.00 0.01 0.04 0.06 0.05 0.05 0.04 0.13 0.23 0.03 0.00 0.00 0.00 0.00 0.01 0.01 0.07 0.03 0.01 0.01 0.00 0.00 0.00 0.00
0.00 0.00 0.00 0.03 0.04 0.05 0.09 0.17 0.20 0.16 0.19 0.23 0.33 0.50 0.64 0.58 0.47 0.51 0.73 0.80 0.93 0.99 1.08 0.57 0.08 0.03 0.05 0.04 0.03 0.04 0.07 0.12 0.10 0.04 0.02 0.06 0.03 0.05 0.02 0.00 0.00 0.00 0.00 0.01 0.00 0.00 0.00 0.00 0.00 0.01 0.00 0.00 0.00 0.00
0.00 0.00 0.00 0.00 0.00 0.01 0.02 0.08 0.17 0.25 0.38 0.57 0.57 0.58 0.66 0.53 0.47 0.40 0.54 0.77 1.18 1.29 1.05 0.49 0.12 0.10 0.06 0.07 0.13 0.17 0.28 0.22 0.18 0.02 0.03 0.05 0.02 0.00 0.00 0.00 0.00 0.00 0.00 0.00 0.00 0.01 0.03 0.04 0.02 0.00 0.00 0.00 0.00 0.00
0.01 0.01 0.00 0.00 0.00 0.00 0.02 0.06 0.17 0.27 0.39 0.44 0.55 0.59 0.47 0.42 0.36 0.40 0.44 0.43 0.47 0.41 0.31 0.14 0.06 0.07 0.08 0.15 0.27 0.31 0.28 0.13 0.15 0.01 0.08 0.06 0.01 0.00 0.00 0.00 0.00 0.00 0.00 0.00 0.01 0.01 0.01 0.00 0.00 0.00 0.00 0.00 0.00 0.00
0.01 0.01 0.00 0.00 0.00 0.02 0.03 0.08 0.15 0.14 0.21 0.29 0.26 0.40 0.47 0.38 0.25 0.23 0.26 0.18 0.11 0.06 0.03 0.02 0.01 0.04 0.12 0.14 0.20 0.28 0.16 0.13 0.08 0.01 0.06 0.06 0.01 0.00 0.00 0.00 0.00 0.00 0.00 0.00 0.00 0.00 0.00 0.00 0.00 0.00 0.00 0.00 0.00 0.00
0.01 0.01 0.00 0.00 0.01 0.03 0.03 0.05 0.04 0.08 0.11 0.13 0.16 0.26 0.22 0.16 0.09 0.05 0.05 0.06 0.06 0.02 0.03 0.01 0.02 0.01 0.02 0.05 0.20 0.22 0.22 0.19 0.11 0.13 0.06 0.02 0.02 0.00 0.00 0.00 0.00 0.00 0.00 0.00 0.00 0.00 0.00 0.00 0.00 0.00 0.00 0.00 0.00 0.00
0.01 0.02 0.01 0.00 0.00 0.01 0.02 0.02 0.02 0.02 0.03 0.04 0.05 0.08 0.05 0.04 0.01 0.02 0.02 0.02 0.03 0.04 0.04 0.02 0.03 0.01 0.02 0.03 0.04 0.05 0.07 0.06 0.08 0.03 0.01 0.01 0.00 0.00 0.00 0.00 0.00 0.00 0.00 0.00 0.00 0.00 0.00 0.00 0.00 0.00 0.00 0.00 0.00 0.00
0.02 0.02 0.03 0.01 0.00 0.00 0.01 0.00 0.00 0.00 0.00 0.00 0.00 0.01 0.01 0.01 0.01 0.00 0.00 0.01 0.02 0.02 0.01 0.03 0.05 0.02 0.01 0.01 0.01 0.01 0.02 0.01 0.01 0.00 0.02 0.01 0.00 0.00 0.00 0.00 0.00 0.00 0.00 0.00 0.00 0.00 0.00 0.00 0.00 0.00 0.00 0.00 0.00 0.00
0.04 0.05 0.04 0.02 0.01 0.00 0.00 0.00 0.01 0.00 0.00 0.00 0.00 0.00 0.01 0.01 0.01 0.00 0.00 0.00 0.01 0.01 0.00 0.00 0.01 0.01 0.01 0.02 0.02 0.01 0.00 0.00 0.00 0.02 0.02 0.00 0.00 0.00 0.00 0.00 0.00 0.00 0.00 0.00 0.00 0.00 0.00 0.00 0.00 0.01 0.01 0.01 0.02 0.01
0.03 0.01 0.03 0.03 0.02 0.00 0.00 0.01 0.00 0.00 0.00 0.00 0.00 0.00 0.01 0.00 0.00 0.00 0.00 0.00 0.01 0.00 0.00 0.00 0.00 0.00 0.00 0.01 0.00 0.00 0.00 0.00 0.00 0.00 0.00 0.00 0.00 0.00 0.00 0.00 0.00 0.00 0.00 0.00 0.00 0.00 0.01 0.01 0.03 0.04 0.04 0.02 0.01 0.01
0.01 0.01 0.01 0.02 0.02 0.03 0.03 0.01 0.00 0.00 0.00 0.00 0.00 0.00 0.00 0.00 0.00 0.00 0.00 0.00 0.01 0.00 0.00 0.01 0.01 0.00 0.00 0.00 0.00 0.00 0.00 0.00 0.00 0.00 0.00 0.00 0.00 0.00 0.00 0.00 0.00 0.00 0.00 0.00 0.00 0.02 0.03 0.03 0.05 0.04 0.02 0.01 0.02 0.03
0.01 0.00 0.01 0.01 0.01 0.01 0.01 0.01 0.01 0.01 0.00 0.00 0.00 0.00 0.00 0.00 0.00 0.00 0.00 0.00 0.01 0.02 0.05 0.03 0.02 0.00 0.00 0.00 0.01 0.01 0.01 0.00 0.00 0.00 0.00 0.00 0.00 0.00 0.00 0.00 0.00 0.00 0.01 0.01 0.02 0.04 0.03 0.02 0.02 0.02 0.02 0.04 0.06 0.06
0.07 0.06 0.05 0.02 0.01 0.02 0.00 0.02 0.01 0.01 0.01 0.00 0.00 0.00 0.00 0.00 0.00 0.00 0.00 0.00 0.01 0.05 0.07 0.04 0.00 0.00 0.00 0.00 0.00 0.00 0.00 0.00 0.00 0.00 0.00 0.00 0.00 0.00 0.00 0.00 0.00 0.01 0.02 0.01 0.03 0.05 0.05 0.03 0.01 0.02 0.05 0.09 0.12 0.08
0.19 0.25 0.17 0.08 0.09 0.05 0.01 0.01 0.00 0.00 0.00 0.00 0.00 0.01 0.01 0.01 0.01 0.00 0.00 0.02 0.06 0.05 0.02 0.00 0.00 0.00 0.00 0.00 0.00 0.00 0.00 0.00 0.01 0.03 0.02 0.00 0.00 0.00 0.00 0.00 0.01 0.03 0.04 0.03 0.03 0.03 0.02 0.03 0.02 0.04 0.08 0.11 0.10 0.09
0.17 0.10 0.07 0.09 0.08 0.03 0.02 0.01 0.01 0.02 0.01 0.01 0.01 0.00 0.01 0.01 0.01 0.01 0.02 0.04 0.03 0.00 0.00 0.00 0.00 0.00 0.00 0.00 0.00 0.00 0.00 0.00 0.00 0.00 0.00 0.00 0.01 0.01 0.01 0.01 0.04 0.03 0.03 0.03 0.03 0.07 0.06 0.03 0.07 0.08 0.06 0.04 0.05 0.05
0.04 0.04 0.08 0.10 0.11 0.10 0.08 0.03 0.03 0.02 0.01 0.01 0.01 0.01 0.01 0.01 0.00 0.01 0.01 0.00 0.00 0.00 0.00 0.00 0.00 0.00 0.00 0.00 0.00 0.00 0.00 0.00 0.00 0.00 0.00 0.01 0.01 0.01 0.01 0.01 0.01 0.05 0.07 0.03 0.02 0.06 0.07 0.07 0.07 0.07 0.05 0.02 0.01 0.01
0.04 0.10 0.14 0.13 0.08 0.10 0.06 0.04 0.04 0.02 0.03 0.02 0.02 0.01 0.00 0.02 0.03 0.03 0.01 0.00 0.00 0.00 0.00 0.00 0.00 0.00 0.00 0.00 0.00 0.00 0.01 0.03 0.02 0.00 0.02 0.05 0.01 0.00 0.01 0.03 0.04 0.03 0.04 0.03 0.04 0.04 0.06 0.07 0.07 0.05 0.04 0.05 0.05 0.04
0.28 0.22 0.09 0.09 0.04 0.04 0.03 0.03 0.02 0.02 0.01 0.01 0.01 0.00 0.00 0.03 0.02 0.01 0.00 0.00 0.00 0.00 0.00 0.00 0.00 0.00 0.01 0.01 0.00 0.01 0.03 0.07 0.03 0.02 0.01 0.03 0.08 0.09 0.06 0.04 0.04 0.03 0.03 0.04 0.08 0.13 0.10 0.09 0.09 0.07 0.06 0.05 0.04 0.03
0.30 0.10 0.03 0.01 0.03 0.01 0.01 0.00 0.01 0.01 0.01 0.01 0.01 0.01 0.02 0.03 0.02 0.01 0.00 0.00 0.00 0.01 0.01 0.00 0.04 0.04 0.02 0.03 0.02 0.02 0.03 0.04 0.08 0.07 0.04 0.06 0.07 0.10 0.11 0.09 0.05 0.03 0.02 0.05 0.08 0.07 0.04 0.03 0.03 0.03 0.03 0.02 0.03 0.04
0.17 0.05 0.03 0.00 0.01 0.01 0.01 0.01 0.01 0.03 0.01 0.01 0.01 0.03 0.07 0.07 0.01 0.00 0.00 0.00 0.00 0.01 0.01 0.02 0.04 0.03 0.02 0.01 0.02 0.02 0.01 0.04 0.07 0.05 0.02 0.01 0.01 0.02 0.05 0.10 0.11 0.06 0.03 0.02 0.04 0.06 0.06 0.04 0.04 0.04 0.04 0.03 0.03 0.05
0.02 0.00 0.01 0.02 0.00 0.01 0.02 0.02 0.02 0.01 0.00 0.00 0.01 0.03 0.06 0.01 0.00 0.00 0.01 0.01 0.01 0.00 0.00 0.00 0.00 0.01 0.00 0.00 0.00 0.00 0.00 0.01 0.01 0.01 0.00 0.00 0.00 0.00 0.01 0.03 0.04 0.04 0.02 0.03 0.05 0.06 0.06 0.07 0.08 0.07 0.06 0.06 0.03 0.04
0.01 0.01 0.02 0.02 0.04 0.06 0.04 0.01 0.00 0.00 0.00 0.01 0.02 0.01 0.00 0.00 0.01 0.01 0.01 0.01 0.00 0.00 0.00 0.00 0.00 0.00 0.00 0.00 0.00 0.00 0.01 0.02 0.06 0.07 0.05 0.04 0.03 0.02 0.02 0.02 0.03 0.04 0.04 0.04 0.05 0.09 0.10 0.11 0.08 0.07 0.07 0.07 0.07 0.10
0.00 0.02 0.03 0.02 0.03 0.04 0.02 0.01 0.00 0.01 0.02 0.04 0.04 0.06 0.03 0.00 0.01 0.01 0.00 0.00 0.00 0.00 0.01 0.01 0.02 0.02 0.03 0.03 0.02 0.02 0.04 0.05 0.09 0.14 0.11 0.06 0.07 0.06 0.07 0.08 0.09 0.09 0.10 0.13 0.11 0.08 0.10 0.12 0.13 0.14 0.15 0.18 0.19 0.19
0.02 0.03 0.03 0.04 0.02 0.00 0.01 0.02 0.02 0.02 0.01 0.00 0.01 0.05 0.03 0.01 0.02 0.01 0.01 0.01 0.01 0.01 0.02 0.02 0.04 0.07 0.07 0.06 0.07 0.08 0.09 0.13 0.07 0.07 0.09 0.11 0.13 0.15 0.15 0.14 0.14 0.13 0.13 0.13 0.11 0.11 0.13 0.16 0.17 0.16 0.15 0.14 0.14 0.12
0.05 0.05 0.06 0.06 0.03 0.05 0.05 0.04 0.05 0.05 0.02 0.03 0.02 0.02 0.02 0.04 0.06 0.10 0.06 0.01 0.02 0.04 0.06 0.07 0.08 0.09 0.12 0.12 0.15 0.13 0.11 0.12 0.10 0.11 0.13 0.14 0.15 0.14 0.12 0.11 0.11 0.09 0.08 0.07 0.06 0.05 0.05 0.06 0.07 0.05 0.04 0.05 0.05 0.05
0.07 0.08 0.09 0.09 0.06 0.04 0.04 0.06 0.07 0.04 0.02 0.01 0.01 0.01 0.03 0.07 0.16 0.16 0.07 0.06 0.11 0.13 0.14 0.16 0.18 0.20 0.21 0.19 0.19 0.16 0.14 0.12 0.11 0.08 0.09 0.09 0.08 0.07 0.06 0.06 0.07 0.06 0.05 0.04 0.03 0.02 0.02 0.02 0.02 0.05 0.05 0.05 0.05 0.04

GFSWCAN_prec_precacc_024.txt.gz
Total_Precipitation_Accumulation
0.59 0.33 0.11 0.03 0.00 0.00 0.00 0.00 0.00 0.00 0.00 0.00 0.00 0.00 0.00 0.00 0.00 0.00 0.02 0.05 0.12 0.08 0.00 0.00 0.00 0.00 0.00 0.01 0.04 0.04 0.03 0.00 0.01 0.01 0.01 0.00 0.01 0.01 0.01 0.00 0.01 0.03 0.09 0.10 0.07 0.16 0.05 0.00 0.02 0.13 0.16 0.07 0.08 0.06
0.46 0.39 0.24 0.09 0.04 0.02 0.01 0.00 0.00 0.00 0.00 0.00 0.00 0.00 0.00 0.00 0.00 0.00 0.01 0.05 0.09 0.12 0.02 0.00 0.00 0.00 0.00 0.00 0.04 0.08 0.04 0.03 0.06 0.03 0.01 0.01 0.01 0.01 0.00 0.02 0.00 0.01 0.01 0.02 0.04 0.03 0.00 0.00 0.02 0.01 0.03 0.09 0.06 0.07
0.43 0.34 0.28 0.14 0.06 0.03 0.02 0.01 0.00 0.00 0.00 0.00 0.00 0.00 0.00 0.01 0.02 0.02 0.01 0.04 0.03 0.05 0.03 0.02 0.00 0.00 0.00 0.00 0.02 0.11 0.04 0.03 0.07 0.09 0.16 0.09 0.12 0.06 0.05 0.04 0.01 0.04 0.02 0.02 0.02 0.01 0.00 0.01 0.01 0.02 0.06 0.08 0.13 0.20
0.31 0.37 0.29 0.23 0.12 0.06 0.02 0.01 0.01 0.01 0.00 0.00 0.00 0.00 0.00 0.00 0.00 0.02 0.03 0.04 0.10 0.13 0.11 0.03 0.00 0.00 0.00 0.00 0.00 0.01 0.04 0.10 0.17 0.25 0.24 0.17 0.23 0.12 0.07 0.02 0.05 0.08 0.06 0.03 0.04 0.01 0.02 0.04 0.07 0.12 0.19 0.31 0.29 0.19
0.10 0.22 0.29 0.27 0.21 0.13 0.06 0.02 0.01 0.02 0.02 0.01 0.01 0.01 0.00 0.00 0.02 0.05 0.08 0.04 0.08 0.22 0.21 0.08 0.02 0.00 0.00 0.00 0.00 0.01 0.06 0.10 0.21 0.20 0.13 0.04 0.02 0.04 0.06 0.09 0.13 0.06 0.03 0.05 0.09 0.05 0.20 0.14 0.26 0.38 0.37 0.27 0.15 0.09
0.03 0.10 0.22 0.27 0.22 0.19 0.13 0.08 0.02 0.02 0.05 0.06 0.05 0.05 0.06 0.09 0.28 0.66 0.62 0.18 0.07 0.18 0.63 0.36 0.04 0.00 0.00 0.00 0.00 0.00 0.01 0.09 0.23 0.13 0.04 0.01 0.01 0.10 0.26 0.14 0.02 0.00 0.01 0.11 0.16 0.12 0.19 0.30 0.32 0.22 0.20 0.13 0.04 0.01
0.00 0.03 0.11 0.19 0.21 0.22 0.22 0.14 0.09 0.04 0.04 0.05 0.09 0.14 0.20 0.39 0.74 0.90 0.64 0.18 0.04 0.20 0.96 0.68 0.12 0.01 0.00 0.00 0.01 0.02 0.04 0.09 0.11 0.10 0.05 0.02 0.03 0.29 0.40 0.16 0.01 0.00 0.01 0.04 0.05 0.10 0.19 0.19 0.19 0.14 0.06 0.01 0.00 0.00
0.00 0.00 0.02 0.10 0.13 0.13 0.19 0.24 0.15 0.10 0.08 0.07 0.09 0.18 0.46 1.10 1.31 0.97 0.64 0.60 0.44 0.45 0.70 0.65 0.20 0.02 0.00 0.00 0.01 0.00 0.00 0.01 0.04 0.06 0.05 0.05 0.04 0.14 0.25 0.04 0.00 0.00 0.00 0.00 0.01 0.02 0.08 0.04 0.01 0.01 0.00 0.00 0.00 0.00
0.00 0.00 0.00 0.03 0.05 0.05 0.09 0.18 0.24 0.18 0.20 0.26 0.40 0.59 0.71 0.61 0.48 0.52 0.74 0.80 0.94 1.00 1.09 0.57 0.09 0.03 0.05 0.04 0.03 0.04 0.07 0.13 0.10 0.05 0.02 0.06 0.03 0.06 0.02 0.00 0.00 0.00 0.00 0.01 0.00 0.00 0.00 0.00 0.00 0.01 0.00 0.00 0.00 0.00
0.00 0.00 0.00 0.00 0.00 0.01 0.02 0.10 0.26 0.38 0.51 0.68 0.72 0.69 0.74 0.57 0.54 0.43 0.58 0.85 1.26 1.35 1.11 0.52 0.13 0.10 0.06 0.07 0.13 0.17 0.29 0.22 0.18 0.02 0.03 0.05 0.02 0.00 0.00 0.00 0.00 0.00 0.00 0.00 0.00 0.01 0.03 0.04 0.02 0.00 0.00 0.00 0.00 0.00
0.01 0.01 0.00 0.00 0.00 0.00 0.02 0.07 0.25 0.65 0.95 0.88 0.87 0.82 0.58 0.52 0.41 0.46 0.57 0.57 0.59 0.47 0.33 0.16 0.07 0.08 0.08 0.15 0.29 0.36 0.30 0.15 0.16 0.01 0.09 0.07 0.01 0.00 0.00 0.00 0.00 0.00 0.00 0.00 0.01 0.01 0.01 0.00 0.00 0.00 0.00 0.00 0.00 0.00
0.01 0.01 0.00 0.00 0.00 0.02 0.05 0.14 0.30 0.47 0.76 0.74 0.49 0.57 0.63 0.50 0.38 0.42 0.49 0.36 0.18 0.09 0.03 0.02 0.02 0.06 0.16 0.20 0.27 0.34 0.18 0.14 0.09 0.02 0.07 0.06 0.01 0.00 0.00 0.00 0.00 0.00 0.00 0.00 0.00 0.00 0.00 0.00 0.00 0.00 0.00 0.00 0.00 0.00
0.01 0.01 0.00 0.00 0.01 0.04 0.05 0.12 0.11 0.23 0.35 0.46 0.51 0.65 0.57 0.46 0.30 0.19 0.13 0.11 0.08 0.03 0.03 0.01 0.03 0.03 0.04 0.06 0.22 0.24 0.24 0.21 0.11 0.13 0.07 0.02 0.02 0.00 0.00 0.00 0.00 0.00 0.00 0.00 0.00 0.00 0.00 0.00 0.00 0.00 0.00 0.00 0.00 0.00
0.01 0.02 0.01 0.00 0.01 0.02 0.06 0.05 0.09 0.09 0.15 0.26 0.34 0.38 0.26 0.21 0.11 0.06 0.03 0.02 0.03 0.04 0.04 0.02 0.03 0.02 0.02 0.04 0.06 0.07 0.09 0.06 0.09 0.03 0.01 0.01 0.00 0.00 0.00 0.00 0.00 0.00 0.00 0.00 0.00 0.00 0.00 0.00 0.00 0.00 0.00 0.00 0.00 0.00
0.03 0.04 0.03 0.01 0.00 0.01 0.07 0.08 0.08 0.01 0.02 0.05 0.04 0.10 0.08 0.10 0.06 0.04 0.02 0.01 0.02 0.02 0.01 0.03 0.05 0.03 0.02 0.03 0.02 0.02 0.03 0.01 0.01 0.00 0.02 0.01 0.00 0.00 0.00 0.00 0.00 0.00 0.00 0.00 0.00 0.00 0.00 0.00 0.00 0.00 0.00 0.00 0.00 0.00
0.07 0.07 0.04 0.02 0.01 0.00 0.07 0.15 0.04 0.02 0.00 0.00 0.00 0.01 0.04 0.02 0.03 0.01 0.00 0.01 0.01 0.01 0.00 0.00 0.01 0.01 0.02 0.02 0.02 0.01 0.00 0.00 0.00 0.02 0.02 0.00 0.00 0.00 0.00 0.00 0.00 0.00 0.00 0.00 0.00 0.00 0.00 0.00 0.00 0.01 0.01 0.01 0.02 0.01
0.11 0.05 0.03 0.03 0.02 0.00 0.01 0.04 0.01 0.01 0.01 0.00 0.00 0.00 0.02 0.01 0.01 0.00 0.00 0.00 0.01 0.00 0.00 0.00 0.00 0.00 0.00 0.01 0.00 0.00 0.00 0.00 0.00 0.00 0.00 0.00 0.00 0.00 0.00 0.00 0.00 0.00 0.00 0.00 0.00 0.00 0.01 0.01 0.03 0.04 0.04 0.02 0.01 0.01
0.11 0.02 0.01 0.02 0.03 0.03 0.03 0.01 0.00 0.00 0.00 0.00 0.00 0.00 0.00 0.00 0.00 0.00 0.00 0.00 0.01 0.00 0.00 0.01 0.01 0.00 0.00 0.00 0.00 0.00 0.00 0.00 0.00 0.00 0.00 0.00 0.00 0.00 0.00 0.00 0.00 0.00 0.00 0.00 0.00 0.02 0.03 0.03 0.05 0.04 0.02 0.01 0.02 0.03
0.05 0.01 0.01 0.04 0.03 0.02 0.02 0.01 0.01 0.01 0.00 0.00 0.00 0.00 0.00 0.00 0.00 0.00 0.00 0.00 0.01 0.02 0.05 0.03 0.02 0.00 0.00 0.00 0.01 0.01 0.01 0.00 0.00 0.00 0.00 0.00 0.00 0.00 0.00 0.00 0.00 0.00 0.01 0.01 0.02 0.04 0.03 0.02 0.02 0.02 0.02 0.04 0.06 0.06
0.17 0.11 0.08 0.09 0.03 0.03 0.01 0.02 0.01 0.01 0.01 0.00 0.00 0.00 0.00 0.00 0.00 0.00 0.00 0.00 0.01 0.05 0.07 0.04 0.00 0.00 0.00 0.00 0.00 0.00 0.00 0.00 0.00 0.00 0.00 0.00 0.00 0.00 0.00 0.00 0.00 0.01 0.02 0.01 0.03 0.05 0.05 0.03 0.01 0.02 0.05 0.09 0.12 0.09
0.36 0.38 0.26 0.11 0.09 0.05 0.01 0.01 0.00 0.00 0.00 0.00 0.00 0.01 0.01 0.01 0.01 0.00 0.00 0.02 0.06 0.05 0.02 0.00 0.00 0.00 0.00 0.00 0.00 0.00 0.00 0.00 0.01 0.03 0.02 0.00 0.00 0.00 0.00 0.00 0.01 0.03 0.04 0.03 0.03 0.03 0.02 0.03 0.02 0.04 0.08 0.11 0.11 0.09
0.32 0.19 0.14 0.10 0.08 0.03 0.02 0.01 0.01 0.02 0.01 0.01 0.01 0.00 0.01 0.01 0.01 0.01 0.02 0.04 0.03 0.00 0.00 0.00 0.00 0.00 0.00 0.00 0.00 0.00 0.00 0.00 0.00 0.00 0.00 0.00 0.01 0.01 0.01 0.01 0.04 0.03 0.03 0.03 0.03 0.07 0.06 0.03 0.07 0.08 0.07 0.04 0.05 0.06
0.14 0.10 0.10 0.10 0.11 0.10 0.08 0.03 0.03 0.02 0.01 0.01 0.01 0.01 0.01 0.01 0.00 0.01 0.02 0.00 0.00 0.00 0.00 0.00 0.00 0.00 0.00 0.00 0.00 0.00 0.00 0.00 0.00 0.00 0.00 0.01 0.01 0.01 0.01 0.01 0.01 0.05 0.07 0.03 0.02 0.06 0.07 0.07 0.07 0.07 0.05 0.03 0.02 0.02
0.06 0.12 0.16 0.14 0.08 0.10 0.06 0.04 0.04 0.02 0.03 0.02 0.02 0.01 0.00 0.02 0.03 0.03 0.01 0.00 0.00 0.00 0.00 0.00 0.00 0.00 0.00 0.00 0.00 0.00 0.01 0.03 0.02 0.00 0.02 0.05 0.01 0.00 0.01 0.03 0.04 0.03 0.04 0.04 0.04 0.04 0.06 0.07 0.07 0.05 0.05 0.05 0.06 0.05
0.29 0.23 0.09 0.09 0.04 0.04 0.03 0.03 0.02 0.02 0.02 0.01 0.01 0.00 0.00 0.03 0.02 0.01 0.00 0.00 0.00 0.00 0.00 0.00 0.00 0.00 0.01 0.01 0.00 0.01 0.03 0.07 0.03 0.02 0.01 0.03 0.08 0.09 0.06 0.04 0.04 0.03 0.03 0.05 0.09 0.13 0.11 0.10 0.09 0.08 0.06 0.06 0.05 0.04
0.30 0.11 0.03 0.01 0.03 0.01 0.01 0.01 0.01 0.01 0.01 0.01 0.01 0.01 0.02 0.03 0.02 0.01 0.00 0.00 0.00 0.01 0.01 0.00 0.04 0.04 0.02 0.03 0.02 0.02 0.03 0.04 0.08 0.07 0.04 0.06 0.07 0.10 0.11 0.09 0.06 0.03 0.02 0.05 0.08 0.07 0.04 0.03 0.03 0.03 0.03 0.02 0.03 0.04
0.17 0.05 0.03 0.00 0.01 0.01 0.01 0.01 0.01 0.03 0.02 0.01 0.01 0.03 0.07 0.07 0.01 0.00 0.00 0.00 0.00 0.01 0.01 0.02 0.04 0.03 0.02 0.01 0.02 0.02 0.01 0.04 0.07 0.05 0.02 0.01 0.02 0.03 0.07 0.11 0.12 0.07 0.04 0.03 0.04 0.07 0.07 0.05 0.05 0.04 0.04 0.04 0.03 0.05
0.02 0.00 0.01 0.02 0.01 0.01 0.02 0.02 0.02 0.01 0.00 0.00 0.01 0.03 0.06 0.01 0.00 0.00 0.01 0.01 0.01 0.00 0.00 0.00 0.00 0.01 0.00 0.00 0.00 0.00 0.01 0.01 0.02 0.01 0.01 0.00 0.01 0.01 0.01 0.04 0.05 0.05 0.03 0.04 0.06 0.07 0.07 0.08 0.09 0.08 0.07 0.06 0.03 0.04
0.01 0.01 0.02 0.02 0.04 0.06 0.04 0.01 0.00 0.00 0.00 0.01 0.02 0.01 0.00 0.00 0.01 0.01 0.01 0.01 0.00 0.00 0.00 0.00 0.00 0.00 0.00 0.00 0.01 0.03 0.04 0.04 0.08 0.10 0.07 0.05 0.05 0.05 0.04 0.03 0.04 0.05 0.05 0.05 0.06 0.12 0.12 0.12 0.10 0.08 0.07 0.07 0.08 0.10
0.00 0.02 0.03 0.02 0.03 0.04 0.02 0.01 0.00 0.01 0.02 0.04 0.04 0.06 0.03 0.01 0.01 0.01 0.01 0.00 0.00 0.01 0.01 0.01 0.02 0.03 0.03 0.04 0.03 0.04 0.08 0.09 0.13 0.17 0.14 0.09 0.10 0.08 0.08 0.10 0.11 0.10 0.11 0.14 0.12 0.08 0.11 0.13 0.13 0.14 0.15 0.18 0.19 0.19
0.02 0.04 0.03 0.04 0.02 0.00 0.01 0.02 0.02 0.02 0.01 0.00 0.01 0.05 0.03 0.02 0.03 0.01 0.01 0.01 0.01 0.01 0.02 0.02 0.04 0.08 0.09 0.09 0.10 0.11 0.13 0.15 0.10 0.11 0.13 0.14 0.16 0.17 0.17 0.16 0.15 0.14 0.13 0.13 0.11 0.11 0.13 0.16 0.17 0.16 0.15 0.14 0.14 0.12
0.05 0.06 0.06 0.07 0.03 0.05 0.05 0.04 0.05 0.05 0.02 0.03 0.02 0.02 0.02 0.04 0.07 0.11 0.06 0.02 0.02 0.04 0.06 0.07 0.08 0.11 0.14 0.15 0.17 0.16 0.14 0.15 0.12 0.14 0.16 0.17 0.18 0.17 0.14 0.12 0.11 0.09 0.08 0.07 0.06 0.05 0.05 0.06 0.07 0.05 0.04 0.05 0.05 0.05
0.07 0.08 0.10 0.09 0.06 0.04 0.04 0.06 0.07 0.04 0.02 0.01 0.01 0.02 0.03 0.07 0.17 0.17 0.07 0.06 0.11 0.14 0.15 0.17 0.19 0.21 0.23 0.21 0.21 0.18 0.15 0.14 0.13 0.11 0.11 0.11 0.10 0.08 0.07 0.07 0.07 0.06 0.05 0.04 0.03 0.02 0.02 0.02 0.02 0.05 0.05 0.05 0.05 0.04

GFSWCAN_prec_precacc_030.txt.gz
Total_Precipitation_Accumulation
0.65 0.35 0.11 0.03 0.00 0.00 0.00 0.00 0.00 0.00 0.00 0.00 0.00 0.00 0.00 0.00 0.00 0.00 0.02 0.05 0.12 0.08 0.00 0.00 0.00 0.00 0.00 0.01 0.04 0.04 0.03 0.00 0.01 0.01 0.02 0.00 0.01 0.01 0.01 0.00 0.01 0.03 0.09 0.10 0.07 0.16 0.06 0.00 0.03 0.15 0.18 0.08 0.08 0.07
0.67 0.47 0.25 0.09 0.04 0.02 0.01 0.00 0.00 0.00 0.00 0.00 0.00 0.00 0.00 0.00 0.00 0.00 0.01 0.05 0.09 0.12 0.02 0.00 0.00 0.00 0.00 0.00 0.04 0.08 0.04 0.03 0.06 0.03 0.01 0.01 0.01 0.02 0.00 0.02 0.00 0.01 0.01 0.02 0.04 0.03 0.00 0.00 0.03 0.02 0.04 0.10 0.07 0.07
0.79 0.51 0.32 0.14 0.06 0.03 0.02 0.01 0.00 0.00 0.00 0.00 0.00 0.00 0.00 0.01 0.02 0.02 0.01 0.04 0.03 0.06 0.03 0.02 0.00 0.00 0.00 0.00 0.02 0.11 0.04 0.03 0.07 0.09 0.16 0.09 0.13 0.06 0.05 0.04 0.01 0.04 0.02 0.02 0.02 0.01 0.00 0.01 0.01 0.02 0.06 0.08 0.13 0.20
0.65 0.64 0.41 0.25 0.13 0.06 0.02 0.01 0.01 0.01 0.00 0.00 0.00 0.00 0.00 0.00 0.00 0.02 0.03 0.04 0.10 0.13 0.13 0.03 0.00 0.00 0.00 0.00 0.00 0.01 0.04 0.10 0.17 0.25 0.24 0.18 0.24 0.12 0.07 0.02 0.05 0.08 0.06 0.03 0.05 0.01 0.02 0.04 0.07 0.14 0.21 0.31 0.29 0.19
0.33 0.47 0.47 0.34 0.23 0.13 0.06 0.02 0.01 0.02 0.02 0.01 0.01 0.01 0.00 0.00 0.02 0.05 0.08 0.04 0.08 0.22 0.22 0.08 0.02 0.00 0.00 0.00 0.00 0.01 0.06 0.10 0.21 0.21 0.14 0.05 0.02 0.04 0.06 0.09 0.13 0.06 0.03 0.06 0.10 0.06 0.23 0.22 0.33 0.42 0.38 0.27 0.15 0.09
0.16 0.26 0.37 0.39 0.26 0.21 0.13 0.08 0.02 0.02 0.05 0.06 0.05 0.05 0.06 0.09 0.28 0.66 0.62 0.18 0.07 0.18 0.63 0.36 0.04 0.00 0.00 0.00 0.00 0.00 0.01 0.10 0.24 0.14 0.04 0.01 0.01 0.11 0.26 0.14 0.02 0.00 0.01 0.11 0.16 0.13 0.22 0.32 0.34 0.22 0.20 0.13 0.04 0.01
0.02 0.10 0.18 0.28 0.28 0.25 0.23 0.14 0.09 0.04 0.04 0.05 0.09 0.14 0.20 0.39 0.74 0.90 0.64 0.18 0.04 0.20 0.97 0.69 0.12 0.01 0.00 0.00 0.01 0.02 0.04 0.09 0.12 0.11 0.06 0.02 0.03 0.30 0.41 0.16 0.01 0.00 0.01 0.04 0.05 0.10 0.20 0.20 0.19 0.14 0.06 0.01 0.00 0.00
0.00 0.01 0.03 0.13 0.20 0.17 0.20 0.24 0.15 0.10 0.08 0.07 0.09 0.19 0.46 1.11 1.31 0.99 0.64 0.60 0.44 0.45 0.71 0.66 0.20 0.02 0.00 0.00 0.01 0.00 0.01 0.02 0.06 0.08 0.06 0.05 0.05 0.15 0.26 0.04 0.00 0.00 0.00 0.00 0.01 0.03 0.09 0.04 0.01 0.01 0.00 0.00 0.00 0.00
0.00 0.00 0.00 0.03 0.05 0.10 0.12 0.19 0.25 0.20 0.20 0.26 0.42 0.65 0.75 0.63 0.49 0.53 0.74 0.80 0.94 1.01 1.10 0.59 0.09 0.04 0.05 0.04 0.03 0.04 0.07 0.14 0.10 0.05 0.02 0.06 0.04 0.06 0.02 0.00 0.00 0.00 0.00 0.01 0.00 0.00 0.00 0.00 0.00 0.01 0.00 0.00 0.00 0.00
0.00 0.00 0.00 0.00 0.00 0.01 0.03 0.11 0.27 0.45 0.63 0.76 0.77 0.77 0.79 0.61 0.62 0.46 0.59 0.86 1.27 1.35 1.11 0.52 0.13 0.10 0.06 0.07 0.13 0.17 0.29 0.23 0.18 0.02 0.03 0.06 0.04 0.00 0.00 0.00 0.00 0.00 0.01 0.00 0.00 0.01 0.03 0.04 0.02 0.00 0.00 0.00 0.00 0.00
0.01 0.01 0.00 0.00 0.00 0.00 0.02 0.07 0.27 0.86 1.63 1.63 1.27 0.99 0.66 0.65 0.45 0.52 0.63 0.62 0.62 0.48 0.34 0.17 0.08 0.08 0.08 0.15 0.30 0.37 0.31 0.15 0.16 0.02 0.09 0.07 0.02 0.00 0.00 0.00 0.00 0.00 0.00 0.00 0.01 0.01 0.01 0.00 0.00 0.00 0.00 0.00 0.00 0.00
0.01 0.01 0.00 0.00 0.01 0.02 0.05 0.15 0.34 0.67 1.26 1.30 0.89 0.77 0.80 0.66 0.57 0.65 0.75 0.49 0.22 0.10 0.04 0.03 0.03 0.06 0.17 0.22 0.32 0.43 0.24 0.18 0.11 0.02 0.08 0.07 0.01 0.00 0.00 0.00 0.00 0.00 0.00 0.00 0.00 0.00 0.00 0.00 0.00 0.00 0.00 0.00 0.00 0.00
0.01 0.01 0.00 0.00 0.02 0.04 0.05 0.13 0.14 0.37 0.64 0.94 1.08 1.22 1.06 1.08 0.88 0.60 0.32 0.17 0.10 0.04 0.04 0.02 0.05 0.07 0.10 0.15 0.33 0.37 0.36 0.30 0.13 0.15 0.08 0.02 0.02 0.00 0.00 0.00 0.00 0.00 0.00 0.00 0.00 0.00 0.00 0.00 0.00 0.00 0.00 0.00 0.00 0.00
0.01 0.02 0.01 0.01 0.02 0.04 0.07 0.06 0.11 0.18 0.40 0.87 1.21 1.26 0.90 0.82 0.54 0.30 0.08 0.03 0.04 0.05 0.04 0.03 0.07 0.08 0.12 0.16 0.20 0.21 0.22 0.13 0.14 0.06 0.02 0.02 0.00 0.00 0.00 0.00 0.00 0.00 0.00 0.00 0.00 0.00 0.00 0.00 0.00 0.00 0.00 0.00 0.00 0.00
0.03 0.04 0.03 0.01 0.02 0.04 0.10 0.09 0.11 0.03 0.11 0.27 0.34 0.49 0.48 0.40 0.24 0.15 0.09 0.05 0.06 0.07 0.06 0.08 0.13 0.10 0.11 0.14 0.14 0.11 0.11 0.08 0.04 0.03 0.04 0.01 0.00 0.00 0.00 0.00 0.00 0.00 0.00 0.00 0.00 0.00 0.00 0.00 0.00 0.00 0.00 0.00 0.00 0.00
0.07 0.08 0.04 0.03 0.02 0.04 0.08 0.19 0.12 0.04 0.02 0.06 0.14 0.22 0.24 0.22 0.21 0.14 0.09 0.08 0.09 0.12 0.10 0.09 0.10 0.10 0.12 0.10 0.08 0.08 0.07 0.05 0.06 0.03 0.02 0.00 0.00 0.00 0.00 0.00 0.00 0.00 0.00 0.00 0.00 0.00 0.00 0.00 0.00 0.01 0.01 0.01 0.02 0.01
0.12 0.07 0.03 0.04 0.04 0.02 0.04 0.22 0.14 0.05 0.03 0.00 0.02 0.05 0.08 0.08 0.09 0.09 0.10 0.11 0.09 0.10 0.09 0.07 0.05 0.08 0.07 0.07 0.04 0.02 0.03 0.02 0.00 0.00 0.00 0.00 0.00 0.00 0.00 0.00 0.00 0.00 0.00 0.00 0.00 0.00 0.01 0.01 0.03 0.04 0.04 0.02 0.01 0.01
0.14 0.04 0.01 0.03 0.03 0.03 0.03 0.01 0.01 0.00 0.00 0.00 0.00 0.01 0.00 0.01 0.01 0.01 0.01 0.01 0.02 0.02 0.01 0.02 0.02 0.01 0.01 0.01 0.01 0.00 0.00 0.00 0.00 0.00 0.00 0.00 0.00 0.00 0.00 0.00 0.00 0.00 0.00 0.00 0.00 0.02 0.03 0.03 0.05 0.04 0.02 0.01 0.02 0.03
0.09 0.06 0.02 0.04 0.05 0.02 0.02 0.01 0.01 0.01 0.00 0.00 0.00 0.00 0.00 0.01 0.00 0.00 0.00 0.00 0.01 0.02 0.05 0.03 0.02 0.00 0.00 0.00 0.01 0.01 0.01 0.00 0.00 0.00 0.00 0.00 0.00 0.00 0.00 0.00 0.00 0.00 0.01 0.01 0.02 0.04 0.03 0.02 0.02 0.02 0.03 0.04 0.06 0.06
0.24 0.27 0.16 0.10 0.07 0.11 0.02 0.02 0.01 0.01 0.01 0.00 0.00 0.00 0.00 0.00 0.01 0.00 0.00 0.00 0.01 0.05 0.07 0.04 0.00 0.00 0.00 0.00 0.00 0.00 0.00 0.00 0.00 0.00 0.00 0.00 0.00 0.00 0.00 0.00 0.00 0.01 0.02 0.01 0.03 0.05 0.05 0.03 0.02 0.03 0.06 0.10 0.12 0.09
0.51 0.60 0.45 0.17 0.13 0.13 0.03 0.01 0.00 0.00 0.00 0.00 0.00 0.01 0.01 0.01 0.01 0.01 0.01 0.02 0.07 0.05 0.02 0.00 0.00 0.00 0.00 0.00 0.00 0.00 0.00 0.00 0.01 0.03 0.02 0.00 0.00 0.00 0.00 0.00 0.01 0.03 0.04 0.04 0.04 0.04 0.05 0.05 0.04 0.05 0.09 0.11 0.11 0.10
0.49 0.38 0.28 0.15 0.15 0.04 0.02 0.01 0.01 0.02 0.01 0.01 0.01 0.00 0.01 0.01 0.01 0.02 0.02 0.04 0.03 0.00 0.00 0.00 0.00 0.00 0.00 0.00 0.00 0.00 0.00 0.00 0.00 0.00 0.00 0.00 0.01 0.01 0.01 0.01 0.04 0.04 0.05 0.05 0.06 0.09 0.08 0.05 0.08 0.08 0.07 0.05 0.06 0.07
0.38 0.32 0.23 0.15 0.13 0.13 0.09 0.03 0.03 0.02 0.01 0.01 0.02 0.02 0.01 0.01 0.01 0.01 0.02 0.00 0.00 0.00 0.00 0.00 0.00 0.00 0.00 0.00 0.00 0.00 0.00 0.00 0.00 0.00 0.00 0.01 0.01 0.01 0.01 0.02 0.04 0.08 0.10 0.06 0.06 0.08 0.08 0.07 0.08 0.08 0.06 0.04 0.03 0.03
0.26 0.35 0.33 0.19 0.09 0.10 0.06 0.05 0.04 0.02 0.03 0.02 0.02 0.01 0.01 0.02 0.03 0.03 0.01 0.00 0.00 0.00 0.00 0.00 0.00 0.00 0.00 0.00 0.00 0.00 0.01 0.03 0.02 0.00 0.02 0.05 0.01 0.02 0.04 0.06 0.07 0.07 0.08 0.06 0.06 0.05 0.07 0.08 0.08 0.06 0.06 0.07 0.08 0.08
0.56 0.44 0.22 0.11 0.04 0.04 0.03 0.03 0.03 0.02 0.02 0.01 0.01 0.00 0.00 0.03 0.02 0.01 0.00 0.00 0.00 0.00 0.00 0.00 0.00 0.00 0.01 0.01 0.00 0.01 0.03 0.07 0.03 0.02 0.02 0.06 0.12 0.12 0.09 0.08 0.08 0.07 0.07 0.08 0.12 0.16 0.12 0.11 0.10 0.09 0.08 0.08 0.08 0.05
0.43 0.16 0.04 0.02 0.03 0.01 0.01 0.01 0.01 0.01 0.01 0.01 0.01 0.01 0.03 0.03 0.02 0.01 0.00 0.01 0.01 0.01 0.01 0.01 0.04 0.04 0.02 0.03 0.02 0.02 0.03 0.04 0.08 0.08 0.06 0.08 0.10 0.14 0.17 0.15 0.10 0.06 0.07 0.09 0.14 0.13 0.07 0.04 0.04 0.05 0.05 0.04 0.06 0.06
0.19 0.05 0.03 0.00 0.01 0.01 0.01 0.01 0.01 0.03 0.02 0.01 0.01 0.03 0.07 0.07 0.01 0.00 0.00 0.00 0.01 0.02 0.02 0.02 0.04 0.03 0.02 0.01 0.02 0.02 0.01 0.04 0.08 0.06 0.03 0.02 0.03 0.07 0.14 0.21 0.21 0.16 0.10 0.10 0.13 0.15 0.13 0.09 0.07 0.06 0.07 0.06 0.06 0.08
0.02 0.00 0.01 0.02 0.01 0.01 0.02 0.02 0.02 0.01 0.00 0.00 0.01 0.03 0.06 0.01 0.00 0.01 0.02 0.01 0.01 0.00 0.00 0.00 0.00 0.01 0.01 0.00 0.00 0.01 0.01 0.02 0.02 0.01 0.01 0.02 0.06 0.09 0.09 0.12 0.14 0.12 0.10 0.12 0.14 0.12 0.12 0.12 0.13 0.12 0.11 0.10 0.06 0.06
0.01 0.01 0.02 0.02 0.04 0.06 0.04 0.01 0.00 0.00 0.00 0.01 0.02 0.01 0.01 0.00 0.02 0.02 0.01 0.01 0.00 0.00 0.00 0.00 0.00 0.00 0.00 0.00 0.01 0.04 0.05 0.05 0.09 0.11 0.09 0.11 0.17 0.14 0.08 0.08 0.09 0.09 0.09 0.09 0.11 0.18 0.17 0.15 0.13 0.11 0.10 0.10 0.09 0.12
0.01 0.02 0.03 0.02 0.03 0.04 0.02 0.01 0.01 0.01 0.02 0.04 0.04 0.06 0.04 0.02 0.03 0.01 0.01 0.01 0.01 0.01 0.01 0.02 0.03 0.03 0.04 0.04 0.04 0.05 0.10 0.10 0.15 0.21 0.18 0.13 0.13 0.11 0.11 0.13 0.14 0.14 0.16 0.19 0.17 0.13 0.15 0.16 0.17 0.19 0.17 0.19 0.20 0.21
0.03 0.04 0.03 0.05 0.02 0.01 0.01 0.03 0.02 0.02 0.01 0.01 0.01 0.06 0.06 0.03 0.05 0.02 0.01 0.02 0.02 0.02 0.02 0.03 0.05 0.08 0.10 0.10 0.12 0.12 0.14 0.16 0.12 0.12 0.15 0.16 0.18 0.19 0.19 0.18 0.17 0.17 0.17 0.17 0.15 0.16 0.16 0.19 0.22 0.20 0.17 0.16 0.14 0.13
0.06 0.06 0.07 0.07 0.04 0.05 0.05 0.05 0.06 0.05 0.03 0.03 0.02 0.02 0.03 0.05 0.08 0.12 0.07 0.02 0.03 0.04 0.07 0.08 0.09 0.11 0.15 0.16 0.19 0.18 0.16 0.16 0.14 0.15 0.17 0.18 0.19 0.18 0.16 0.15 0.15 0.13 0.12 0.11 0.11 0.10 0.08 0.10 0.10 0.07 0.06 0.06 0.06 0.06
0.07 0.09 0.10 0.09 0.06 0.04 0.04 0.06 0.07 0.04 0.02 0.01 0.01 0.02 0.04 0.08 0.18 0.18 0.08 0.07 0.12 0.14 0.15 0.17 0.19 0.22 0.25 0.22 0.22 0.19 0.16 0.15 0.14 0.12 0.13 0.13 0.11 0.10 0.09 0.09 0.10 0.09 0.09 0.09 0.08 0.07 0.06 0.05 0.05 0.07 0.06 0.06 0.05 0.04

GFSWCAN_prec_precacc_033.txt.gz
Total_Precipitation_Accumulation
0.68 0.35 0.11 0.03 0.00 0.00 0.00 0.00 0.00 0.00 0.00 0.00 0.00 0.00 0.00 0.00 0.00 0.00 0.02 0.05 0.12 0.08 0.00 0.00 0.00 0.00 0.00 0.02 0.04 0.04 0.03 0.00 0.01 0.01 0.02 0.00 0.01 0.01 0.01 0.00 0.01 0.03 0.09 0.10 0.07 0.16 0.06 0.00 0.03 0.15 0.18 0.08 0.08 0.07
0.70 0.47 0.25 0.09 0.04 0.02 0.01 0.00 0.00 0.00 0.00 0.00 0.00 0.00 0.00 0.00 0.00 0.00 0.01 0.05 0.09 0.12 0.02 0.00 0.00 0.00 0.00 0.00 0.04 0.08 0.04 0.03 0.06 0.03 0.01 0.01 0.01 0.02 0.00 0.02 0.00 0.01 0.01 0.02 0.04 0.03 0.00 0.00 0.03 0.02 0.04 0.10 0.07 0.07
0.83 0.51 0.32 0.14 0.06 0.03 0.02 0.01 0.00 0.00 0.00 0.00 0.00 0.00 0.00 0.01 0.02 0.02 0.01 0.04 0.03 0.06 0.03 0.02 0.00 0.00 0.00 0.00 0.02 0.11 0.04 0.03 0.07 0.09 0.16 0.09 0.13 0.06 0.05 0.04 0.01 0.04 0.02 0.02 0.02 0.01 0.00 0.01 0.01 0.02 0.06 0.08 0.13 0.20
0.81 0.70 0.41 0.25 0.13 0.06 0.02 0.01 0.01 0.01 0.00 0.00 0.00 0.00 0.00 0.00 0.00 0.02 0.03 0.04 0.10 0.13 0.13 0.03 0.00 0.00 0.00 0.00 0.00 0.01 0.04 0.10 0.17 0.25 0.24 0.18 0.24 0.12 0.07 0.02 0.05 0.08 0.06 0.03 0.05 0.01 0.02 0.04 0.07 0.14 0.21 0.31 0.29 0.19
0.60 0.67 0.53 0.35 0.23 0.13 0.06 0.02 0.01 0.02 0.02 0.01 0.01 0.01 0.00 0.00 0.02 0.05 0.08 0.04 0.08 0.22 0.23 0.08 0.02 0.00 0.00 0.00 0.00 0.01 0.06 0.10 0.21 0.21 0.14 0.05 0.02 0.04 0.06 0.09 0.13 0.06 0.03 0.06 0.10 0.06 0.23 0.22 0.33 0.42 0.38 0.27 0.15 0.09
0.40 0.52 0.51 0.44 0.27 0.21 0.13 0.08 0.02 0.02 0.05 0.06 0.05 0.05 0.06 0.09 0.28 0.66 0.62 0.18 0.07 0.18 0.63 0.36 0.04 0.00 0.00 0.00 0.00 0.00 0.01 0.10 0.24 0.14 0.04 0.01 0.01 0.11 0.26 0.14 0.02 0.00 0.01 0.11 0.16 0.13 0.22 0.32 0.34 0.22 0.20 0.13 0.04 0.01
0.22 0.32 0.35 0.36 0.32 0.25 0.23 0.14 0.09 0.04 0.04 0.05 0.09 0.14 0.20 0.39 0.74 0.90 0.64 0.18 0.04 0.20 0.97 0.69 0.12 0.01 0.00 0.00 0.01 0.02 0.04 0.09 0.12 0.12 0.06 0.02 0.03 0.30 0.41 0.16 0.01 0.00 0.01 0.04 0.05 0.10 0.20 0.20 0.19 0.14 0.06 0.01 0.00 0.00
0.06 0.13 0.16 0.20 0.25 0.19 0.21 0.24 0.15 0.10 0.08 0.07 0.09 0.19 0.46 1.11 1.31 0.99 0.64 0.60 0.44 0.45 0.71 0.66 0.20 0.02 0.00 0.00 0.01 0.00 0.01 0.02 0.06 0.08 0.06 0.05 0.05 0.15 0.26 0.04 0.00 0.00 0.00 0.00 0.01 0.03 0.09 0.04 0.01 0.01 0.00 0.00 0.00 0.00
0.00 0.01 0.04 0.06 0.08 0.12 0.13 0.19 0.25 0.20 0.20 0.26 0.42 0.65 0.75 0.63 0.49 0.54 0.74 0.80 0.94 1.01 1.10 0.59 0.09 0.04 0.05 0.04 0.03 0.04 0.07 0.14 0.10 0.05 0.02 0.06 0.04 0.06 0.02 0.00 0.00 0.00 0.00 0.01 0.00 0.00 0.00 0.00 0.00 0.01 0.00 0.00 0.00 0.00
0.00 0.00 0.00 0.00 0.00 0.02 0.06 0.13 0.27 0.45 0.63 0.76 0.78 0.77 0.80 0.61 0.62 0.46 0.59 0.86 1.27 1.35 1.11 0.52 0.13 0.10 0.06 0.07 0.13 0.17 0.29 0.23 0.18 0.02 0.03 0.06 0.04 0.00 0.00 0.00 0.00 0.00 0.01 0.00 0.00 0.01 0.03 0.04 0.02 0.00 0.00 0.00 0.00 0.00
0.01 0.01 0.00 0.00 0.00 0.00 0.02 0.10 0.31 0.94 1.74 1.66 1.28 1.00 0.68 0.66 0.45 0.52 0.63 0.62 0.62 0.48 0.34 0.17 0.08 0.08 0.08 0.15 0.30 0.37 0.31 0.15 0.16 0.02 0.09 0.07 0.02 0.00 0.00 0.00 0.00 0.00 0.00 0.00 0.01 0.01 0.01 0.00 0.00 0.00 0.00 0.00 0.00 0.00
0.01 0.01 0.00 0.00 0.01 0.02 0.05 0.16 0.39 0.78 1.41 1.40 0.93 0.78 0.84 0.72 0.62 0.69 0.76 0.50 0.22 0.10 0.04 0.03 0.03 0.06 0.17 0.22 0.32 0.43 0.24 0.18 0.11 0.02 0.09 0.07 0.01 0.00 0.00 0.00 0.00 0.00 0.00 0.00 0.00 0.00 0.00 0.00 0.00 0.00 0.00 0.00 0.00 0.00
0.01 0.01 0.00 0.00 0.02 0.04 0.05 0.13 0.15 0.42 0.78 1.13 1.28 1.42 1.24 1.32 1.05 0.72 0.33 0.17 0.10 0.04 0.04 0.02 0.05 0.07 0.10 0.15 0.35 0.39 0.39 0.31 0.14 0.16 0.08 0.02 0.02 0.00 0.00 0.00 0.00 0.00 0.00 0.00 0.00 0.00 0.00 0.00 0.00 0.00 0.00 0.00 0.00 0.00
0.01 0.02 0.01 0.01 0.02 0.04 0.07 0.06 0.12 0.19 0.44 1.04 1.44 1.58 1.18 1.05 0.68 0.36 0.11 0.04 0.04 0.05 0.04 0.03 0.07 0.09 0.12 0.17 0.24 0.29 0.32 0.18 0.19 0.08 0.03 0.03 0.00 0.00 0.00 0.00 0.00 0.00 0.00 0.00 0.00 0.00 0.00 0.00 0.00 0.00 0.00 0.00 0.00 0.00
0.03 0.04 0.03 0.01 0.02 0.04 0.10 0.09 0.11 0.03 0.12 0.31 0.42 0.62 0.61 0.48 0.29 0.17 0.10 0.06 0.07 0.08 0.08 0.12 0.18 0.15 0.16 0.24 0.25 0.20 0.19 0.15 0.09 0.13 0.17 0.07 0.00 0.00 0.00 0.00 0.00 0.00 0.00 0.00 0.00 0.00 0.00 0.00 0.00 0.00 0.00 0.00 0.00 0.00
0.07 0.08 0.04 0.03 0.02 0.04 0.08 0.19 0.12 0.04 0.02 0.07 0.16 0.26 0.28 0.26 0.27 0.19 0.15 0.14 0.16 0.20 0.19 0.18 0.19 0.19 0.22 0.17 0.14 0.15 0.14 0.15 0.22 0.11 0.04 0.00 0.00 0.00 0.00 0.00 0.00 0.00 0.00 0.00 0.00 0.00 0.00 0.00 0.00 0.01 0.01 0.01 0.02 0.01
0.12 0.08 0.03 0.04 0.04 0.02 0.04 0.22 0.14 0.05 0.03 0.00 0.03 0.06 0.09 0.09 0.11 0.12 0.14 0.16 0.15 0.15 0.13 0.10 0.10 0.14 0.13 0.12 0.10 0.08 0.12 0.09 0.03 0.01 0.00 0.00 0.00 0.00 0.00 0.00 0.00 0.00 0.00 0.00 0.00 0.00 0.01 0.01 0.03 0.04 0.04 0.02 0.01 0.01
0.15 0.04 0.01 0.03 0.03 0.03 0.03 0.01 0.01 0.00 0.00 0.00 0.01 0.01 0.00 0.01 0.01 0.01 0.01 0.01 0.02 0.02 0.01 0.03 0.03 0.02 0.03 0.03 0.05 0.02 0.00 0.00 0.00 0.00 0.00 0.00 0.00 0.00 0.00 0.00 0.00 0.00 0.00 0.00 0.00 0.02 0.03 0.03 0.05 0.04 0.02 0.01 0.02 0.03
0.10 0.06 0.02 0.04 0.05 0.02 0.02 0.01 0.01 0.01 0.00 0.00 0.00 0.00 0.00 0.01 0.00 0.00 0.00 0.00 0.01 0.02 0.05 0.03 0.02 0.00 0.00 0.00 0.01 0.01 0.01 0.00 0.00 0.00 0.00 0.00 0.00 0.00 0.00 0.00 0.00 0.00 0.01 0.01 0.02 0.04 0.03 0.02 0.02 0.02 0.03 0.05 0.07 0.07
0.24 0.27 0.17 0.10 0.07 0.11 0.02 0.02 0.01 0.01 0.01 0.00 0.00 0.00 0.00 0.00 0.01 0.00 0.00 0.00 0.01 0.05 0.07 0.04 0.00 0.00 0.00 0.00 0.00 0.00 0.00 0.00 0.00 0.00 0.00 0.00 0.00 0.00 0.00 0.00 0.00 0.01 0.02 0.01 0.03 0.05 0.05 0.04 0.02 0.04 0.08 0.10 0.12 0.09
0.51 0.60 0.47 0.20 0.14 0.13 0.04 0.01 0.00 0.00 0.00 0.00 0.00 0.01 0.01 0.01 0.01 0.01 0.01 0.02 0.07 0.05 0.02 0.00 0.00 0.00 0.00 0.00 0.00 0.00 0.00 0.00 0.01 0.03 0.02 0.00 0.00 0.00 0.00 0.00 0.01 0.03 0.04 0.04 0.04 0.04 0.06 0.06 0.06 0.07 0.09 0.11 0.11 0.10
0.50 0.38 0.36 0.25 0.16 0.04 0.02 0.01 0.01 0.02 0.01 0.01 0.01 0.00 0.01 0.01 0.01 0.02 0.02 0.04 0.03 0.00 0.00 0.00 0.00 0.00 0.00 0.00 0.00 0.00 0.00 0.00 0.00 0.00 0.00 0.00 0.01 0.01 0.01 0.01 0.04 0.04 0.06 0.06 0.07 0.10 0.10 0.07 0.09 0.09 0.07 0.05 0.06 0.07
0.40 0.33 0.32 0.32 0.19 0.14 0.09 0.03 0.03 0.02 0.01 0.02 0.02 0.02 0.01 0.01 0.01 0.01 0.02 0.00 0.00 0.00 0.00 0.00 0.00 0.00 0.00 0.00 0.00 0.00 0.00 0.00 0.00 0.00 0.00 0.01 0.01 0.01 0.01 0.02 0.05 0.09 0.10 0.06 0.08 0.10 0.09 0.08 0.08 0.08 0.06 0.04 0.03 0.03
0.32 0.37 0.39 0.29 0.16 0.12 0.06 0.05 0.04 0.02 0.03 0.03 0.03 0.01 0.01 0.02 0.03 0.03 0.01 0.00 0.00 0.00 0.00 0.00 0.00 0.00 0.00 0.00 0.00 0.00 0.01 0.03 0.02 0.00 0.02 0.05 0.01 0.02 0.04 0.06 0.07 0.07 0.08 0.07 0.07 0.06 0.08 0.08 0.08 0.07 0.07 0.07 0.08 0.09
0.68 0.52 0.30 0.18 0.06 0.05 0.03 0.03 0.03 0.02 0.02 0.01 0.01 0.00 0.00 0.03 0.02 0.01 0.00 0.02 0.00 0.00 0.00 0.00 0.00 0.00 0.01 0.01 0.00 0.01 0.03 0.07 0.03 0.02 0.02 0.06 0.12 0.12 0.09 0.08 0.08 0.07 0.07 0.08 0.13 0.16 0.13 0.14 0.17 0.16 0.10 0.09 0.08 0.06
0.52 0.22 0.09 0.04 0.03 0.01 0.01 0.01 0.01 0.01 0.01 0.01 0.01 0.01 0.03 0.03 0.02 0.01 0.01 0.03 0.02 0.01 0.01 0.01 0.04 0.04 0.02 0.03 0.02 0.02 0.03 0.04 0.08 0.08 0.06 0.08 0.11 0.16 0.18 0.15 0.11 0.07 0.07 0.10 0.15 0.16 0.13 0.11 0.10 0.08 0.06 0.05 0.07 0.09
0.24 0.09 0.03 0.00 0.01 0.01 0.01 0.01 0.01 0.03 0.02 0.01 0.01 0.03 0.07 0.07 0.01 0.01 0.01 0.01 0.01 0.02 0.02 0.02 0.04 0.03 0.02 0.01 0.02 0.02 0.01 0.04 0.08 0.06 0.03 0.04 0.06 0.07 0.15 0.23 0.24 0.17 0.11 0.11 0.14 0.17 0.16 0.12 0.10 0.08 0.09 0.08 0.09 0.12
0.02 0.00 0.01 0.02 0.01 0.01 0.02 0.02 0.02 0.01 0.00 0.00 0.01 0.03 0.06 0.01 0.01 0.02 0.03 0.02 0.01 0.00 0.00 0.00 0.00 0.01 0.01 0.00 0.00 0.01 0.01 0.02 0.02 0.01 0.01 0.05 0.07 0.09 0.09 0.12 0.14 0.12 0.10 0.12 0.14 0.14 0.15 0.16 0.15 0.14 0.15 0.15 0.11 0.10
0.02 0.01 0.02 0.02 0.04 0.06 0.04 0.01 0.00 0.00 0.00 0.01 0.02 0.01 0.01 0.01 0.03 0.03 0.02 0.01 0.00 0.00 0.00 0.01 0.00 0.00 0.00 0.00 0.01 0.04 0.05 0.05 0.09 0.11 0.09 0.11 0.17 0.14 0.08 0.08 0.09 0.09 0.09 0.10 0.11 0.18 0.19 0.19 0.16 0.14 0.15 0.14 0.14 0.17
0.01 0.02 0.03 0.02 0.03 0.05 0.02 0.01 0.01 0.01 0.02 0.04 0.04 0.06 0.04 0.02 0.03 0.02 0.02 0.01 0.01 0.01 0.02 0.02 0.03 0.03 0.04 0.04 0.04 0.05 0.11 0.11 0.15 0.21 0.18 0.13 0.14 0.11 0.11 0.13 0.14 0.14 0.16 0.19 0.17 0.13 0.16 0.16 0.18 0.25 0.22 0.20 0.24 0.26
0.03 0.04 0.03 0.05 0.03 0.01 0.01 0.03 0.02 0.02 0.01 0.01 0.01 0.07 0.07 0.04 0.05 0.02 0.01 0.02 0.02 0.02 0.02 0.03 0.05 0.08 0.10 0.10 0.12 0.12 0.14 0.16 0.12 0.13 0.15 0.17 0.18 0.19 0.19 0.18 0.18 0.17 0.18 0.18 0.16 0.17 0.18 0.21 0.26 0.25 0.20 0.18 0.17 0.16
0.06 0.06 0.07 0.07 0.04 0.05 0.05 0.05 0.06 0.05 0.03 0.03 0.03 0.02 0.04 0.06 0.08 0.13 0.07 0.03 0.03 0.04 0.07 0.08 0.09 0.11 0.15 0.16 0.19 0.18 0.18 0.17 0.14 0.15 0.17 0.19 0.20 0.19 0.16 0.15 0.15 0.13 0.12 0.12 0.12 0.12 0.11 0.13 0.14 0.11 0.10 0.08 0.09 0.08
0.07 0.09 0.10 0.09 0.06 0.04 0.04 0.06 0.07 0.04 0.02 0.02 0.02 0.03 0.04 0.09 0.19 0.19 0.08 0.07 0.12 0.14 0.15 0.17 0.19 0.22 0.25 0.23 0.22 0.20 0.16 0.15 0.14 0.12 0.13 0.13 0.12 0.10 0.09 0.09 0.10 0.10 0.09 0.09 0.09 0.10 0.08 0.07 0.08 0.10 0.09 0.09 0.07 0.05

GFSWCAN_prec_precacc_036.txt.gz
Total_Precipitation_Accumulation
0.75 0.35 0.11 0.03 0.00 0.00 0.00 0.00 0.00 0.00 0.01 0.00 0.00 0.00 0.00 0.00 0.00 0.00 0.02 0.05 0.12 0.08 0.00 0.00 0.00 0.00 0.00 0.02 0.04 0.04 0.03 0.00 0.01 0.01 0.02 0.00 0.01 0.01 0.01 0.00 0.01 0.03 0.09 0.10 0.07 0.16 0.06 0.00 0.03 0.15 0.18 0.08 0.08 0.07
0.78 0.47 0.25 0.09 0.04 0.02 0.01 0.00 0.00 0.00 0.00 0.00 0.00 0.00 0.00 0.00 0.00 0.00 0.01 0.05 0.09 0.12 0.02 0.00 0.00 0.00 0.00 0.00 0.04 0.08 0.04 0.03 0.06 0.03 0.01 0.01 0.01 0.02 0.00 0.02 0.00 0.01 0.01 0.02 0.04 0.03 0.00 0.00 0.03 0.02 0.04 0.10 0.07 0.07
0.92 0.51 0.32 0.14 0.06 0.03 0.02 0.01 0.00 0.00 0.00 0.00 0.00 0.00 0.00 0.01 0.02 0.02 0.01 0.04 0.03 0.06 0.03 0.02 0.00 0.00 0.00 0.00 0.02 0.11 0.04 0.03 0.07 0.09 0.16 0.09 0.13 0.06 0.05 0.04 0.01 0.04 0.02 0.02 0.02 0.01 0.00 0.01 0.01 0.02 0.06 0.08 0.13 0.20
0.91 0.70 0.41 0.25 0.13 0.06 0.02 0.01 0.01 0.01 0.00 0.00 0.00 0.00 0.00 0.00 0.00 0.02 0.03 0.04 0.10 0.13 0.13 0.03 0.00 0.00 0.00 0.00 0.00 0.01 0.04 0.10 0.17 0.25 0.24 0.18 0.24 0.12 0.07 0.02 0.05 0.08 0.06 0.03 0.05 0.01 0.02 0.04 0.07 0.14 0.21 0.31 0.29 0.19
0.73 0.68 0.53 0.35 0.23 0.13 0.06 0.02 0.01 0.02 0.02 0.01 0.01 0.01 0.00 0.00 0.02 0.05 0.08 0.04 0.08 0.22 0.23 0.08 0.02 0.00 0.00 0.00 0.00 0.01 0.06 0.10 0.21 0.21 0.14 0.05 0.02 0.04 0.06 0.09 0.13 0.06 0.03 0.06 0.10 0.06 0.23 0.22 0.33 0.42 0.38 0.27 0.15 0.09
0.60 0.57 0.52 0.44 0.27 0.21 0.13 0.08 0.02 0.02 0.05 0.06 0.05 0.05 0.06 0.09 0.28 0.66 0.62 0.18 0.07 0.18 0.63 0.36 0.04 0.00 0.00 0.00 0.00 0.00 0.01 0.10 0.24 0.14 0.04 0.01 0.01 0.11 0.26 0.14 0.02 0.00 0.01 0.11 0.16 0.13 0.22 0.32 0.34 0.22 0.20 0.13 0.04 0.01
0.44 0.47 0.41 0.38 0.32 0.25 0.23 0.14 0.09 0.04 0.04 0.05 0.09 0.14 0.20 0.39 0.74 0.90 0.64 0.18 0.04 0.20 0.97 0.69 0.12 0.01 0.00 0.00 0.01 0.02 0.04 0.09 0.12 0.12 0.06 0.02 0.03 0.30 0.41 0.16 0.01 0.00 0.01 0.04 0.05 0.10 0.20 0.20 0.19 0.14 0.06 0.01 0.00 0.00
0.29 0.33 0.31 0.28 0.27 0.19 0.21 0.24 0.15 0.10 0.08 0.07 0.09 0.19 0.46 1.11 1.31 0.99 0.64 0.60 0.44 0.45 0.71 0.66 0.20 0.02 0.00 0.00 0.01 0.00 0.01 0.02 0.06 0.08 0.06 0.05 0.05 0.15 0.26 0.04 0.00 0.00 0.00 0.00 0.01 0.03 0.09 0.04 0.01 0.01 0.00 0.00 0.00 0.00
0.14 0.19 0.16 0.15 0.14 0.14 0.13 0.19 0.25 0.20 0.20 0.26 0.42 0.65 0.75 0.63 0.49 0.54 0.74 0.80 0.94 1.01 1.10 0.59 0.09 0.04 0.05 0.04 0.03 0.04 0.07 0.14 0.10 0.05 0.02 0.06 0.04 0.06 0.02 0.00 0.00 0.00 0.00 0.01 0.00 0.00 0.00 0.00 0.00 0.01 0.00 0.00 0.00 0.00
0.02 0.08 0.10 0.06 0.03 0.03 0.06 0.13 0.27 0.45 0.63 0.76 0.78 0.77 0.80 0.61 0.62 0.46 0.59 0.86 1.27 1.35 1.11 0.52 0.13 0.10 0.06 0.07 0.13 0.17 0.29 0.23 0.18 0.02 0.03 0.06 0.04 0.00 0.00 0.00 0.00 0.00 0.01 0.00 0.00 0.01 0.03 0.04 0.02 0.00 0.00 0.00 0.00 0.00
0.01 0.01 0.02 0.03 0.01 0.01 0.03 0.10 0.32 0.97 1.75 1.66 1.28 1.00 0.68 0.66 0.45 0.52 0.63 0.62 0.62 0.48 0.34 0.17 0.08 0.08 0.08 0.15 0.30 0.37 0.31 0.15 0.16 0.02 0.09 0.07 0.02 0.00 0.00 0.00 0.00 0.00 0.00 0.00 0.01 0.01 0.01 0.00 0.00 0.00 0.00 0.00 0.00 0.00
0.01 0.01 0.00 0.00 0.01 0.02 0.05 0.18 0.47 0.87 1.44 1.42 0.94 0.79 0.86 0.72 0.62 0.69 0.77 0.50 0.22 0.10 0.04 0.03 0.03 0.06 0.17 0.22 0.32 0.43 0.24 0.18 0.11 0.02 0.09 0.07 0.01 0.00 0.00 0.00 0.00 0.00 0.00 0.00 0.00 0.00 0.00 0.00 0.00 0.00 0.00 0.00 0.00 0.00
0.01 0.01 0.00 0.00 0.02 0.04 0.06 0.15 0.22 0.59 0.96 1.25 1.35 1.47 1.31 1.40 1.08 0.73 0.34 0.18 0.10 0.04 0.04 0.02 0.05 0.07 0.10 0.15 0.36 0.40 0.41 0.33 0.14 0.17 0.09 0.03 0.02 0.00 0.00 0.00 0.00 0.00 0.00 0.00 0.00 0.00 0.00 0.00 0.00 0.00 0.00 0.00 0.00 0.00
0.01 0.02 0.01 0.01 0.02 0.04 0.07 0.06 0.15 0.26 0.56 1.24 1.63 1.78 1.33 1.19 0.74 0.40 0.12 0.05 0.05 0.05 0.04 0.03 0.07 0.09 0.13 0.18 0.31 0.37 0.42 0.23 0.24 0.11 0.04 0.05 0.03 0.01 0.00 0.00 0.00 0.00 0.00 0.00 0.00 0.00 0.00 0.00 0.00 0.00 0.00 0.00 0.00 0.00
0.03 0.04 0.03 0.01 0.02 0.04 0.10 0.09 0.11 0.04 0.14 0.40 0.53 0.72 0.69 0.51 0.30 0.17 0.11 0.07 0.08 0.09 0.09 0.14 0.21 0.19 0.20 0.33 0.35 0.27 0.25 0.20 0.16 0.20 0.26 0.14 0.01 0.00 0.00 0.00 0.00 0.00 0.00 0.00 0.00 0.00 0.00 0.00 0.00 0.00 0.00 0.00 0.00 0.00
0.07 0.08 0.04 0.03 0.02 0.04 0.08 0.19 0.12 0.04 0.02 0.07 0.17 0.28 0.30 0.26 0.28 0.21 0.18 0.17 0.19 0.23 0.22 0.24 0.26 0.27 0.30 0.24 0.19 0.21 0.21 0.23 0.30 0.14 0.04 0.00 0.00 0.00 0.00 0.00 0.00 0.00 0.00 0.00 0.00 0.00 0.00 0.00 0.00 0.01 0.01 0.01 0.02 0.01
0.12 0.08 0.03 0.04 0.04 0.02 0.04 0.22 0.14 0.05 0.03 0.00 0.03 0.06 0.09 0.09 0.12 0.12 0.14 0.16 0.16 0.16 0.13 0.12 0.13 0.16 0.16 0.17 0.15 0.14 0.19 0.13 0.04 0.01 0.00 0.00 0.00 0.00 0.00 0.00 0.00 0.00 0.00 0.00 0.00 0.00 0.01 0.01 0.03 0.04 0.04 0.02 0.01 0.01
0.15 0.04 0.02 0.03 0.03 0.03 0.03 0.01 0.01 0.00 0.00 0.00 0.01 0.01 0.00 0.01 0.01 0.01 0.01 0.01 0.02 0.02 0.01 0.03 0.03 0.02 0.04 0.05 0.10 0.03 0.00 0.00 0.00 0.00 0.00 0.00 0.00 0.00 0.00 0.00 0.00 0.00 0.00 0.00 0.00 0.02 0.03 0.03 0.05 0.04 0.02 0.01 0.02 0.03
0.10 0.07 0.02 0.04 0.05 0.02 0.02 0.01 0.01 0.01 0.00 0.00 0.00 0.00 0.00 0.01 0.00 0.00 0.00 0.00 0.01 0.02 0.05 0.03 0.02 0.00 0.00 0.00 0.01 0.01 0.01 0.00 0.00 0.00 0.00 0.00 0.00 0.00 0.00 0.00 0.00 0.00 0.01 0.01 0.02 0.04 0.03 0.02 0.02 0.02 0.03 0.05 0.07 0.07
0.24 0.27 0.17 0.11 0.07 0.11 0.02 0.02 0.01 0.01 0.01 0.00 0.00 0.00 0.00 0.00 0.01 0.00 0.00 0.00 0.01 0.05 0.07 0.04 0.00 0.00 0.00 0.00 0.00 0.00 0.00 0.00 0.00 0.00 0.00 0.00 0.00 0.00 0.00 0.00 0.00 0.01 0.02 0.01 0.03 0.05 0.05 0.04 0.02 0.04 0.08 0.10 0.12 0.09
0.51 0.60 0.47 0.20 0.14 0.13 0.04 0.01 0.00 0.00 0.00 0.00 0.00 0.01 0.01 0.01 0.01 0.01 0.01 0.02 0.07 0.05 0.02 0.00 0.00 0.00 0.00 0.00 0.00 0.00 0.00 0.00 0.01 0.03 0.02 0.00 0.00 0.00 0.00 0.00 0.01 0.03 0.04 0.04 0.04 0.04 0.06 0.07 0.06 0.07 0.09 0.11 0.11 0.10
0.50 0.38 0.36 0.26 0.17 0.04 0.02 0.01 0.01 0.02 0.01 0.01 0.01 0.00 0.01 0.01 0.02 0.02 0.02 0.04 0.03 0.00 0.00 0.00 0.00 0.00 0.00 0.00 0.00 0.00 0.00 0.00 0.00 0.00 0.00 0.00 0.01 0.01 0.01 0.01 0.04 0.04 0.06 0.06 0.07 0.11 0.10 0.07 0.09 0.09 0.08 0.05 0.06 0.07
0.40 0.33 0.32 0.33 0.23 0.14 0.10 0.03 0.03 0.02 0.01 0.02 0.02 0.02 0.02 0.01 0.01 0.01 0.02 0.00 0.00 0.00 0.00 0.00 0.00 0.00 0.00 0.00 0.00 0.00 0.00 0.00 0.00 0.00 0.00 0.01 0.01 0.01 0.01 0.02 0.05 0.09 0.11 0.07 0.08 0.10 0.09 0.08 0.08 0.08 0.06 0.04 0.05 0.06
0.34 0.38 0.39 0.31 0.23 0.17 0.07 0.05 0.04 0.02 0.03 0.03 0.03 0.01 0.01 0.02 0.03 0.03 0.01 0.00 0.00 0.00 0.00 0.00 0.00 0.00 0.00 0.00 0.00 0.00 0.01 0.03 0.02 0.00 0.02 0.05 0.01 0.02 0.04 0.06 0.07 0.08 0.09 0.07 0.07 0.06 0.08 0.08 0.08 0.08 0.10 0.16 0.16 0.14
0.69 0.57 0.31 0.19 0.08 0.06 0.03 0.03 0.03 0.02 0.02 0.01 0.01 0.00 0.00 0.03 0.02 0.01 0.00 0.03 0.01 0.01 0.00 0.00 0.00 0.00 0.01 0.01 0.00 0.01 0.03 0.07 0.03 0.02 0.02 0.06 0.12 0.12 0.09 0.08 0.08 0.08 0.07 0.08 0.13 0.17 0.13 0.14 0.18 0.19 0.17 0.14 0.11 0.08
0.53 0.24 0.11 0.04 0.04 0.03 0.01 0.01 0.01 0.01 0.01 0.01 0.01 0.01 0.03 0.03 0.02 0.01 0.02 0.04 0.03 0.02 0.01 0.01 0.04 0.04 0.02 0.03 0.02 0.02 0.03 0.04 0.08 0.08 0.06 0.09 0.11 0.16 0.18 0.16 0.11 0.07 0.07 0.10 0.16 0.17 0.14 0.11 0.10 0.09 0.08 0.07 0.08 0.10
0.25 0.10 0.04 0.01 0.02 0.03 0.01 0.01 0.01 0.03 0.02 0.01 0.01 0.03 0.07 0.07 0.01 0.02 0.02 0.03 0.02 0.03 0.02 0.02 0.04 0.03 0.02 0.01 0.02 0.03 0.01 0.04 0.08 0.06 0.03 0.05 0.06 0.08 0.15 0.23 0.25 0.18 0.11 0.11 0.15 0.17 0.17 0.13 0.11 0.09 0.10 0.09 0.12 0.16
0.03 0.00 0.01 0.05 0.05 0.04 0.03 0.03 0.02 0.01 0.00 0.00 0.01 0.03 0.06 0.02 0.02 0.03 0.04 0.03 0.02 0.01 0.00 0.00 0.00 0.01 0.01 0.01 0.01 0.02 0.01 0.02 0.02 0.01 0.02 0.06 0.07 0.09 0.09 0.12 0.14 0.12 0.10 0.12 0.15 0.14 0.15 0.16 0.16 0.16 0.16 0.18 0.16 0.13
0.02 0.02 0.03 0.04 0.06 0.08 0.04 0.01 0.01 0.00 0.00 0.01 0.02 0.01 0.01 0.01 0.05 0.04 0.03 0.01 0.01 0.00 0.00 0.01 0.00 0.00 0.00 0.00 0.01 0.04 0.05 0.05 0.09 0.11 0.09 0.11 0.17 0.14 0.08 0.08 0.09 0.09 0.09 0.10 0.11 0.18 0.19 0.20 0.17 0.18 0.21 0.20 0.19 0.21
0.04 0.07 0.07 0.04 0.05 0.06 0.03 0.02 0.01 0.01 0.02 0.04 0.04 0.06 0.04 0.03 0.05 0.03 0.02 0.01 0.01 0.02 0.02 0.02 0.03 0.03 0.04 0.04 0.04 0.05 0.11 0.11 0.15 0.21 0.19 0.13 0.14 0.12 0.11 0.13 0.14 0.14 0.16 0.19 0.18 0.13 0.16 0.16 0.19 0.29 0.26 0.25 0.28 0.29
0.05 0.06 0.05 0.05 0.03 0.01 0.01 0.03 0.02 0.02 0.01 0.01 0.01 0.07 0.07 0.05 0.06 0.03 0.02 0.03 0.02 0.02 0.02 0.03 0.05 0.08 0.10 0.10 0.12 0.12 0.14 0.17 0.12 0.13 0.15 0.17 0.19 0.19 0.19 0.18 0.18 0.18 0.18 0.18 0.16 0.17 0.19 0.21 0.27 0.27 0.22 0.19 0.20 0.18
0.06 0.06 0.07 0.07 0.05 0.05 0.05 0.05 0.06 0.05 0.03 0.03 0.03 0.03 0.04 0.06 0.08 0.13 0.07 0.03 0.03 0.04 0.07 0.08 0.09 0.12 0.16 0.16 0.19 0.18 0.18 0.17 0.14 0.15 0.18 0.19 0.20 0.19 0.16 0.15 0.15 0.14 0.12 0.12 0.12 0.12 0.12 0.13 0.15 0.12 0.12 0.10 0.11 0.10
0.07 0.09 0.10 0.09 0.06 0.04 0.04 0.06 0.07 0.04 0.02 0.02 0.03 0.04 0.05 0.09 0.19 0.19 0.08 0.07 0.12 0.14 0.15 0.17 0.19 0.22 0.25 0.23 0.22 0.20 0.16 0.15 0.14 0.12 0.13 0.13 0.12 0.10 0.09 0.10 0.10 0.10 0.09 0.09 0.10 0.10 0.08 0.08 0.09 0.11 0.10 0.10 0.09 0.07

GFSWCAN_prec_precacc_042.txt.gz
Total_Precipitation_Accumulation
0.75 0.36 0.11 0.03 0.00 0.00 0.00 0.01 0.01 0.01 0.01 0.01 0.01 0.00 0.00 0.00 0.00 0.00 0.03 0.05 0.12 0.08 0.00 0.00 0.00 0.00 0.00 0.02 0.04 0.04 0.03 0.00 0.01 0.01 0.02 0.00 0.01 0.01 0.01 0.00 0.01 0.03 0.09 0.10 0.07 0.16 0.06 0.00 0.03 0.15 0.18 0.08 0.08 0.07
0.78 0.47 0.25 0.09 0.04 0.02 0.01 0.00 0.01 0.01 0.00 0.01 0.01 0.00 0.00 0.00 0.00 0.01 0.02 0.05 0.09 0.12 0.02 0.00 0.00 0.00 0.00 0.00 0.04 0.08 0.04 0.03 0.06 0.03 0.01 0.01 0.01 0.02 0.00 0.02 0.00 0.01 0.01 0.02 0.04 0.03 0.00 0.00 0.03 0.02 0.04 0.10 0.07 0.07
0.92 0.51 0.32 0.14 0.06 0.03 0.02 0.01 0.00 0.01 0.01 0.01 0.01 0.00 0.00 0.01 0.02 0.02 0.01 0.04 0.03 0.06 0.03 0.02 0.00 0.00 0.00 0.00 0.02 0.11 0.04 0.03 0.07 0.09 0.16 0.09 0.13 0.06 0.05 0.04 0.01 0.04 0.02 0.02 0.02 0.01 0.00 0.01 0.01 0.02 0.06 0.08 0.13 0.20
0.92 0.70 0.41 0.25 0.13 0.06 0.02 0.02 0.01 0.01 0.01 0.01 0.00 0.00 0.00 0.00 0.00 0.02 0.03 0.04 0.10 0.13 0.13 0.03 0.00 0.00 0.00 0.00 0.00 0.01 0.04 0.10 0.17 0.25 0.24 0.18 0.24 0.12 0.07 0.02 0.05 0.08 0.06 0.03 0.05 0.01 0.02 0.04 0.07 0.14 0.21 0.31 0.29 0.19
0.76 0.68 0.53 0.35 0.24 0.14 0.06 0.02 0.01 0.02 0.02 0.01 0.02 0.01 0.00 0.00 0.02 0.05 0.08 0.04 0.08 0.22 0.23 0.08 0.02 0.00 0.00 0.00 0.00 0.01 0.06 0.10 0.21 0.21 0.14 0.05 0.02 0.04 0.06 0.09 0.13 0.06 0.03 0.06 0.10 0.06 0.23 0.22 0.33 0.42 0.38 0.27 0.15 0.09
0.63 0.58 0.52 0.44 0.30 0.23 0.13 0.08 0.02 0.02 0.05 0.06 0.05 0.05 0.06 0.09 0.28 0.66 0.62 0.18 0.07 0.18 0.63 0.36 0.04 0.00 0.00 0.00 0.00 0.00 0.01 0.10 0.24 0.14 0.04 0.01 0.01 0.11 0.26 0.14 0.02 0.00 0.01 0.11 0.16 0.13 0.22 0.32 0.34 0.22 0.20 0.13 0.04 0.01
0.51 0.47 0.41 0.38 0.36 0.28 0.23 0.14 0.09 0.04 0.04 0.05 0.09 0.14 0.20 0.39 0.74 0.90 0.64 0.19 0.04 0.20 0.97 0.69 0.12 0.01 0.00 0.00 0.01 0.02 0.04 0.09 0.12 0.12 0.07 0.02 0.03 0.30 0.41 0.16 0.01 0.00 0.01 0.04 0.05 0.10 0.20 0.20 0.19 0.14 0.06 0.01 0.00 0.00
0.43 0.38 0.32 0.28 0.31 0.23 0.21 0.24 0.15 0.10 0.08 0.07 0.09 0.19 0.46 1.11 1.31 0.99 0.64 0.60 0.44 0.45 0.71 0.66 0.20 0.02 0.00 0.00 0.01 0.00 0.01 0.02 0.06 0.08 0.06 0.05 0.05 0.16 0.26 0.04 0.00 0.00 0.00 0.00 0.01 0.03 0.09 0.04 0.01 0.01 0.00 0.00 0.00 0.00
0.35 0.30 0.22 0.17 0.16 0.19 0.14 0.19 0.25 0.20 0.20 0.26 0.42 0.65 0.75 0.63 0.49 0.54 0.74 0.80 0.94 1.01 1.10 0.59 0.09 0.04 0.05 0.04 0.03 0.04 0.07 0.14 0.10 0.05 0.02 0.06 0.04 0.06 0.02 0.00 0.00 0.00 0.00 0.01 0.00 0.00 0.00 0.00 0.00 0.01 0.01 0.01 0.02 0.01
0.26 0.21 0.17 0.09 0.05 0.07 0.09 0.13 0.27 0.45 0.63 0.76 0.78 0.77 0.80 0.61 0.62 0.46 0.59 0.86 1.27 1.35 1.11 0.52 0.13 0.10 0.06 0.07 0.13 0.17 0.29 0.23 0.18 0.02 0.03 0.06 0.04 0.00 0.00 0.00 0.00 0.00 0.01 0.00 0.00 0.01 0.03 0.04 0.06 0.06 0.04 0.01 0.00 0.00
0.25 0.18 0.14 0.08 0.04 0.02 0.04 0.11 0.32 0.97 1.75 1.66 1.28 1.00 0.68 0.66 0.45 0.52 0.63 0.62 0.62 0.48 0.34 0.17 0.08 0.08 0.08 0.15 0.30 0.37 0.31 0.15 0.16 0.02 0.09 0.07 0.02 0.00 0.00 0.00 0.00 0.00 0.00 0.00 0.01 0.02 0.06 0.10 0.06 0.01 0.00 0.00 0.00 0.00
0.21 0.22 0.19 0.11 0.09 0.09 0.08 0.20 0.49 0.87 1.44 1.42 0.94 0.79 0.86 0.72 0.62 0.69 0.77 0.50 0.22 0.10 0.04 0.03 0.03 0.06 0.17 0.22 0.32 0.43 0.24 0.18 0.11 0.02 0.09 0.07 0.01 0.00 0.00 0.00 0.00 0.00 0.01 0.03 0.07 0.08 0.04 0.00 0.00 0.00 0.00 0.00 0.00 0.00
0.11 0.15 0.19 0.21 0.18 0.21 0.22 0.26 0.29 0.62 0.97 1.25 1.35 1.49 1.33 1.40 1.08 0.73 0.34 0.18 0.10 0.04 0.04 0.02 0.05 0.07 0.10 0.15 0.37 0.42 0.43 0.33 0.14 0.18 0.10 0.04 0.02 0.01 0.01 0.02 0.02 0.02 0.02 0.02 0.00 0.00 0.00 0.00 0.00 0.00 0.00 0.00 0.00 0.00
0.04 0.09 0.10 0.13 0.16 0.20 0.27 0.26 0.34 0.35 0.60 1.31 1.68 1.84 1.39 1.24 0.75 0.41 0.13 0.05 0.05 0.05 0.04 0.03 0.07 0.09 0.13 0.20 0.37 0.47 0.53 0.29 0.30 0.15 0.06 0.09 0.07 0.04 0.03 0.02 0.00 0.00 0.00 0.00 0.00 0.00 0.00 0.00 0.00 0.00 0.00 0.00 0.00 0.00
0.03 0.04 0.05 0.06 0.07 0.10 0.17 0.19 0.21 0.12 0.27 0.58 0.67 0.84 0.76 0.53 0.30 0.17 0.11 0.08 0.08 0.09 0.10 0.15 0.25 0.22 0.24 0.43 0.48 0.38 0.34 0.25 0.20 0.24 0.32 0.26 0.07 0.00 0.00 0.00 0.00 0.00 0.00 0.00 0.00 0.00 0.00 0.00 0.00 0.00 0.00 0.00 0.00 0.00
0.07 0.08 0.04 0.03 0.02 0.05 0.11 0.22 0.14 0.09 0.12 0.19 0.28 0.34 0.34 0.28 0.30 0.24 0.21 0.20 0.22 0.26 0.27 0.31 0.32 0.33 0.39 0.31 0.24 0.26 0.26 0.26 0.32 0.16 0.10 0.05 0.05 0.01 0.00 0.00 0.00 0.00 0.00 0.00 0.00 0.00 0.00 0.00 0.00 0.01 0.01 0.01 0.02 0.01
0.12 0.08 0.03 0.04 0.04 0.02 0.04 0.22 0.14 0.06 0.09 0.07 0.07 0.09 0.12 0.12 0.15 0.16 0.18 0.19 0.19 0.19 0.18 0.16 0.16 0.19 0.20 0.21 0.18 0.17 0.22 0.14 0.04 0.02 0.01 0.00 0.00 0.00 0.00 0.00 0.01 0.00 0.00 0.00 0.00 0.00 0.01 0.01 0.03 0.04 0.04 0.02 0.01 0.01
0.15 0.04 0.02 0.03 0.03 0.03 0.03 0.01 0.01 0.00 0.00 0.02 0.02 0.03 0.01 0.01 0.01 0.01 0.01 0.01 0.02 0.02 0.01 0.03 0.03 0.04 0.07 0.08 0.12 0.04 0.01 0.00 0.00 0.00 0.00 0.00 0.00 0.02 0.01 0.00 0.00 0.00 0.00 0.00 0.00 0.02 0.03 0.03 0.05 0.04 0.02 0.01 0.02 0.03
0.10 0.07 0.02 0.04 0.05 0.02 0.02 0.01 0.01 0.01 0.01 0.01 0.01 0.01 0.00 0.01 0.01 0.00 0.00 0.00 0.01 0.02 0.05 0.03 0.02 0.00 0.00 0.00 0.01 0.01 0.01 0.00 0.00 0.00 0.03 0.04 0.01 0.00 0.00 0.00 0.00 0.00 0.01 0.01 0.02 0.04 0.03 0.02 0.02 0.02 0.03 0.05 0.07 0.07
0.24 0.27 0.17 0.11 0.07 0.11 0.02 0.02 0.01 0.01 0.01 0.01 0.01 0.00 0.01 0.01 0.01 0.00 0.00 0.00 0.01 0.05 0.07 0.04 0.00 0.00 0.00 0.00 0.00 0.00 0.00 0.00 0.00 0.00 0.00 0.00 0.00 0.00 0.00 0.00 0.00 0.01 0.02 0.01 0.03 0.05 0.05 0.04 0.02 0.04 0.08 0.10 0.13 0.10
0.51 0.60 0.47 0.20 0.14 0.13 0.04 0.01 0.00 0.00 0.00 0.01 0.01 0.01 0.01 0.01 0.01 0.01 0.01 0.02 0.07 0.05 0.02 0.00 0.00 0.00 0.00 0.00 0.00 0.00 0.00 0.00 0.01 0.03 0.02 0.00 0.00 0.00 0.00 0.00 0.01 0.03 0.04 0.04 0.04 0.04 0.06 0.07 0.06 0.07 0.09 0.12 0.12 0.11
0.50 0.38 0.36 0.26 0.17 0.04 0.02 0.01 0.01 0.02 0.01 0.01 0.01 0.00 0.01 0.01 0.02 0.02 0.02 0.04 0.03 0.00 0.00 0.00 0.00 0.00 0.00 0.00 0.00 0.00 0.00 0.00 0.00 0.00 0.00 0.00 0.01 0.01 0.01 0.01 0.04 0.04 0.06 0.07 0.07 0.11 0.10 0.07 0.09 0.09 0.08 0.06 0.06 0.08
0.40 0.33 0.32 0.33 0.23 0.14 0.10 0.03 0.03 0.02 0.01 0.02 0.02 0.02 0.02 0.01 0.01 0.01 0.02 0.00 0.00 0.00 0.00 0.00 0.00 0.00 0.00 0.00 0.00 0.00 0.00 0.00 0.00 0.00 0.00 0.01 0.01 0.01 0.01 0.02 0.05 0.09 0.11 0.07 0.08 0.10 0.09 0.08 0.08 0.08 0.06 0.04 0.05 0.08
0.34 0.38 0.39 0.31 0.23 0.18 0.08 0.05 0.04 0.02 0.03 0.03 0.03 0.01 0.01 0.02 0.04 0.03 0.01 0.01 0.01 0.00 0.00 0.00 0.00 0.00 0.00 0.00 0.00 0.00 0.01 0.03 0.02 0.00 0.02 0.05 0.01 0.02 0.04 0.06 0.08 0.08 0.09 0.07 0.07 0.06 0.08 0.08 0.08 0.08 0.10 0.16 0.18 0.16
0.69 0.57 0.31 0.19 0.08 0.07 0.04 0.04 0.03 0.03 0.02 0.01 0.01 0.01 0.01 0.03 0.02 0.01 0.01 0.04 0.03 0.03 0.02 0.02 0.01 0.01 0.01 0.02 0.01 0.01 0.03 0.07 0.03 0.02 0.02 0.06 0.12 0.12 0.09 0.08 0.08 0.08 0.07 0.08 0.13 0.17 0.13 0.14 0.18 0.19 0.17 0.14 0.12 0.09
0.53 0.24 0.11 0.05 0.05 0.03 0.01 0.01 0.01 0.02 0.02 0.02 0.02 0.02 0.03 0.03 0.03 0.01 0.03 0.06 0.06 0.06 0.05 0.03 0.06 0.06 0.03 0.04 0.03 0.03 0.03 0.04 0.08 0.08 0.06 0.09 0.11 0.16 0.18 0.16 0.11 0.07 0.07 0.10 0.17 0.17 0.14 0.11 0.10 0.10 0.08 0.07 0.09 0.12
0.25 0.10 0.04 0.01 0.03 0.06 0.03 0.02 0.02 0.05 0.04 0.02 0.01 0.03 0.07 0.07 0.01 0.03 0.04 0.05 0.04 0.06 0.04 0.03 0.04 0.03 0.02 0.02 0.02 0.03 0.01 0.04 0.08 0.06 0.03 0.05 0.06 0.08 0.15 0.23 0.25 0.18 0.11 0.11 0.15 0.18 0.18 0.14 0.11 0.09 0.11 0.09 0.12 0.18
0.03 0.01 0.02 0.06 0.09 0.10 0.09 0.07 0.06 0.04 0.04 0.04 0.04 0.05 0.07 0.02 0.02 0.05 0.06 0.06 0.04 0.02 0.01 0.01 0.01 0.01 0.01 0.01 0.01 0.02 0.01 0.02 0.02 0.02 0.02 0.06 0.07 0.09 0.09 0.12 0.14 0.12 0.10 0.12 0.15 0.14 0.16 0.17 0.17 0.16 0.18 0.19 0.18 0.16
0.03 0.03 0.04 0.06 0.13 0.16 0.13 0.08 0.08 0.08 0.07 0.08 0.06 0.04 0.04 0.03 0.07 0.06 0.06 0.04 0.02 0.01 0.00 0.01 0.01 0.01 0.01 0.00 0.01 0.04 0.05 0.05 0.09 0.11 0.09 0.11 0.17 0.14 0.09 0.08 0.09 0.09 0.09 0.10 0.11 0.18 0.19 0.20 0.18 0.20 0.25 0.22 0.22 0.24
0.06 0.14 0.15 0.10 0.13 0.16 0.13 0.12 0.12 0.10 0.08 0.08 0.06 0.07 0.05 0.04 0.08 0.06 0.03 0.02 0.01 0.03 0.03 0.03 0.03 0.03 0.04 0.04 0.04 0.06 0.11 0.11 0.15 0.21 0.19 0.14 0.14 0.12 0.11 0.13 0.14 0.14 0.16 0.19 0.18 0.13 0.16 0.16 0.19 0.29 0.27 0.26 0.29 0.30
0.13 0.15 0.12 0.12 0.09 0.06 0.06 0.06 0.06 0.05 0.03 0.02 0.02 0.07 0.08 0.06 0.08 0.05 0.03 0.04 0.03 0.03 0.02 0.03 0.05 0.08 0.10 0.10 0.12 0.12 0.14 0.17 0.12 0.13 0.16 0.17 0.19 0.19 0.19 0.18 0.18 0.18 0.18 0.18 0.16 0.17 0.19 0.21 0.27 0.27 0.22 0.19 0.20 0.19
0.06 0.07 0.08 0.08 0.05 0.06 0.05 0.05 0.06 0.06 0.04 0.04 0.04 0.03 0.05 0.06 0.09 0.14 0.09 0.04 0.03 0.04 0.07 0.08 0.09 0.12 0.16 0.17 0.20 0.18 0.18 0.17 0.14 0.15 0.18 0.20 0.20 0.19 0.16 0.15 0.15 0.14 0.12 0.12 0.12 0.12 0.12 0.13 0.15 0.12 0.12 0.10 0.11 0.10
0.07 0.09 0.10 0.10 0.06 0.04 0.04 0.06 0.08 0.05 0.02 0.03 0.04 0.05 0.06 0.10 0.20 0.20 0.09 0.07 0.12 0.14 0.15 0.17 0.19 0.22 0.25 0.23 0.22 0.20 0.16 0.15 0.14 0.12 0.13 0.13 0.12 0.10 0.09 0.10 0.10 0.10 0.09 0.09 0.10 0.10 0.08 0.08 0.09 0.11 0.10 0.10 0.09 0.07

GFSWCAN_prec_precacc_045.txt.gz
Total_Precipitation_Accumulation
0.86 0.42 0.14 0.04 0.01 0.00 0.01 0.01 0.01 0.01 0.01 0.01 0.01 0.00 0.00 0.00 0.00 0.00 0.04 0.07 0.14 0.08 0.00 0.00 0.00 0.00 0.00 0.02 0.04 0.04 0.03 0.00 0.01 0.01 0.02 0.00 0.01 0.01 0.01 0.00 0.01 0.03 0.09 0.10 0.07 0.16 0.06 0.00 0.03 0.15 0.18 0.08 0.08 0.07
0.81 0.49 0.26 0.09 0.04 0.02 0.01 0.01 0.01 0.01 0.01 0.02 0.02 0.00 0.00 0.00 0.00 0.01 0.04 0.09 0.11 0.14 0.02 0.00 0.00 0.00 0.00 0.00 0.04 0.08 0.04 0.03 0.06 0.03 0.01 0.01 0.01 0.02 0.00 0.02 0.00 0.01 0.01 0.02 0.04 0.03 0.00 0.00 0.03 0.02 0.04 0.10 0.07 0.07
0.93 0.51 0.32 0.14 0.07 0.03 0.03 0.01 0.01 0.02 0.02 0.02 0.01 0.00 0.00 0.02 0.02 0.03 0.03 0.09 0.06 0.08 0.04 0.02 0.00 0.00 0.00 0.00 0.02 0.11 0.04 0.03 0.07 0.09 0.16 0.09 0.13 0.06 0.05 0.04 0.01 0.04 0.02 0.02 0.02 0.01 0.00 0.01 0.01 0.02 0.06 0.08 0.13 0.20
0.92 0.70 0.41 0.26 0.13 0.07 0.02 0.02 0.02 0.02 0.03 0.03 0.00 0.00 0.01 0.00 0.01 0.03 0.03 0.08 0.14 0.15 0.16 0.04 0.00 0.00 0.00 0.00 0.00 0.01 0.04 0.10 0.17 0.25 0.24 0.18 0.24 0.12 0.07 0.02 0.05 0.08 0.06 0.03 0.05 0.01 0.02 0.04 0.07 0.14 0.21 0.31 0.29 0.19
0.76 0.68 0.53 0.35 0.24 0.14 0.06 0.02 0.02 0.02 0.02 0.04 0.04 0.02 0.01 0.01 0.03 0.06 0.08 0.04 0.10 0.22 0.23 0.09 0.03 0.00 0.00 0.00 0.00 0.01 0.06 0.10 0.21 0.21 0.14 0.05 0.02 0.04 0.06 0.09 0.13 0.06 0.03 0.06 0.10 0.06 0.23 0.22 0.33 0.42 0.38 0.27 0.15 0.09
0.63 0.58 0.52 0.44 0.30 0.23 0.13 0.08 0.02 0.02 0.06 0.07 0.06 0.05 0.06 0.10 0.29 0.67 0.62 0.18 0.07 0.18 0.63 0.37 0.05 0.01 0.01 0.00 0.00 0.00 0.01 0.10 0.24 0.14 0.04 0.01 0.01 0.11 0.26 0.14 0.02 0.00 0.01 0.11 0.16 0.13 0.22 0.32 0.34 0.22 0.20 0.13 0.04 0.01
0.51 0.47 0.41 0.38 0.36 0.29 0.23 0.14 0.09 0.04 0.04 0.05 0.09 0.14 0.21 0.39 0.74 0.90 0.64 0.19 0.04 0.20 0.97 0.69 0.12 0.01 0.00 0.00 0.01 0.02 0.04 0.09 0.12 0.12 0.07 0.02 0.03 0.30 0.41 0.16 0.01 0.00 0.01 0.04 0.05 0.10 0.20 0.20 0.19 0.14 0.06 0.01 0.00 0.00
0.43 0.38 0.32 0.28 0.31 0.27 0.21 0.24 0.15 0.10 0.08 0.07 0.09 0.19 0.46 1.11 1.31 0.99 0.64 0.60 0.44 0.45 0.71 0.66 0.20 0.02 0.00 0.00 0.01 0.00 0.01 0.02 0.06 0.08 0.06 0.05 0.05 0.16 0.26 0.04 0.00 0.00 0.00 0.00 0.01 0.03 0.09 0.04 0.01 0.01 0.00 0.00 0.00 0.01
0.35 0.30 0.22 0.17 0.17 0.25 0.15 0.19 0.25 0.20 0.20 0.26 0.42 0.65 0.75 0.63 0.49 0.54 0.74 0.80 0.94 1.01 1.10 0.59 0.09 0.04 0.05 0.04 0.03 0.04 0.07 0.14 0.10 0.06 0.03 0.06 0.04 0.06 0.02 0.00 0.00 0.00 0.00 0.01 0.00 0.00 0.00 0.00 0.00 0.01 0.01 0.03 0.05 0.04
0.26 0.22 0.18 0.09 0.07 0.14 0.11 0.13 0.27 0.45 0.63 0.76 0.78 0.77 0.80 0.61 0.62 0.46 0.59 0.86 1.27 1.35 1.11 0.52 0.13 0.10 0.06 0.07 0.13 0.17 0.29 0.23 0.18 0.02 0.03 0.06 0.04 0.00 0.00 0.00 0.00 0.00 0.01 0.00 0.00 0.01 0.03 0.04 0.07 0.07 0.06 0.03 0.00 0.00
0.27 0.18 0.15 0.08 0.05 0.11 0.09 0.12 0.32 0.97 1.75 1.66 1.28 1.00 0.68 0.66 0.45 0.52 0.63 0.62 0.62 0.48 0.34 0.17 0.08 0.08 0.08 0.15 0.30 0.37 0.31 0.15 0.16 0.02 0.09 0.07 0.02 0.00 0.00 0.00 0.00 0.00 0.00 0.00 0.01 0.02 0.06 0.11 0.06 0.01 0.00 0.00 0.00 0.00
0.37 0.27 0.20 0.12 0.09 0.15 0.16 0.22 0.49 0.87 1.44 1.42 0.94 0.79 0.86 0.72 0.62 0.69 0.77 0.50 0.22 0.10 0.04 0.03 0.03 0.06 0.17 0.22 0.32 0.43 0.24 0.18 0.11 0.02 0.09 0.07 0.01 0.00 0.00 0.00 0.00 0.00 0.01 0.03 0.07 0.08 0.04 0.00 0.00 0.00 0.00 0.00 0.00 0.00
0.35 0.30 0.27 0.25 0.19 0.22 0.25 0.28 0.30 0.62 0.98 1.26 1.36 1.50 1.33 1.41 1.09 0.73 0.34 0.18 0.10 0.04 0.04 0.02 0.05 0.07 0.10 0.15 0.37 0.42 0.43 0.33 0.14 0.18 0.10 0.04 0.02 0.01 0.01 0.02 0.02 0.02 0.02 0.02 0.00 0.00 0.00 0.00 0.00 0.00 0.00 0.00 0.00 0.00
0.25 0.28 0.24 0.21 0.22 0.22 0.28 0.27 0.34 0.35 0.60 1.32 1.70 1.85 1.39 1.24 0.75 0.41 0.13 0.05 0.05 0.06 0.04 0.03 0.07 0.09 0.13 0.20 0.37 0.47 0.54 0.30 0.32 0.16 0.07 0.11 0.09 0.07 0.04 0.02 0.00 0.00 0.00 0.00 0.00 0.00 0.00 0.00 0.00 0.00 0.00 0.00 0.00 0.00
0.14 0.17 0.17 0.16 0.19 0.21 0.25 0.22 0.22 0.12 0.27 0.59 0.67 0.84 0.76 0.53 0.30 0.17 0.11 0.08 0.08 0.09 0.10 0.15 0.25 0.22 0.24 0.44 0.49 0.41 0.37 0.27 0.21 0.24 0.33 0.30 0.08 0.00 0.00 0.00 0.00 0.00 0.00 0.00 0.00 0.00 0.00 0.00 0.00 0.00 0.00 0.00 0.00 0.00
0.08 0.10 0.08 0.09 0.10 0.14 0.20 0.25 0.16 0.12 0.15 0.21 0.30 0.35 0.34 0.28 0.30 0.24 0.22 0.21 0.22 0.26 0.28 0.32 0.34 0.36 0.43 0.32 0.25 0.27 0.27 0.26 0.32 0.17 0.12 0.07 0.06 0.01 0.00 0.00 0.00 0.00 0.00 0.00 0.00 0.00 0.00 0.00 0.00 0.01 0.01 0.01 0.02 0.01
0.12 0.08 0.03 0.04 0.04 0.03 0.06 0.26 0.22 0.22 0.22 0.15 0.11 0.11 0.12 0.12 0.16 0.17 0.19 0.21 0.21 0.21 0.20 0.19 0.17 0.20 0.21 0.21 0.18 0.17 0.22 0.14 0.04 0.02 0.04 0.04 0.02 0.00 0.00 0.00 0.01 0.00 0.00 0.00 0.00 0.00 0.01 0.01 0.03 0.04 0.04 0.02 0.01 0.01
0.15 0.04 0.02 0.03 0.03 0.03 0.03 0.02 0.03 0.05 0.06 0.08 0.06 0.08 0.04 0.03 0.03 0.02 0.02 0.02 0.03 0.03 0.02 0.04 0.03 0.05 0.07 0.08 0.12 0.04 0.01 0.00 0.00 0.00 0.01 0.02 0.01 0.02 0.01 0.00 0.00 0.00 0.00 0.00 0.00 0.02 0.03 0.03 0.05 0.04 0.02 0.01 0.02 0.03
0.10 0.07 0.02 0.04 0.05 0.02 0.02 0.01 0.01 0.01 0.02 0.02 0.03 0.03 0.01 0.02 0.01 0.00 0.00 0.00 0.01 0.02 0.05 0.03 0.02 0.00 0.00 0.00 0.01 0.01 0.01 0.00 0.00 0.00 0.05 0.10 0.06 0.02 0.00 0.00 0.00 0.00 0.01 0.01 0.02 0.04 0.03 0.02 0.02 0.02 0.03 0.05 0.07 0.07
0.24 0.27 0.17 0.11 0.07 0.11 0.02 0.02 0.01 0.01 0.01 0.02 0.02 0.01 0.01 0.01 0.02 0.00 0.00 0.00 0.01 0.05 0.07 0.04 0.00 0.00 0.00 0.00 0.00 0.00 0.00 0.00 0.00 0.00 0.00 0.01 0.01 0.00 0.00 0.00 0.00 0.01 0.02 0.01 0.03 0.05 0.05 0.04 0.02 0.04 0.08 0.10 0.13 0.10
0.51 0.60 0.47 0.20 0.14 0.13 0.04 0.01 0.00 0.00 0.01 0.01 0.02 0.02 0.02 0.02 0.01 0.01 0.01 0.02 0.07 0.05 0.02 0.00 0.00 0.00 0.00 0.00 0.00 0.00 0.00 0.00 0.01 0.03 0.02 0.00 0.00 0.00 0.00 0.00 0.01 0.03 0.04 0.04 0.04 0.04 0.06 0.07 0.06 0.07 0.09 0.12 0.12 0.11
0.50 0.38 0.36 0.26 0.17 0.04 0.02 0.01 0.01 0.02 0.01 0.01 0.01 0.00 0.01 0.01 0.02 0.02 0.02 0.04 0.03 0.00 0.00 0.00 0.00 0.00 0.00 0.00 0.00 0.00 0.00 0.00 0.00 0.00 0.00 0.00 0.01 0.01 0.01 0.01 0.04 0.04 0.06 0.07 0.07 0.11 0.10 0.07 0.09 0.09 0.08 0.06 0.06 0.08
0.40 0.33 0.32 0.33 0.23 0.14 0.10 0.03 0.03 0.02 0.01 0.02 0.02 0.02 0.02 0.01 0.01 0.01 0.02 0.00 0.01 0.01 0.00 0.00 0.00 0.00 0.00 0.00 0.00 0.00 0.00 0.00 0.00 0.00 0.00 0.01 0.01 0.01 0.01 0.02 0.05 0.09 0.11 0.07 0.08 0.10 0.09 0.08 0.08 0.08 0.06 0.04 0.05 0.08
0.34 0.38 0.39 0.31 0.23 0.18 0.08 0.05 0.04 0.02 0.03 0.03 0.03 0.01 0.01 0.02 0.04 0.04 0.01 0.02 0.02 0.01 0.01 0.01 0.00 0.00 0.00 0.00 0.00 0.00 0.01 0.03 0.02 0.00 0.02 0.05 0.01 0.02 0.04 0.06 0.08 0.08 0.09 0.07 0.07 0.06 0.08 0.08 0.08 0.08 0.10 0.16 0.18 0.16
0.69 0.57 0.31 0.19 0.08 0.07 0.04 0.04 0.03 0.03 0.02 0.01 0.01 0.01 0.02 0.04 0.02 0.01 0.01 0.06 0.04 0.04 0.04 0.05 0.04 0.03 0.02 0.03 0.01 0.01 0.03 0.07 0.03 0.02 0.02 0.06 0.12 0.12 0.09 0.08 0.08 0.08 0.07 0.08 0.13 0.17 0.13 0.14 0.18 0.19 0.17 0.14 0.12 0.09
0.53 0.24 0.11 0.05 0.05 0.03 0.01 0.01 0.01 0.02 0.03 0.03 0.02 0.03 0.04 0.03 0.03 0.02 0.04 0.08 0.07 0.07 0.07 0.05 0.08 0.07 0.04 0.05 0.04 0.03 0.03 0.04 0.08 0.08 0.06 0.09 0.11 0.16 0.18 0.16 0.11 0.07 0.07 0.10 0.17 0.17 0.14 0.11 0.10 0.10 0.08 0.07 0.09 0.12
0.25 0.10 0.04 0.01 0.03 0.06 0.03 0.02 0.02 0.05 0.04 0.04 0.03 0.06 0.09 0.08 0.02 0.04 0.05 0.06 0.06 0.08 0.06 0.05 0.06 0.04 0.03 0.03 0.02 0.03 0.01 0.04 0.08 0.06 0.03 0.05 0.06 0.08 0.15 0.23 0.25 0.18 0.11 0.11 0.15 0.18 0.18 0.14 0.12 0.09 0.11 0.09 0.13 0.18
0.03 0.01 0.02 0.06 0.09 0.10 0.09 0.08 0.06 0.05 0.05 0.06 0.05 0.07 0.12 0.05 0.04 0.06 0.07 0.08 0.06 0.04 0.02 0.02 0.02 0.01 0.01 0.01 0.01 0.02 0.01 0.02 0.02 0.02 0.02 0.06 0.07 0.09 0.09 0.12 0.14 0.12 0.10 0.12 0.15 0.14 0.16 0.17 0.17 0.17 0.18 0.20 0.19 0.16
0.03 0.03 0.04 0.06 0.13 0.17 0.15 0.10 0.11 0.11 0.10 0.11 0.09 0.09 0.10 0.07 0.10 0.09 0.08 0.06 0.04 0.01 0.01 0.01 0.02 0.01 0.01 0.00 0.01 0.04 0.05 0.05 0.09 0.11 0.09 0.11 0.17 0.14 0.09 0.08 0.09 0.09 0.09 0.10 0.11 0.18 0.19 0.20 0.18 0.20 0.25 0.22 0.22 0.24
0.07 0.15 0.16 0.10 0.13 0.17 0.16 0.16 0.16 0.14 0.13 0.12 0.09 0.09 0.06 0.06 0.10 0.08 0.05 0.03 0.02 0.03 0.04 0.03 0.04 0.04 0.04 0.04 0.04 0.06 0.11 0.11 0.15 0.21 0.19 0.14 0.14 0.12 0.12 0.13 0.14 0.14 0.16 0.19 0.18 0.13 0.16 0.16 0.19 0.29 0.27 0.26 0.29 0.30
0.14 0.16 0.13 0.13 0.10 0.07 0.08 0.10 0.10 0.08 0.06 0.04 0.03 0.08 0.09 0.07 0.09 0.06 0.04 0.05 0.04 0.03 0.02 0.03 0.05 0.08 0.10 0.10 0.12 0.12 0.14 0.17 0.12 0.13 0.16 0.17 0.19 0.20 0.19 0.18 0.18 0.18 0.18 0.18 0.16 0.17 0.19 0.21 0.27 0.27 0.22 0.19 0.20 0.19
0.07 0.08 0.08 0.09 0.06 0.06 0.05 0.05 0.06 0.06 0.04 0.04 0.04 0.03 0.05 0.06 0.09 0.15 0.10 0.05 0.03 0.04 0.07 0.08 0.09 0.12 0.16 0.17 0.20 0.18 0.18 0.17 0.14 0.15 0.18 0.20 0.20 0.19 0.16 0.15 0.15 0.14 0.12 0.12 0.12 0.12 0.12 0.13 0.15 0.12 0.12 0.10 0.11 0.10
0.07 0.09 0.10 0.10 0.06 0.04 0.04 0.06 0.08 0.05 0.03 0.03 0.05 0.05 0.06 0.10 0.20 0.20 0.10 0.08 0.12 0.14 0.15 0.17 0.19 0.22 0.25 0.23 0.22 0.20 0.16 0.15 0.14 0.12 0.14 0.14 0.12 0.10 0.09 0.10 0.10 0.10 0.09 0.09 0.10 0.10 0.08 0.08 0.09 0.11 0.10 0.10 0.09 0.07

GFSWCAN_prec_precacc_048.txt.gz
Total_Precipitation_Accumulation
1.00 0.58 0.28 0.16 0.10 0.19 0.12 0.05 0.03 0.02 0.01 0.01 0.01 0.01 0.00 0.00 0.02 0.06 0.09 0.10 0.14 0.08 0.00 0.00 0.00 0.00 0.00 0.02 0.04 0.04 0.03 0.00 0.01 0.01 0.02 0.00 0.01 0.01 0.01 0.00 0.01 0.03 0.09 0.10 0.07 0.16 0.06 0.00 0.03 0.15 0.18 0.08 0.08 0.07
0.96 0.73 0.39 0.20 0.17 0.12 0.06 0.02 0.01 0.02 0.01 0.02 0.02 0.01 0.00 0.00 0.02 0.08 0.08 0.13 0.12 0.15 0.02 0.00 0.00 0.00 0.00 0.00 0.04 0.08 0.04 0.03 0.06 0.03 0.02 0.01 0.01 0.02 0.00 0.02 0.00 0.01 0.01 0.02 0.04 0.03 0.00 0.00 0.03 0.02 0.04 0.10 0.07 0.07
1.09 0.62 0.42 0.25 0.12 0.05 0.03 0.02 0.01 0.02 0.02 0.02 0.02 0.00 0.00 0.02 0.05 0.07 0.04 0.11 0.07 0.11 0.04 0.02 0.00 0.00 0.00 0.00 0.02 0.11 0.04 0.03 0.07 0.09 0.16 0.09 0.13 0.06 0.05 0.04 0.01 0.04 0.02 0.02 0.02 0.01 0.00 0.01 0.01 0.02 0.06 0.08 0.13 0.20
0.96 0.74 0.44 0.26 0.14 0.07 0.02 0.02 0.02 0.03 0.04 0.03 0.00 0.00 0.01 0.00 0.02 0.05 0.05 0.09 0.17 0.24 0.20 0.04 0.00 0.00 0.00 0.00 0.00 0.01 0.04 0.10 0.17 0.25 0.24 0.19 0.24 0.12 0.07 0.02 0.05 0.08 0.06 0.03 0.05 0.01 0.02 0.04 0.07 0.14 0.21 0.31 0.29 0.19
0.76 0.68 0.53 0.35 0.24 0.14 0.06 0.02 0.02 0.03 0.07 0.07 0.05 0.03 0.01 0.02 0.04 0.08 0.09 0.06 0.13 0.26 0.27 0.12 0.04 0.01 0.00 0.00 0.00 0.01 0.06 0.10 0.21 0.21 0.14 0.05 0.02 0.04 0.06 0.09 0.13 0.06 0.03 0.06 0.10 0.06 0.23 0.22 0.33 0.42 0.38 0.27 0.15 0.09
0.63 0.58 0.52 0.44 0.30 0.23 0.13 0.09 0.04 0.06 0.17 0.11 0.08 0.06 0.09 0.15 0.31 0.68 0.62 0.18 0.08 0.18 0.66 0.42 0.08 0.03 0.01 0.01 0.00 0.00 0.01 0.10 0.24 0.14 0.04 0.01 0.01 0.11 0.26 0.14 0.02 0.00 0.01 0.11 0.16 0.13 0.22 0.32 0.34 0.22 0.20 0.13 0.04 0.01
0.51 0.47 0.41 0.38 0.36 0.29 0.23 0.16 0.11 0.09 0.11 0.10 0.11 0.17 0.27 0.49 0.79 0.91 0.64 0.19 0.05 0.20 0.98 0.72 0.16 0.04 0.02 0.02 0.02 0.02 0.04 0.09 0.12 0.12 0.07 0.02 0.03 0.30 0.41 0.16 0.01 0.00 0.01 0.04 0.05 0.10 0.20 0.20 0.19 0.14 0.06 0.01 0.00 0.00
0.43 0.38 0.32 0.28 0.31 0.27 0.22 0.26 0.16 0.12 0.13 0.13 0.16 0.24 0.51 1.16 1.34 1.00 0.64 0.60 0.44 0.45 0.71 0.67 0.21 0.03 0.01 0.01 0.02 0.01 0.01 0.02 0.06 0.08 0.06 0.05 0.05 0.16 0.26 0.04 0.00 0.00 0.00 0.00 0.01 0.03 0.09 0.04 0.01 0.01 0.00 0.00 0.00 0.01
0.35 0.30 0.22 0.17 0.18 0.26 0.16 0.19 0.26 0.21 0.21 0.27 0.43 0.66 0.76 0.64 0.50 0.54 0.74 0.80 0.94 1.01 1.11 0.60 0.09 0.04 0.05 0.04 0.04 0.04 0.07 0.14 0.10 0.06 0.03 0.06 0.04 0.06 0.02 0.00 0.00 0.00 0.00 0.01 0.00 0.00 0.00 0.00 0.00 0.01 0.01 0.03 0.05 0.04
0.27 0.22 0.18 0.10 0.08 0.18 0.12 0.14 0.27 0.45 0.64 0.77 0.78 0.77 0.80 0.61 0.62 0.46 0.59 0.86 1.27 1.35 1.11 0.52 0.13 0.10 0.06 0.07 0.13 0.17 0.29 0.23 0.18 0.02 0.03 0.06 0.04 0.00 0.00 0.00 0.00 0.00 0.01 0.00 0.00 0.01 0.03 0.04 0.07 0.07 0.06 0.03 0.00 0.00
0.28 0.21 0.16 0.09 0.05 0.13 0.12 0.12 0.32 0.97 1.75 1.66 1.28 1.00 0.68 0.66 0.45 0.52 0.63 0.62 0.62 0.48 0.34 0.17 0.08 0.08 0.08 0.15 0.30 0.37 0.31 0.15 0.16 0.02 0.09 0.07 0.02 0.00 0.00 0.00 0.00 0.00 0.00 0.00 0.01 0.02 0.06 0.11 0.06 0.01 0.00 0.00 0.00 0.00
0.42 0.32 0.22 0.14 0.10 0.16 0.18 0.23 0.49 0.87 1.44 1.42 0.94 0.79 0.86 0.72 0.62 0.69 0.77 0.50 0.22 0.10 0.04 0.03 0.03 0.06 0.17 0.22 0.32 0.43 0.24 0.18 0.11 0.02 0.09 0.07 0.01 0.00 0.00 0.00 0.00 0.00 0.01 0.03 0.07 0.08 0.04 0.00 0.00 0.00 0.00 0.00 0.00 0.00
0.48 0.39 0.31 0.30 0.21 0.25 0.31 0.33 0.30 0.62 0.98 1.26 1.36 1.50 1.33 1.41 1.09 0.73 0.34 0.18 0.10 0.04 0.04 0.02 0.05 0.07 0.10 0.15 0.37 0.42 0.43 0.33 0.14 0.19 0.10 0.04 0.02 0.01 0.01 0.02 0.02 0.02 0.02 0.02 0.00 0.00 0.00 0.00 0.00 0.00 0.00 0.00 0.00 0.00
0.46 0.39 0.29 0.26 0.24 0.25 0.32 0.31 0.36 0.36 0.62 1.35 1.74 1.87 1.40 1.26 0.75 0.41 0.13 0.05 0.05 0.06 0.04 0.03 0.07 0.09 0.13 0.20 0.37 0.47 0.54 0.30 0.32 0.16 0.08 0.11 0.09 0.07 0.04 0.02 0.00 0.00 0.00 0.00 0.00 0.00 0.00 0.00 0.00 0.00 0.00 0.00 0.00 0.00
0.32 0.28 0.24 0.21 0.22 0.22 0.26 0.23 0.23 0.13 0.30 0.63 0.70 0.88 0.77 0.53 0.30 0.17 0.11 0.08 0.08 0.09 0.10 0.15 0.25 0.22 0.24 0.44 0.50 0.41 0.37 0.27 0.21 0.24 0.33 0.30 0.09 0.01 0.00 0.00 0.00 0.00 0.00 0.00 0.00 0.00 0.00 0.00 0.00 0.00 0.00 0.00 0.00 0.00
0.14 0.19 0.18 0.18 0.15 0.17 0.21 0.26 0.16 0.12 0.15 0.22 0.30 0.35 0.34 0.28 0.30 0.24 0.22 0.21 0.22 0.27 0.28 0.32 0.34 0.36 0.43 0.33 0.26 0.27 0.27 0.26 0.32 0.17 0.14 0.09 0.08 0.02 0.00 0.00 0.00 0.00 0.00 0.00 0.00 0.00 0.00 0.00 0.00 0.01 0.01 0.01 0.02 0.01
0.12 0.10 0.08 0.08 0.07 0.06 0.10 0.30 0.27 0.29 0.29 0.19 0.13 0.12 0.13 0.12 0.16 0.18 0.20 0.22 0.22 0.22 0.22 0.21 0.18 0.21 0.23 0.22 0.19 0.17 0.22 0.14 0.04 0.03 0.07 0.05 0.03 0.00 0.00 0.00 0.01 0.00 0.00 0.00 0.00 0.00 0.01 0.01 0.03 0.04 0.04 0.02 0.01 0.01
0.15 0.04 0.02 0.03 0.03 0.03 0.04 0.09 0.17 0.17 0.13 0.13 0.09 0.12 0.07 0.06 0.04 0.04 0.03 0.03 0.03 0.04 0.04 0.05 0.04 0.06 0.08 0.08 0.12 0.04 0.01 0.01 0.01 0.02 0.05 0.05 0.03 0.03 0.01 0.00 0.00 0.00 0.00 0.00 0.00 0.02 0.03 0.03 0.05 0.04 0.02 0.01 0.02 0.03
0.10 0.07 0.02 0.04 0.05 0.02 0.02 0.02 0.04 0.06 0.07 0.07 0.08 0.06 0.03 0.03 0.03 0.01 0.01 0.00 0.01 0.02 0.05 0.03 0.02 0.00 0.00 0.00 0.01 0.01 0.01 0.01 0.01 0.01 0.08 0.16 0.11 0.07 0.04 0.01 0.00 0.00 0.01 0.01 0.02 0.04 0.03 0.02 0.02 0.02 0.03 0.05 0.07 0.07
0.24 0.27 0.17 0.11 0.07 0.11 0.02 0.02 0.01 0.01 0.02 0.03 0.04 0.03 0.02 0.02 0.02 0.00 0.00 0.00 0.01 0.05 0.07 0.04 0.00 0.00 0.00 0.00 0.00 0.00 0.00 0.00 0.00 0.00 0.01 0.04 0.04 0.03 0.01 0.01 0.00 0.01 0.02 0.01 0.03 0.05 0.05 0.04 0.02 0.04 0.08 0.10 0.13 0.10
0.51 0.60 0.47 0.20 0.14 0.13 0.04 0.01 0.00 0.00 0.01 0.02 0.04 0.02 0.03 0.02 0.01 0.01 0.01 0.02 0.07 0.05 0.02 0.00 0.00 0.00 0.00 0.00 0.00 0.00 0.00 0.00 0.01 0.03 0.02 0.01 0.00 0.00 0.00 0.00 0.01 0.03 0.04 0.04 0.04 0.04 0.06 0.07 0.06 0.07 0.09 0.12 0.12 0.11
0.50 0.38 0.36 0.26 0.17 0.04 0.02 0.01 0.01 0.02 0.01 0.02 0.02 0.01 0.02 0.02 0.02 0.02 0.02 0.04 0.03 0.00 0.00 0.00 0.00 0.00 0.00 0.00 0.00 0.00 0.00 0.00 0.00 0.00 0.00 0.00 0.01 0.01 0.01 0.01 0.04 0.04 0.06 0.07 0.07 0.11 0.10 0.07 0.09 0.09 0.08 0.06 0.06 0.08
0.40 0.33 0.32 0.33 0.23 0.14 0.10 0.03 0.03 0.02 0.01 0.02 0.02 0.02 0.02 0.01 0.01 0.01 0.02 0.01 0.01 0.01 0.01 0.01 0.01 0.00 0.00 0.00 0.00 0.00 0.00 0.00 0.00 0.00 0.00 0.02 0.01 0.01 0.01 0.02 0.05 0.09 0.11 0.07 0.08 0.10 0.09 0.08 0.08 0.08 0.06 0.04 0.05 0.08
0.34 0.38 0.39 0.31 0.23 0.18 0.08 0.05 0.04 0.02 0.03 0.03 0.03 0.01 0.01 0.03 0.05 0.04 0.02 0.03 0.03 0.02 0.03 0.03 0.01 0.01 0.00 0.00 0.00 0.00 0.01 0.03 0.02 0.00 0.02 0.05 0.01 0.02 0.04 0.06 0.08 0.08 0.09 0.07 0.07 0.06 0.08 0.08 0.08 0.08 0.10 0.16 0.18 0.17
0.69 0.57 0.31 0.19 0.08 0.07 0.04 0.04 0.04 0.03 0.02 0.01 0.01 0.01 0.02 0.04 0.03 0.02 0.02 0.07 0.06 0.06 0.07 0.08 0.07 0.06 0.05 0.04 0.01 0.01 0.03 0.07 0.03 0.02 0.02 0.06 0.12 0.12 0.09 0.08 0.08 0.08 0.07 0.08 0.13 0.17 0.13 0.14 0.18 0.19 0.17 0.15 0.12 0.09
0.53 0.24 0.11 0.05 0.05 0.03 0.01 0.01 0.02 0.02 0.03 0.03 0.03 0.03 0.05 0.04 0.04 0.02 0.05 0.09 0.09 0.09 0.09 0.08 0.10 0.09 0.07 0.06 0.05 0.03 0.03 0.04 0.08 0.08 0.06 0.09 0.11 0.16 0.18 0.16 0.11 0.07 0.07 0.11 0.17 0.18 0.14 0.11 0.10 0.10 0.08 0.07 0.09 0.12
0.25 0.10 0.04 0.01 0.03 0.06 0.04 0.02 0.02 0.05 0.05 0.05 0.03 0.06 0.11 0.09 0.03 0.05 0.06 0.07 0.07 0.09 0.07 0.07 0.07 0.05 0.04 0.03 0.02 0.03 0.01 0.04 0.08 0.06 0.03 0.05 0.06 0.08 0.15 0.23 0.25 0.18 0.11 0.11 0.15 0.18 0.18 0.14 0.12 0.09 0.11 0.10 0.13 0.18
0.04 0.01 0.02 0.06 0.09 0.10 0.09 0.08 0.07 0.05 0.06 0.07 0.07 0.09 0.14 0.07 0.06 0.08 0.10 0.11 0.08 0.05 0.03 0.03 0.02 0.01 0.01 0.01 0.01 0.02 0.02 0.02 0.02 0.02 0.02 0.06 0.07 0.09 0.09 0.12 0.14 0.12 0.10 0.12 0.15 0.14 0.16 0.18 0.18 0.17 0.18 0.20 0.19 0.16
0.03 0.03 0.04 0.06 0.14 0.18 0.15 0.11 0.12 0.13 0.12 0.13 0.11 0.12 0.12 0.10 0.14 0.13 0.13 0.11 0.07 0.03 0.02 0.02 0.03 0.02 0.01 0.00 0.01 0.04 0.05 0.05 0.09 0.11 0.09 0.11 0.17 0.14 0.09 0.08 0.09 0.09 0.09 0.10 0.11 0.18 0.19 0.21 0.19 0.21 0.25 0.22 0.22 0.24
0.07 0.15 0.16 0.11 0.14 0.17 0.17 0.17 0.17 0.15 0.14 0.14 0.11 0.10 0.08 0.08 0.13 0.11 0.08 0.05 0.03 0.04 0.05 0.04 0.05 0.04 0.04 0.04 0.04 0.06 0.11 0.11 0.15 0.21 0.19 0.14 0.14 0.12 0.12 0.13 0.15 0.14 0.16 0.19 0.18 0.13 0.16 0.16 0.19 0.29 0.27 0.26 0.29 0.30
0.14 0.16 0.14 0.13 0.11 0.08 0.09 0.11 0.12 0.09 0.06 0.05 0.05 0.10 0.11 0.08 0.11 0.08 0.05 0.06 0.05 0.04 0.03 0.03 0.05 0.08 0.10 0.10 0.12 0.12 0.14 0.17 0.12 0.13 0.16 0.17 0.19 0.20 0.19 0.18 0.18 0.18 0.18 0.18 0.16 0.17 0.19 0.21 0.27 0.27 0.22 0.19 0.20 0.19
0.07 0.08 0.09 0.09 0.06 0.06 0.05 0.06 0.07 0.07 0.05 0.05 0.05 0.04 0.06 0.07 0.10 0.15 0.11 0.05 0.04 0.04 0.07 0.08 0.09 0.12 0.16 0.17 0.20 0.18 0.18 0.17 0.14 0.15 0.18 0.20 0.20 0.19 0.16 0.15 0.15 0.14 0.12 0.12 0.12 0.12 0.12 0.13 0.15 0.12 0.12 0.10 0.11 0.10
0.08 0.09 0.10 0.10 0.06 0.04 0.04 0.06 0.08 0.05 0.03 0.04 0.05 0.06 0.07 0.11 0.21 0.21 0.11 0.08 0.12 0.14 0.15 0.17 0.19 0.22 0.26 0.23 0.22 0.20 0.16 0.15 0.14 0.12 0.14 0.14 0.12 0.10 0.09 0.10 0.11 0.10 0.09 0.09 0.10 0.10 0.08 0.08 0.09 0.11 0.10 0.10 0.09 0.07

GFSWCAN_prec_precacc_051.txt.gz
Total_Precipitation_Accumulation
1.01 0.58 0.28 0.16 0.13 0.25 0.17 0.14 0.13 0.12 0.11 0.08 0.04 0.01 0.00 0.00 0.02 0.08 0.12 0.10 0.17 0.10 0.00 0.00 0.00 0.00 0.00 0.02 0.04 0.04 0.03 0.00 0.01 0.02 0.04 0.01 0.01 0.01 0.01 0.00 0.01 0.03 0.09 0.10 0.07 0.16 0.06 0.00 0.03 0.15 0.18 0.08 0.08 0.07
0.99 0.75 0.40 0.23 0.24 0.23 0.15 0.15 0.12 0.09 0.10 0.08 0.03 0.01 0.01 0.00 0.03 0.12 0.13 0.14 0.12 0.16 0.03 0.00 0.00 0.00 0.00 0.00 0.04 0.08 0.04 0.03 0.06 0.03 0.02 0.02 0.01 0.02 0.00 0.02 0.00 0.01 0.01 0.02 0.04 0.03 0.00 0.00 0.03 0.02 0.04 0.10 0.07 0.07
1.22 0.70 0.49 0.34 0.22 0.22 0.17 0.15 0.09 0.07 0.08 0.05 0.03 0.01 0.00 0.02 0.06 0.13 0.09 0.12 0.08 0.12 0.05 0.02 0.00 0.00 0.00 0.00 0.02 0.11 0.04 0.03 0.07 0.09 0.16 0.09 0.14 0.06 0.05 0.04 0.01 0.04 0.02 0.02 0.02 0.01 0.00 0.01 0.01 0.02 0.06 0.08 0.13 0.20
1.15 0.93 0.59 0.36 0.27 0.25 0.15 0.12 0.06 0.06 0.06 0.05 0.00 0.01 0.01 0.01 0.05 0.15 0.10 0.11 0.19 0.26 0.23 0.04 0.00 0.00 0.00 0.00 0.00 0.01 0.04 0.10 0.17 0.25 0.24 0.19 0.25 0.12 0.07 0.02 0.05 0.08 0.06 0.03 0.05 0.01 0.02 0.04 0.07 0.14 0.21 0.31 0.29 0.19
0.96 0.81 0.63 0.44 0.35 0.22 0.10 0.04 0.03 0.04 0.08 0.07 0.05 0.03 0.02 0.03 0.08 0.17 0.18 0.12 0.15 0.29 0.29 0.12 0.04 0.01 0.00 0.00 0.00 0.01 0.06 0.10 0.21 0.21 0.15 0.05 0.02 0.04 0.06 0.09 0.13 0.06 0.03 0.06 0.10 0.06 0.23 0.22 0.33 0.42 0.38 0.27 0.15 0.09
0.68 0.62 0.56 0.47 0.31 0.23 0.14 0.09 0.04 0.07 0.17 0.12 0.08 0.06 0.09 0.16 0.35 0.73 0.69 0.22 0.12 0.21 0.67 0.43 0.08 0.03 0.01 0.01 0.00 0.00 0.01 0.10 0.24 0.14 0.04 0.01 0.01 0.11 0.26 0.14 0.02 0.00 0.01 0.11 0.16 0.13 0.22 0.32 0.34 0.22 0.20 0.13 0.04 0.01
0.57 0.54 0.48 0.43 0.38 0.31 0.26 0.19 0.16 0.14 0.14 0.12 0.11 0.17 0.27 0.52 0.84 0.95 0.68 0.20 0.06 0.20 1.03 0.75 0.19 0.06 0.03 0.02 0.02 0.02 0.04 0.09 0.12 0.12 0.07 0.02 0.03 0.30 0.41 0.16 0.01 0.00 0.01 0.04 0.05 0.10 0.20 0.20 0.19 0.14 0.06 0.01 0.00 0.00
0.44 0.40 0.37 0.32 0.34 0.29 0.27 0.33 0.26 0.19 0.19 0.17 0.18 0.26 0.54 1.22 1.39 1.03 0.65 0.60 0.44 0.45 0.75 0.72 0.22 0.06 0.02 0.03 0.03 0.02 0.02 0.02 0.06 0.08 0.06 0.05 0.05 0.16 0.26 0.04 0.00 0.00 0.00 0.00 0.01 0.03 0.09 0.04 0.01 0.01 0.00 0.00 0.00 0.01
0.35 0.30 0.23 0.17 0.19 0.29 0.20 0.25 0.34 0.29 0.28 0.33 0.48 0.71 0.79 0.68 0.51 0.55 0.74 0.80 0.94 1.01 1.11 0.61 0.10 0.06 0.07 0.07 0.06 0.05 0.09 0.15 0.10 0.06 0.03 0.06 0.04 0.06 0.02 0.00 0.00 0.00 0.00 0.01 0.00 0.00 0.00 0.00 0.00 0.01 0.01 0.03 0.05 0.04
0.27 0.23 0.19 0.10 0.09 0.18 0.13 0.14 0.29 0.48 0.65 0.78 0.79 0.79 0.82 0.62 0.63 0.47 0.59 0.86 1.27 1.35 1.11 0.53 0.13 0.10 0.07 0.09 0.14 0.18 0.30 0.23 0.18 0.02 0.03 0.07 0.04 0.00 0.00 0.00 0.00 0.00 0.01 0.00 0.00 0.01 0.03 0.04 0.07 0.07 0.06 0.03 0.00 0.00
0.29 0.21 0.17 0.10 0.06 0.14 0.12 0.13 0.33 0.97 1.75 1.67 1.28 1.00 0.68 0.66 0.46 0.52 0.64 0.62 0.63 0.48 0.34 0.17 0.08 0.08 0.08 0.16 0.30 0.37 0.31 0.15 0.16 0.02 0.09 0.08 0.02 0.00 0.00 0.00 0.00 0.00 0.00 0.00 0.01 0.02 0.06 0.11 0.06 0.01 0.00 0.00 0.00 0.00
0.43 0.33 0.22 0.15 0.10 0.17 0.19 0.24 0.49 0.87 1.44 1.42 0.94 0.79 0.86 0.72 0.62 0.69 0.77 0.50 0.22 0.10 0.04 0.03 0.03 0.06 0.17 0.22 0.32 0.43 0.24 0.18 0.11 0.02 0.10 0.07 0.01 0.00 0.00 0.00 0.00 0.00 0.01 0.03 0.07 0.08 0.04 0.00 0.00 0.00 0.00 0.00 0.00 0.00
0.50 0.40 0.31 0.30 0.21 0.26 0.31 0.33 0.30 0.62 0.98 1.26 1.36 1.51 1.34 1.42 1.09 0.74 0.34 0.18 0.10 0.04 0.04 0.02 0.05 0.07 0.10 0.15 0.38 0.42 0.44 0.33 0.14 0.19 0.10 0.04 0.02 0.01 0.02 0.02 0.02 0.02 0.02 0.02 0.00 0.00 0.00 0.00 0.00 0.00 0.00 0.00 0.00 0.00
0.53 0.43 0.30 0.28 0.25 0.26 0.33 0.32 0.37 0.36 0.62 1.35 1.75 1.88 1.41 1.26 0.75 0.41 0.13 0.05 0.05 0.06 0.04 0.03 0.07 0.09 0.13 0.20 0.37 0.47 0.55 0.30 0.33 0.16 0.08 0.11 0.10 0.08 0.04 0.02 0.00 0.00 0.00 0.00 0.00 0.00 0.00 0.00 0.00 0.00 0.00 0.00 0.00 0.00
0.43 0.31 0.27 0.25 0.24 0.24 0.28 0.25 0.26 0.15 0.30 0.65 0.72 0.89 0.78 0.53 0.30 0.17 0.11 0.08 0.08 0.09 0.10 0.15 0.25 0.22 0.24 0.45 0.50 0.41 0.38 0.27 0.21 0.24 0.34 0.31 0.09 0.01 0.00 0.00 0.00 0.00 0.00 0.00 0.00 0.00 0.00 0.00 0.00 0.00 0.00 0.00 0.00 0.00
0.19 0.21 0.23 0.23 0.21 0.20 0.25 0.28 0.21 0.18 0.20 0.26 0.34 0.36 0.35 0.29 0.31 0.24 0.22 0.21 0.22 0.27 0.28 0.32 0.34 0.36 0.43 0.33 0.26 0.27 0.28 0.26 0.32 0.17 0.14 0.09 0.08 0.02 0.00 0.00 0.00 0.00 0.00 0.00 0.00 0.00 0.00 0.00 0.00 0.01 0.01 0.01 0.02 0.01
0.13 0.12 0.10 0.09 0.09 0.09 0.12 0.32 0.31 0.35 0.36 0.22 0.15 0.13 0.13 0.13 0.16 0.18 0.20 0.22 0.22 0.22 0.22 0.21 0.18 0.21 0.23 0.23 0.19 0.17 0.23 0.14 0.04 0.04 0.08 0.06 0.03 0.00 0.00 0.00 0.01 0.00 0.00 0.00 0.00 0.00 0.01 0.01 0.03 0.04 0.04 0.02 0.01 0.01
0.15 0.04 0.02 0.03 0.04 0.04 0.07 0.12 0.20 0.18 0.14 0.13 0.10 0.14 0.08 0.06 0.05 0.04 0.03 0.03 0.03 0.04 0.04 0.05 0.04 0.06 0.09 0.09 0.13 0.04 0.01 0.01 0.01 0.03 0.06 0.06 0.03 0.03 0.01 0.00 0.00 0.00 0.00 0.00 0.00 0.02 0.03 0.03 0.05 0.04 0.02 0.01 0.02 0.03
0.10 0.07 0.02 0.04 0.05 0.03 0.07 0.07 0.09 0.08 0.09 0.10 0.11 0.09 0.06 0.06 0.05 0.02 0.01 0.00 0.01 0.02 0.05 0.03 0.03 0.01 0.01 0.01 0.01 0.01 0.01 0.01 0.01 0.02 0.11 0.19 0.13 0.09 0.05 0.02 0.01 0.00 0.01 0.01 0.02 0.04 0.03 0.02 0.02 0.02 0.03 0.05 0.07 0.07
0.24 0.27 0.17 0.11 0.07 0.11 0.03 0.03 0.02 0.03 0.06 0.06 0.06 0.05 0.04 0.05 0.04 0.01 0.00 0.00 0.01 0.05 0.07 0.04 0.00 0.00 0.00 0.00 0.00 0.00 0.00 0.00 0.00 0.00 0.03 0.06 0.06 0.06 0.05 0.03 0.01 0.01 0.02 0.01 0.03 0.05 0.05 0.04 0.02 0.04 0.08 0.10 0.13 0.10
0.51 0.60 0.47 0.20 0.14 0.13 0.04 0.01 0.01 0.01 0.02 0.03 0.05 0.03 0.04 0.03 0.01 0.01 0.01 0.02 0.07 0.05 0.02 0.00 0.00 0.00 0.00 0.00 0.00 0.00 0.00 0.00 0.01 0.03 0.02 0.01 0.00 0.00 0.00 0.00 0.01 0.03 0.04 0.04 0.04 0.04 0.06 0.07 0.06 0.07 0.09 0.12 0.12 0.11
0.50 0.38 0.36 0.26 0.17 0.04 0.02 0.01 0.01 0.02 0.01 0.03 0.02 0.01 0.02 0.02 0.02 0.02 0.02 0.04 0.03 0.01 0.01 0.01 0.00 0.00 0.00 0.00 0.00 0.00 0.00 0.00 0.00 0.00 0.00 0.00 0.01 0.01 0.01 0.01 0.04 0.04 0.06 0.07 0.07 0.11 0.10 0.07 0.09 0.09 0.08 0.06 0.06 0.08
0.40 0.33 0.32 0.33 0.23 0.14 0.10 0.03 0.04 0.02 0.02 0.03 0.02 0.02 0.02 0.02 0.01 0.01 0.02 0.01 0.02 0.03 0.02 0.01 0.01 0.00 0.00 0.00 0.00 0.00 0.00 0.00 0.00 0.00 0.00 0.02 0.01 0.01 0.01 0.02 0.05 0.09 0.11 0.07 0.08 0.10 0.09 0.08 0.08 0.08 0.06 0.04 0.06 0.08
0.34 0.38 0.39 0.31 0.23 0.18 0.08 0.05 0.04 0.03 0.03 0.03 0.03 0.01 0.02 0.03 0.05 0.04 0.02 0.04 0.05 0.04 0.04 0.04 0.02 0.01 0.01 0.00 0.00 0.00 0.01 0.03 0.02 0.00 0.02 0.05 0.01 0.02 0.04 0.06 0.08 0.08 0.09 0.07 0.07 0.06 0.08 0.08 0.08 0.08 0.10 0.16 0.18 0.17
0.69 0.57 0.31 0.19 0.08 0.07 0.04 0.04 0.04 0.03 0.03 0.02 0.02 0.01 0.02 0.04 0.03 0.02 0.03 0.09 0.07 0.08 0.10 0.10 0.09 0.08 0.07 0.06 0.03 0.02 0.03 0.07 0.03 0.02 0.02 0.06 0.12 0.12 0.09 0.08 0.08 0.08 0.07 0.08 0.13 0.17 0.13 0.14 0.18 0.19 0.17 0.15 0.12 0.09
0.53 0.24 0.11 0.05 0.05 0.03 0.01 0.01 0.02 0.02 0.03 0.03 0.03 0.04 0.05 0.05 0.04 0.03 0.06 0.11 0.11 0.10 0.11 0.11 0.13 0.12 0.10 0.09 0.07 0.05 0.04 0.05 0.08 0.08 0.06 0.09 0.11 0.16 0.18 0.16 0.11 0.07 0.07 0.11 0.17 0.18 0.14 0.11 0.10 0.10 0.08 0.07 0.09 0.12
0.25 0.10 0.04 0.01 0.03 0.06 0.04 0.02 0.03 0.06 0.05 0.06 0.04 0.07 0.11 0.10 0.04 0.06 0.07 0.09 0.08 0.11 0.09 0.09 0.09 0.08 0.07 0.05 0.04 0.03 0.02 0.04 0.08 0.06 0.03 0.05 0.06 0.08 0.15 0.23 0.25 0.18 0.11 0.11 0.15 0.18 0.18 0.14 0.12 0.09 0.11 0.10 0.13 0.19
0.04 0.01 0.02 0.06 0.09 0.11 0.10 0.08 0.07 0.06 0.07 0.07 0.07 0.09 0.14 0.08 0.07 0.10 0.12 0.14 0.11 0.08 0.06 0.05 0.04 0.03 0.03 0.03 0.02 0.02 0.02 0.02 0.02 0.02 0.02 0.06 0.07 0.09 0.09 0.12 0.14 0.12 0.10 0.12 0.15 0.14 0.16 0.18 0.18 0.17 0.19 0.20 0.19 0.17
0.03 0.04 0.04 0.06 0.14 0.18 0.16 0.11 0.13 0.13 0.12 0.14 0.12 0.12 0.13 0.11 0.16 0.15 0.16 0.14 0.10 0.06 0.05 0.05 0.05 0.04 0.02 0.01 0.01 0.04 0.05 0.05 0.09 0.11 0.09 0.11 0.17 0.14 0.09 0.09 0.09 0.10 0.10 0.10 0.11 0.18 0.19 0.21 0.19 0.21 0.25 0.23 0.22 0.24
0.07 0.15 0.16 0.11 0.14 0.18 0.18 0.19 0.18 0.16 0.15 0.14 0.11 0.11 0.08 0.09 0.15 0.13 0.09 0.07 0.05 0.06 0.06 0.05 0.06 0.05 0.04 0.04 0.04 0.06 0.11 0.11 0.15 0.21 0.19 0.14 0.14 0.12 0.12 0.14 0.15 0.15 0.16 0.19 0.18 0.13 0.16 0.17 0.19 0.29 0.27 0.26 0.29 0.30
0.14 0.16 0.14 0.14 0.12 0.10 0.11 0.13 0.13 0.09 0.07 0.06 0.06 0.10 0.11 0.09 0.12 0.09 0.06 0.07 0.05 0.05 0.03 0.03 0.05 0.08 0.10 0.10 0.12 0.12 0.14 0.17 0.12 0.13 0.16 0.17 0.19 0.20 0.20 0.19 0.18 0.19 0.18 0.18 0.16 0.18 0.19 0.21 0.27 0.27 0.22 0.20 0.20 0.19
0.07 0.08 0.09 0.10 0.07 0.07 0.06 0.08 0.10 0.08 0.06 0.05 0.05 0.04 0.06 0.07 0.10 0.16 0.11 0.06 0.04 0.04 0.07 0.08 0.09 0.12 0.16 0.17 0.20 0.18 0.18 0.17 0.14 0.15 0.18 0.20 0.21 0.19 0.17 0.16 0.16 0.14 0.13 0.12 0.12 0.13 0.12 0.13 0.15 0.12 0.12 0.10 0.11 0.10
0.08 0.09 0.11 0.10 0.07 0.05 0.04 0.06 0.08 0.06 0.03 0.04 0.06 0.06 0.07 0.11 0.21 0.22 0.11 0.09 0.12 0.15 0.16 0.17 0.19 0.22 0.26 0.23 0.22 0.20 0.16 0.15 0.14 0.12 0.14 0.14 0.13 0.10 0.09 0.10 0.11 0.10 0.10 0.10 0.10 0.10 0.08 0.08 0.09 0.11 0.10 0.10 0.09 0.07

GFSWCAN_prec_precacc_057.txt.gz
Total_Precipitation_Accumulation
1.02 0.58 0.28 0.17 0.16 0.27 0.20 0.17 0.17 0.19 0.18 0.12 0.07 0.07 0.06 0.04 0.06 0.14 0.22 0.29 0.42 0.41 0.03 0.00 0.00 0.00 0.01 0.03 0.08 0.05 0.05 0.09 0.10 0.08 0.08 0.02 0.02 0.01 0.01 0.00 0.01 0.03 0.09 0.10 0.07 0.16 0.06 0.00 0.03 0.15 0.18 0.08 0.08 0.07
0.99 0.75 0.40 0.24 0.27 0.26 0.17 0.17 0.14 0.12 0.13 0.12 0.07 0.06 0.04 0.02 0.05 0.15 0.25 0.30 0.31 0.58 0.24 0.04 0.01 0.00 0.00 0.00 0.05 0.09 0.04 0.03 0.07 0.04 0.02 0.03 0.02 0.02 0.00 0.02 0.00 0.01 0.01 0.02 0.04 0.03 0.00 0.00 0.03 0.02 0.04 0.10 0.07 0.07
1.23 0.70 0.50 0.36 0.23 0.23 0.18 0.16 0.11 0.09 0.13 0.10 0.06 0.06 0.03 0.03 0.08 0.16 0.25 0.34 0.55 0.50 0.30 0.16 0.03 0.00 0.00 0.00 0.05 0.14 0.04 0.03 0.07 0.09 0.16 0.09 0.14 0.06 0.05 0.04 0.01 0.04 0.02 0.02 0.02 0.01 0.00 0.01 0.01 0.02 0.06 0.08 0.13 0.20
1.16 0.93 0.60 0.36 0.28 0.29 0.20 0.16 0.09 0.13 0.15 0.10 0.05 0.05 0.03 0.02 0.06 0.22 0.29 0.35 0.83 0.89 0.48 0.28 0.03 0.00 0.01 0.02 0.01 0.11 0.10 0.11 0.17 0.25 0.24 0.19 0.25 0.12 0.07 0.02 0.05 0.08 0.06 0.03 0.05 0.01 0.02 0.04 0.07 0.14 0.21 0.31 0.29 0.19
0.97 0.83 0.64 0.47 0.44 0.38 0.20 0.09 0.11 0.16 0.17 0.11 0.09 0.05 0.03 0.04 0.11 0.36 0.38 0.35 0.81 0.84 0.49 0.21 0.06 0.01 0.00 0.01 0.02 0.15 0.31 0.17 0.21 0.22 0.16 0.06 0.02 0.04 0.06 0.09 0.13 0.06 0.03 0.06 0.10 0.06 0.23 0.22 0.33 0.42 0.38 0.27 0.15 0.09
0.74 0.68 0.62 0.57 0.48 0.40 0.20 0.16 0.16 0.20 0.25 0.16 0.12 0.09 0.12 0.20 0.49 1.14 0.93 0.40 0.68 0.67 0.83 0.45 0.09 0.03 0.02 0.01 0.02 0.03 0.09 0.15 0.25 0.14 0.04 0.01 0.01 0.11 0.26 0.14 0.02 0.00 0.01 0.11 0.16 0.13 0.22 0.32 0.34 0.22 0.20 0.13 0.04 0.01
0.74 0.67 0.58 0.52 0.49 0.39 0.33 0.29 0.25 0.24 0.21 0.18 0.16 0.21 0.33 0.60 1.15 1.42 0.90 0.32 0.33 0.68 1.21 0.80 0.21 0.06 0.04 0.02 0.03 0.05 0.08 0.12 0.14 0.12 0.07 0.02 0.03 0.30 0.41 0.16 0.01 0.00 0.01 0.04 0.05 0.10 0.20 0.20 0.19 0.14 0.06 0.01 0.00 0.00
0.82 0.71 0.59 0.46 0.44 0.38 0.39 0.42 0.32 0.29 0.31 0.25 0.23 0.32 0.63 1.46 1.82 1.42 0.90 0.65 0.51 0.57 0.81 0.86 0.25 0.07 0.03 0.04 0.04 0.02 0.03 0.05 0.07 0.09 0.07 0.06 0.05 0.16 0.26 0.04 0.00 0.00 0.00 0.00 0.01 0.03 0.09 0.04 0.01 0.01 0.00 0.00 0.00 0.01
0.81 0.62 0.44 0.32 0.33 0.43 0.33 0.35 0.42 0.40 0.43 0.44 0.59 0.86 1.08 1.23 1.09 0.90 0.90 0.83 0.95 1.02 1.13 0.73 0.26 0.08 0.08 0.08 0.07 0.07 0.10 0.16 0.11 0.06 0.03 0.06 0.04 0.06 0.02 0.00 0.00 0.00 0.00 0.01 0.00 0.00 0.00 0.00 0.00 0.01 0.01 0.03 0.05 0.04
0.44 0.37 0.31 0.23 0.22 0.31 0.23 0.24 0.38 0.57 0.78 0.95 1.02 1.15 1.41 1.30 0.97 0.66 0.69 0.94 1.29 1.35 1.11 0.54 0.27 0.27 0.10 0.12 0.18 0.22 0.33 0.27 0.20 0.04 0.05 0.07 0.04 0.01 0.00 0.00 0.00 0.00 0.01 0.00 0.00 0.01 0.03 0.04 0.07 0.07 0.06 0.03 0.00 0.00
0.48 0.39 0.33 0.24 0.18 0.23 0.20 0.18 0.37 1.07 1.94 1.92 1.58 1.36 1.03 1.09 0.67 0.69 0.71 0.69 0.65 0.48 0.34 0.17 0.10 0.20 0.17 0.21 0.36 0.42 0.36 0.20 0.19 0.03 0.11 0.08 0.02 0.01 0.01 0.00 0.00 0.00 0.00 0.00 0.01 0.02 0.06 0.11 0.06 0.01 0.00 0.00 0.00 0.00
0.58 0.50 0.41 0.33 0.25 0.29 0.26 0.28 0.59 1.01 1.62 1.56 1.01 0.85 0.99 1.00 0.81 0.81 0.80 0.51 0.22 0.10 0.04 0.03 0.03 0.12 0.29 0.25 0.37 0.47 0.28 0.19 0.12 0.03 0.10 0.08 0.01 0.00 0.00 0.00 0.00 0.00 0.01 0.03 0.07 0.08 0.04 0.00 0.00 0.00 0.00 0.00 0.00 0.00
0.69 0.62 0.58 0.52 0.41 0.44 0.44 0.40 0.37 0.68 0.99 1.26 1.38 1.56 1.44 1.58 1.22 0.77 0.34 0.18 0.10 0.04 0.04 0.02 0.05 0.08 0.16 0.17 0.40 0.46 0.48 0.37 0.15 0.19 0.10 0.04 0.02 0.01 0.02 0.02 0.02 0.02 0.02 0.02 0.00 0.00 0.00 0.00 0.00 0.00 0.00 0.00 0.00 0.00
0.63 0.60 0.48 0.52 0.51 0.45 0.42 0.35 0.39 0.37 0.62 1.36 1.77 1.92 1.47 1.32 0.77 0.41 0.13 0.05 0.05 0.06 0.05 0.03 0.07 0.09 0.13 0.20 0.38 0.48 0.55 0.31 0.34 0.17 0.08 0.11 0.10 0.08 0.04 0.02 0.00 0.00 0.00 0.00 0.00 0.00 0.00 0.00 0.00 0.00 0.00 0.00 0.00 0.00
0.47 0.38 0.43 0.49 0.44 0.35 0.31 0.26 0.27 0.15 0.31 0.66 0.74 0.92 0.79 0.54 0.30 0.18 0.11 0.08 0.09 0.09 0.10 0.15 0.25 0.23 0.24 0.45 0.50 0.41 0.38 0.28 0.21 0.24 0.34 0.31 0.09 0.01 0.00 0.00 0.00 0.00 0.00 0.00 0.00 0.00 0.00 0.00 0.00 0.00 0.00 0.00 0.00 0.00
0.21 0.22 0.30 0.31 0.30 0.27 0.28 0.31 0.23 0.22 0.25 0.29 0.36 0.39 0.35 0.29 0.31 0.24 0.22 0.21 0.22 0.27 0.28 0.33 0.34 0.36 0.44 0.33 0.26 0.27 0.28 0.27 0.33 0.17 0.14 0.09 0.08 0.02 0.00 0.00 0.00 0.00 0.00 0.00 0.00 0.00 0.00 0.00 0.00 0.01 0.01 0.01 0.02 0.01
0.14 0.13 0.12 0.10 0.12 0.11 0.16 0.38 0.38 0.50 0.55 0.33 0.21 0.16 0.14 0.13 0.17 0.18 0.20 0.22 0.22 0.22 0.22 0.21 0.18 0.21 0.23 0.23 0.19 0.17 0.23 0.14 0.05 0.04 0.09 0.06 0.03 0.00 0.00 0.00 0.01 0.00 0.00 0.00 0.00 0.00 0.01 0.01 0.03 0.04 0.04 0.02 0.01 0.01
0.15 0.04 0.02 0.03 0.06 0.08 0.13 0.22 0.29 0.27 0.24 0.27 0.20 0.22 0.14 0.12 0.09 0.08 0.05 0.04 0.03 0.04 0.04 0.05 0.04 0.06 0.09 0.09 0.13 0.05 0.02 0.02 0.03 0.05 0.08 0.07 0.03 0.03 0.01 0.00 0.00 0.00 0.00 0.00 0.00 0.02 0.03 0.03 0.05 0.04 0.02 0.01 0.02 0.03
0.10 0.07 0.02 0.04 0.06 0.06 0.13 0.12 0.13 0.10 0.14 0.18 0.27 0.24 0.16 0.16 0.15 0.11 0.08 0.05 0.04 0.03 0.05 0.04 0.05 0.03 0.04 0.02 0.02 0.01 0.01 0.02 0.04 0.07 0.15 0.20 0.13 0.09 0.06 0.02 0.01 0.00 0.01 0.01 0.02 0.04 0.03 0.02 0.02 0.02 0.03 0.05 0.07 0.07
0.24 0.27 0.17 0.11 0.07 0.11 0.05 0.06 0.03 0.04 0.11 0.12 0.16 0.16 0.11 0.13 0.13 0.09 0.03 0.03 0.03 0.07 0.11 0.09 0.08 0.08 0.07 0.06 0.02 0.02 0.01 0.01 0.02 0.04 0.09 0.12 0.11 0.08 0.08 0.06 0.03 0.02 0.02 0.01 0.03 0.05 0.05 0.04 0.02 0.04 0.08 0.10 0.13 0.10
0.51 0.60 0.47 0.20 0.14 0.13 0.05 0.03 0.04 0.06 0.07 0.11 0.17 0.10 0.14 0.10 0.09 0.07 0.06 0.05 0.09 0.12 0.12 0.13 0.14 0.16 0.13 0.07 0.03 0.01 0.01 0.01 0.02 0.03 0.03 0.05 0.04 0.03 0.03 0.02 0.02 0.03 0.04 0.04 0.04 0.04 0.06 0.07 0.06 0.07 0.09 0.12 0.12 0.11
0.50 0.38 0.36 0.26 0.17 0.04 0.03 0.02 0.03 0.04 0.04 0.09 0.08 0.06 0.10 0.11 0.10 0.08 0.04 0.05 0.09 0.12 0.12 0.11 0.10 0.09 0.08 0.06 0.04 0.02 0.01 0.00 0.00 0.01 0.01 0.00 0.01 0.02 0.02 0.02 0.04 0.05 0.06 0.07 0.07 0.11 0.10 0.07 0.09 0.09 0.08 0.06 0.06 0.08
0.40 0.33 0.32 0.33 0.23 0.14 0.10 0.03 0.04 0.03 0.04 0.06 0.04 0.04 0.06 0.05 0.04 0.02 0.03 0.04 0.08 0.10 0.08 0.06 0.05 0.03 0.04 0.03 0.01 0.02 0.01 0.00 0.01 0.02 0.02 0.03 0.02 0.01 0.02 0.03 0.05 0.09 0.11 0.07 0.08 0.10 0.09 0.08 0.08 0.08 0.06 0.05 0.06 0.08
0.34 0.38 0.39 0.31 0.23 0.18 0.08 0.05 0.04 0.03 0.04 0.04 0.03 0.02 0.03 0.05 0.06 0.04 0.04 0.09 0.14 0.10 0.09 0.08 0.06 0.04 0.02 0.01 0.02 0.03 0.04 0.04 0.03 0.02 0.03 0.05 0.02 0.02 0.04 0.06 0.08 0.08 0.09 0.07 0.07 0.06 0.08 0.08 0.08 0.08 0.10 0.16 0.18 0.17
0.69 0.57 0.31 0.19 0.08 0.07 0.04 0.05 0.04 0.03 0.04 0.02 0.02 0.02 0.03 0.04 0.04 0.04 0.06 0.15 0.10 0.11 0.15 0.16 0.12 0.12 0.10 0.10 0.07 0.06 0.07 0.08 0.05 0.04 0.04 0.07 0.12 0.13 0.09 0.08 0.08 0.08 0.07 0.08 0.13 0.17 0.13 0.14 0.18 0.20 0.17 0.15 0.13 0.10
0.53 0.25 0.11 0.05 0.05 0.04 0.02 0.02 0.02 0.03 0.04 0.04 0.04 0.04 0.06 0.06 0.05 0.05 0.09 0.16 0.14 0.13 0.14 0.16 0.19 0.14 0.12 0.13 0.11 0.10 0.10 0.09 0.10 0.09 0.08 0.10 0.12 0.17 0.19 0.16 0.12 0.07 0.07 0.11 0.17 0.18 0.14 0.11 0.10 0.10 0.09 0.07 0.09 0.13
0.27 0.11 0.04 0.01 0.04 0.07 0.04 0.03 0.03 0.06 0.06 0.08 0.06 0.08 0.13 0.11 0.05 0.10 0.10 0.11 0.11 0.14 0.12 0.13 0.12 0.10 0.11 0.10 0.09 0.09 0.06 0.06 0.09 0.07 0.04 0.05 0.06 0.08 0.15 0.23 0.25 0.18 0.11 0.12 0.15 0.18 0.19 0.14 0.12 0.10 0.11 0.10 0.14 0.20
0.05 0.02 0.03 0.07 0.09 0.11 0.10 0.09 0.09 0.08 0.08 0.09 0.11 0.10 0.16 0.09 0.10 0.13 0.16 0.18 0.13 0.10 0.07 0.07 0.07 0.06 0.07 0.08 0.07 0.07 0.06 0.04 0.02 0.02 0.02 0.06 0.07 0.09 0.09 0.13 0.14 0.12 0.11 0.12 0.15 0.14 0.16 0.18 0.18 0.17 0.19 0.20 0.19 0.17
0.04 0.04 0.05 0.06 0.14 0.18 0.17 0.14 0.16 0.15 0.14 0.16 0.14 0.14 0.15 0.13 0.21 0.20 0.20 0.16 0.13 0.08 0.07 0.08 0.09 0.07 0.04 0.02 0.02 0.05 0.06 0.06 0.09 0.11 0.10 0.12 0.18 0.15 0.09 0.09 0.09 0.10 0.10 0.10 0.12 0.19 0.20 0.22 0.20 0.22 0.25 0.23 0.22 0.25
0.08 0.16 0.18 0.11 0.15 0.21 0.22 0.20 0.20 0.18 0.16 0.15 0.11 0.12 0.10 0.12 0.18 0.16 0.11 0.09 0.07 0.07 0.08 0.07 0.08 0.06 0.06 0.05 0.04 0.06 0.11 0.11 0.15 0.21 0.19 0.14 0.15 0.13 0.12 0.14 0.15 0.15 0.16 0.20 0.18 0.14 0.16 0.17 0.19 0.29 0.28 0.27 0.30 0.31
0.15 0.17 0.15 0.15 0.14 0.14 0.14 0.14 0.14 0.10 0.07 0.06 0.06 0.11 0.13 0.11 0.15 0.10 0.08 0.11 0.07 0.07 0.05 0.04 0.05 0.09 0.10 0.10 0.13 0.12 0.15 0.17 0.12 0.13 0.16 0.17 0.19 0.20 0.21 0.19 0.19 0.19 0.19 0.19 0.17 0.18 0.20 0.22 0.27 0.28 0.22 0.20 0.21 0.19
0.07 0.09 0.10 0.12 0.09 0.10 0.10 0.16 0.17 0.11 0.09 0.06 0.07 0.06 0.09 0.09 0.12 0.17 0.12 0.09 0.05 0.05 0.08 0.09 0.10 0.12 0.16 0.17 0.20 0.18 0.18 0.17 0.14 0.15 0.18 0.20 0.21 0.19 0.17 0.16 0.16 0.15 0.14 0.13 0.13 0.13 0.13 0.14 0.16 0.13 0.13 0.11 0.12 0.10
0.08 0.09 0.11 0.11 0.08 0.05 0.04 0.07 0.09 0.07 0.04 0.05 0.07 0.08 0.09 0.12 0.22 0.24 0.13 0.09 0.13 0.15 0.16 0.18 0.20 0.23 0.26 0.23 0.22 0.20 0.16 0.15 0.14 0.13 0.14 0.14 0.13 0.10 0.10 0.10 0.11 0.11 0.10 0.10 0.10 0.11 0.09 0.09 0.10 0.12 0.11 0.11 0.10 0.07

GFSWCAN_prec_precacc_060.txt.gz
Total_Precipitation_Accumulation
1.17 0.73 0.39 0.24 0.19 0.28 0.20 0.17 0.17 0.22 0.26 0.16 0.11 0.10 0.09 0.08 0.09 0.15 0.25 0.39 0.54 0.47 0.07 0.05 0.00 0.00 0.01 0.03 0.08 0.05 0.07 0.10 0.15 0.19 0.13 0.02 0.02 0.01 0.01 0.00 0.01 0.03 0.09 0.10 0.07 0.16 0.06 0.00 0.03 0.15 0.18 0.08 0.08 0.07
1.07 0.81 0.44 0.26 0.28 0.26 0.18 0.17 0.16 0.18 0.26 0.17 0.11 0.12 0.08 0.04 0.06 0.16 0.29 0.39 0.40 0.68 0.28 0.09 0.02 0.00 0.00 0.00 0.06 0.10 0.05 0.04 0.10 0.08 0.06 0.04 0.02 0.02 0.00 0.02 0.00 0.01 0.01 0.02 0.04 0.03 0.00 0.00 0.03 0.02 0.04 0.10 0.07 0.07
1.24 0.71 0.51 0.37 0.25 0.25 0.19 0.18 0.13 0.15 0.24 0.17 0.14 0.13 0.06 0.03 0.08 0.16 0.29 0.47 0.63 0.57 0.32 0.19 0.06 0.00 0.00 0.00 0.05 0.17 0.06 0.04 0.07 0.11 0.19 0.10 0.14 0.06 0.05 0.04 0.01 0.04 0.02 0.02 0.02 0.01 0.00 0.01 0.01 0.02 0.06 0.08 0.13 0.20
1.16 0.94 0.62 0.39 0.30 0.31 0.21 0.17 0.12 0.18 0.23 0.18 0.10 0.08 0.04 0.02 0.07 0.23 0.35 0.52 0.92 0.96 0.52 0.33 0.09 0.00 0.02 0.03 0.01 0.11 0.10 0.12 0.20 0.25 0.26 0.20 0.25 0.12 0.07 0.02 0.05 0.08 0.06 0.03 0.05 0.01 0.02 0.04 0.07 0.14 0.21 0.31 0.29 0.19
0.99 0.85 0.67 0.49 0.46 0.40 0.21 0.11 0.13 0.20 0.20 0.13 0.09 0.06 0.04 0.04 0.12 0.39 0.48 0.46 0.95 1.19 0.64 0.31 0.17 0.02 0.02 0.03 0.04 0.15 0.33 0.31 0.30 0.25 0.17 0.07 0.02 0.04 0.06 0.09 0.13 0.06 0.03 0.06 0.10 0.06 0.23 0.22 0.33 0.42 0.38 0.27 0.15 0.09
0.74 0.68 0.62 0.57 0.49 0.40 0.21 0.16 0.16 0.20 0.25 0.16 0.12 0.09 0.12 0.21 0.51 1.27 1.18 0.51 0.80 0.95 1.25 0.65 0.29 0.10 0.04 0.04 0.06 0.04 0.11 0.44 0.62 0.33 0.13 0.03 0.01 0.11 0.26 0.14 0.02 0.00 0.01 0.11 0.16 0.13 0.22 0.32 0.34 0.22 0.20 0.13 0.04 0.01
0.74 0.67 0.58 0.52 0.49 0.39 0.33 0.29 0.25 0.24 0.21 0.18 0.16 0.22 0.35 0.63 1.19 1.65 1.11 0.58 0.53 0.91 1.55 1.03 0.45 0.16 0.06 0.04 0.06 0.08 0.10 0.17 0.28 0.32 0.26 0.09 0.04 0.31 0.41 0.16 0.01 0.00 0.01 0.04 0.05 0.10 0.20 0.20 0.19 0.14 0.06 0.01 0.00 0.00
0.83 0.71 0.59 0.46 0.44 0.38 0.39 0.42 0.32 0.29 0.31 0.25 0.24 0.34 0.68 1.53 1.93 1.58 1.12 1.12 0.75 0.77 0.96 0.97 0.38 0.14 0.04 0.05 0.05 0.03 0.06 0.08 0.09 0.11 0.13 0.10 0.06 0.17 0.26 0.04 0.00 0.00 0.00 0.00 0.01 0.03 0.09 0.04 0.01 0.01 0.00 0.00 0.00 0.01
0.81 0.62 0.45 0.32 0.33 0.43 0.33 0.35 0.42 0.41 0.44 0.46 0.62 0.98 1.24 1.38 1.31 1.10 1.32 1.43 1.27 1.14 1.15 0.74 0.29 0.10 0.08 0.08 0.07 0.07 0.11 0.17 0.12 0.07 0.04 0.07 0.04 0.06 0.02 0.00 0.00 0.00 0.01 0.01 0.00 0.00 0.00 0.00 0.00 0.01 0.01 0.03 0.05 0.04
0.45 0.38 0.35 0.27 0.27 0.34 0.25 0.24 0.39 0.62 0.85 1.04 1.21 1.39 1.57 1.49 1.31 0.94 1.26 1.35 1.42 1.37 1.11 0.54 0.27 0.27 0.10 0.12 0.18 0.22 0.33 0.27 0.20 0.04 0.05 0.08 0.04 0.01 0.00 0.00 0.00 0.00 0.01 0.00 0.00 0.01 0.03 0.04 0.07 0.07 0.06 0.03 0.00 0.00
0.55 0.44 0.38 0.28 0.24 0.33 0.25 0.21 0.42 1.24 2.15 2.11 1.77 1.56 1.34 1.47 1.04 1.09 1.10 0.82 0.67 0.48 0.34 0.17 0.10 0.20 0.18 0.21 0.36 0.42 0.37 0.21 0.19 0.03 0.11 0.08 0.02 0.01 0.01 0.01 0.01 0.00 0.01 0.01 0.01 0.02 0.06 0.11 0.06 0.01 0.00 0.00 0.00 0.00
0.68 0.60 0.47 0.37 0.30 0.36 0.31 0.32 0.67 1.18 1.80 1.72 1.13 1.06 1.23 1.24 1.05 1.00 0.88 0.51 0.22 0.10 0.04 0.03 0.03 0.12 0.30 0.26 0.38 0.48 0.29 0.20 0.12 0.03 0.10 0.08 0.02 0.01 0.02 0.02 0.01 0.01 0.01 0.03 0.07 0.08 0.04 0.00 0.00 0.00 0.00 0.00 0.00 0.00
0.84 0.78 0.72 0.64 0.50 0.50 0.47 0.43 0.49 0.88 1.10 1.28 1.43 1.71 1.63 1.73 1.32 0.79 0.35 0.18 0.10 0.04 0.04 0.02 0.05 0.08 0.21 0.26 0.50 0.48 0.50 0.37 0.15 0.19 0.10 0.04 0.03 0.02 0.03 0.03 0.03 0.02 0.02 0.02 0.00 0.00 0.00 0.00 0.00 0.00 0.00 0.00 0.00 0.00
0.88 0.80 0.70 0.76 0.69 0.61 0.58 0.59 0.62 0.41 0.62 1.38 1.83 1.96 1.55 1.35 0.78 0.41 0.13 0.05 0.05 0.06 0.05 0.03 0.07 0.09 0.17 0.26 0.50 0.58 0.61 0.31 0.34 0.17 0.08 0.12 0.11 0.09 0.05 0.03 0.00 0.00 0.00 0.00 0.00 0.00 0.00 0.00 0.00 0.00 0.00 0.00 0.00 0.00
0.64 0.53 0.55 0.66 0.59 0.46 0.44 0.40 0.29 0.16 0.31 0.66 0.75 0.94 0.80 0.54 0.31 0.18 0.12 0.08 0.09 0.09 0.10 0.15 0.25 0.23 0.25 0.46 0.51 0.41 0.38 0.28 0.21 0.24 0.34 0.32 0.10 0.01 0.00 0.00 0.00 0.00 0.00 0.00 0.00 0.00 0.00 0.00 0.00 0.00 0.00 0.00 0.00 0.00
0.30 0.34 0.42 0.42 0.37 0.33 0.35 0.32 0.23 0.22 0.25 0.29 0.37 0.40 0.35 0.29 0.31 0.24 0.22 0.21 0.22 0.27 0.28 0.33 0.34 0.36 0.44 0.33 0.26 0.27 0.28 0.27 0.33 0.17 0.14 0.09 0.08 0.02 0.00 0.00 0.00 0.00 0.00 0.00 0.00 0.00 0.00 0.00 0.00 0.01 0.01 0.01 0.02 0.01
0.17 0.22 0.17 0.15 0.16 0.14 0.17 0.39 0.39 0.50 0.56 0.33 0.21 0.16 0.15 0.13 0.17 0.19 0.20 0.22 0.22 0.22 0.22 0.21 0.18 0.21 0.23 0.23 0.19 0.17 0.23 0.15 0.05 0.04 0.09 0.06 0.03 0.00 0.00 0.00 0.01 0.00 0.00 0.00 0.00 0.00 0.01 0.01 0.03 0.04 0.04 0.02 0.01 0.01
0.15 0.05 0.02 0.04 0.07 0.08 0.14 0.24 0.31 0.28 0.25 0.30 0.23 0.24 0.14 0.13 0.09 0.08 0.05 0.04 0.03 0.04 0.04 0.05 0.04 0.06 0.09 0.09 0.14 0.05 0.03 0.03 0.04 0.05 0.08 0.07 0.03 0.03 0.01 0.00 0.00 0.00 0.00 0.00 0.00 0.02 0.03 0.03 0.05 0.04 0.02 0.01 0.02 0.03
0.10 0.07 0.02 0.04 0.06 0.06 0.15 0.15 0.15 0.10 0.17 0.25 0.35 0.33 0.24 0.25 0.25 0.19 0.13 0.07 0.04 0.03 0.06 0.05 0.06 0.05 0.07 0.07 0.08 0.07 0.06 0.06 0.07 0.10 0.18 0.22 0.15 0.10 0.07 0.04 0.02 0.00 0.01 0.01 0.02 0.04 0.03 0.02 0.02 0.02 0.03 0.05 0.07 0.07
0.24 0.27 0.17 0.11 0.07 0.11 0.05 0.06 0.03 0.06 0.16 0.19 0.25 0.25 0.20 0.25 0.23 0.15 0.08 0.07 0.06 0.11 0.16 0.16 0.17 0.19 0.18 0.17 0.11 0.09 0.09 0.08 0.06 0.09 0.16 0.20 0.17 0.11 0.11 0.08 0.04 0.02 0.02 0.01 0.03 0.05 0.05 0.04 0.02 0.04 0.08 0.10 0.13 0.10
0.51 0.60 0.47 0.20 0.14 0.13 0.05 0.03 0.05 0.08 0.10 0.15 0.24 0.15 0.22 0.16 0.14 0.10 0.07 0.05 0.09 0.15 0.19 0.25 0.28 0.33 0.27 0.16 0.11 0.09 0.10 0.07 0.06 0.05 0.05 0.09 0.10 0.05 0.06 0.06 0.04 0.05 0.05 0.05 0.05 0.05 0.07 0.07 0.06 0.07 0.09 0.12 0.12 0.11
0.50 0.38 0.36 0.26 0.17 0.04 0.03 0.02 0.04 0.06 0.07 0.16 0.16 0.13 0.17 0.18 0.16 0.11 0.04 0.06 0.14 0.20 0.22 0.21 0.20 0.18 0.14 0.13 0.11 0.07 0.05 0.03 0.03 0.03 0.03 0.02 0.04 0.04 0.03 0.03 0.05 0.06 0.08 0.09 0.09 0.12 0.10 0.07 0.09 0.09 0.08 0.06 0.06 0.08
0.40 0.33 0.32 0.33 0.23 0.14 0.10 0.03 0.04 0.05 0.06 0.10 0.09 0.09 0.12 0.11 0.10 0.03 0.04 0.07 0.15 0.20 0.18 0.13 0.11 0.09 0.09 0.09 0.04 0.04 0.03 0.01 0.02 0.03 0.03 0.03 0.03 0.02 0.02 0.04 0.06 0.10 0.12 0.07 0.09 0.10 0.09 0.08 0.08 0.08 0.06 0.05 0.06 0.08
0.34 0.38 0.39 0.31 0.23 0.18 0.08 0.05 0.04 0.03 0.05 0.05 0.06 0.05 0.07 0.09 0.06 0.04 0.06 0.12 0.21 0.14 0.12 0.14 0.09 0.06 0.03 0.02 0.04 0.06 0.08 0.05 0.04 0.04 0.04 0.06 0.03 0.04 0.06 0.07 0.09 0.09 0.10 0.08 0.07 0.06 0.08 0.08 0.08 0.08 0.10 0.16 0.18 0.17
0.69 0.57 0.31 0.19 0.08 0.07 0.04 0.05 0.04 0.03 0.05 0.03 0.03 0.04 0.05 0.06 0.04 0.05 0.07 0.17 0.12 0.12 0.16 0.17 0.13 0.12 0.11 0.11 0.09 0.09 0.10 0.10 0.06 0.06 0.07 0.10 0.14 0.14 0.11 0.09 0.09 0.09 0.07 0.08 0.13 0.17 0.13 0.14 0.18 0.20 0.17 0.15 0.13 0.10
0.53 0.25 0.12 0.06 0.06 0.04 0.02 0.02 0.02 0.03 0.04 0.04 0.04 0.04 0.06 0.06 0.05 0.06 0.10 0.18 0.15 0.14 0.15 0.17 0.19 0.14 0.13 0.13 0.12 0.11 0.13 0.11 0.10 0.10 0.10 0.12 0.14 0.17 0.20 0.17 0.13 0.08 0.07 0.11 0.17 0.18 0.14 0.11 0.10 0.10 0.09 0.07 0.10 0.13
0.27 0.12 0.05 0.02 0.05 0.07 0.04 0.03 0.03 0.06 0.07 0.08 0.07 0.09 0.14 0.11 0.06 0.11 0.11 0.12 0.12 0.16 0.13 0.14 0.13 0.11 0.11 0.11 0.10 0.11 0.07 0.06 0.09 0.08 0.05 0.06 0.06 0.08 0.15 0.23 0.25 0.18 0.11 0.12 0.15 0.18 0.19 0.14 0.12 0.10 0.11 0.10 0.14 0.20
0.06 0.02 0.04 0.07 0.09 0.11 0.10 0.09 0.09 0.09 0.09 0.09 0.11 0.10 0.16 0.10 0.12 0.15 0.19 0.20 0.14 0.10 0.08 0.07 0.07 0.06 0.07 0.08 0.08 0.07 0.06 0.04 0.02 0.02 0.02 0.06 0.07 0.09 0.09 0.13 0.14 0.12 0.11 0.13 0.15 0.15 0.16 0.18 0.18 0.18 0.19 0.21 0.19 0.17
0.06 0.05 0.05 0.06 0.14 0.18 0.17 0.15 0.16 0.16 0.14 0.16 0.15 0.14 0.15 0.16 0.24 0.22 0.22 0.18 0.14 0.08 0.07 0.08 0.10 0.07 0.04 0.02 0.02 0.05 0.06 0.06 0.09 0.11 0.10 0.12 0.19 0.15 0.09 0.09 0.09 0.10 0.10 0.10 0.12 0.19 0.20 0.22 0.20 0.22 0.25 0.23 0.22 0.25
0.10 0.16 0.18 0.11 0.15 0.22 0.24 0.21 0.21 0.19 0.16 0.15 0.12 0.12 0.10 0.14 0.21 0.17 0.12 0.09 0.07 0.08 0.09 0.08 0.08 0.06 0.07 0.05 0.04 0.06 0.11 0.11 0.15 0.21 0.19 0.14 0.15 0.13 0.12 0.15 0.15 0.15 0.16 0.20 0.18 0.14 0.16 0.17 0.19 0.29 0.28 0.27 0.30 0.31
0.15 0.17 0.16 0.15 0.16 0.16 0.15 0.15 0.14 0.10 0.07 0.06 0.06 0.11 0.13 0.13 0.16 0.11 0.09 0.12 0.08 0.07 0.05 0.04 0.05 0.09 0.10 0.10 0.13 0.12 0.15 0.17 0.12 0.13 0.16 0.17 0.19 0.20 0.21 0.19 0.19 0.19 0.19 0.19 0.17 0.18 0.20 0.22 0.27 0.28 0.23 0.20 0.21 0.20
0.07 0.09 0.11 0.12 0.11 0.12 0.12 0.19 0.17 0.11 0.09 0.07 0.07 0.06 0.09 0.09 0.12 0.18 0.12 0.09 0.05 0.05 0.08 0.09 0.10 0.12 0.16 0.17 0.20 0.19 0.18 0.17 0.14 0.15 0.18 0.20 0.21 0.19 0.17 0.16 0.16 0.15 0.14 0.13 0.13 0.13 0.13 0.14 0.16 0.13 0.13 0.11 0.12 0.10
0.08 0.09 0.11 0.11 0.09 0.07 0.06 0.08 0.09 0.07 0.04 0.05 0.08 0.08 0.09 0.12 0.23 0.25 0.14 0.10 0.13 0.15 0.16 0.18 0.20 0.24 0.26 0.23 0.22 0.20 0.16 0.15 0.14 0.13 0.14 0.14 0.13 0.10 0.10 0.10 0.11 0.11 0.10 0.10 0.11 0.11 0.09 0.09 0.10 0.12 0.11 0.11 0.10 0.08

GFSWCAN_prec_precacc_063.txt.gz
Total_Precipitation_Accumulation
1.27 0.81 0.50 0.39 0.38 0.47 0.35 0.25 0.21 0.23 0.26 0.16 0.11 0.10 0.10 0.10 0.19 0.26 0.28 0.49 0.66 0.53 0.11 0.07 0.00 0.00 0.01 0.03 0.08 0.05 0.07 0.10 0.17 0.22 0.14 0.03 0.02 0.01 0.01 0.00 0.01 0.03 0.09 0.10 0.07 0.16 0.06 0.00 0.03 0.15 0.18 0.08 0.08 0.07
1.14 0.91 0.59 0.43 0.47 0.42 0.27 0.22 0.17 0.18 0.26 0.17 0.12 0.12 0.10 0.07 0.13 0.23 0.31 0.45 0.52 0.78 0.31 0.12 0.02 0.00 0.00 0.00 0.06 0.10 0.05 0.04 0.10 0.10 0.07 0.04 0.02 0.02 0.00 0.02 0.00 0.01 0.01 0.02 0.04 0.03 0.00 0.00 0.03 0.02 0.04 0.10 0.07 0.07
1.34 0.82 0.62 0.49 0.36 0.32 0.24 0.20 0.14 0.15 0.25 0.17 0.14 0.14 0.11 0.07 0.14 0.24 0.31 0.50 0.72 0.70 0.34 0.21 0.10 0.00 0.00 0.00 0.05 0.17 0.06 0.05 0.09 0.14 0.23 0.12 0.15 0.06 0.05 0.04 0.01 0.04 0.02 0.02 0.02 0.01 0.00 0.01 0.01 0.02 0.06 0.08 0.13 0.20
1.21 1.00 0.67 0.44 0.35 0.33 0.22 0.17 0.12 0.19 0.28 0.19 0.12 0.13 0.13 0.06 0.14 0.31 0.36 0.57 0.98 1.13 0.61 0.35 0.17 0.05 0.03 0.03 0.01 0.11 0.11 0.13 0.24 0.31 0.32 0.21 0.26 0.13 0.07 0.02 0.05 0.08 0.06 0.03 0.05 0.01 0.02 0.04 0.07 0.14 0.21 0.31 0.29 0.19
1.01 0.86 0.68 0.50 0.47 0.40 0.22 0.12 0.15 0.28 0.31 0.19 0.14 0.15 0.16 0.10 0.21 0.44 0.49 0.51 0.99 1.35 0.77 0.33 0.21 0.06 0.09 0.08 0.04 0.16 0.33 0.31 0.35 0.31 0.20 0.07 0.02 0.04 0.06 0.09 0.13 0.06 0.03 0.06 0.10 0.06 0.23 0.22 0.33 0.42 0.38 0.27 0.15 0.09
0.77 0.72 0.66 0.60 0.51 0.42 0.25 0.22 0.25 0.36 0.34 0.20 0.16 0.21 0.23 0.27 0.55 1.28 1.21 0.57 0.86 1.06 1.40 0.68 0.30 0.12 0.14 0.16 0.11 0.09 0.18 0.49 0.65 0.36 0.14 0.03 0.02 0.11 0.26 0.14 0.02 0.00 0.01 0.11 0.16 0.13 0.22 0.32 0.34 0.22 0.20 0.13 0.04 0.01
0.78 0.71 0.62 0.56 0.54 0.46 0.42 0.39 0.37 0.36 0.26 0.21 0.20 0.31 0.41 0.66 1.21 1.66 1.13 0.61 0.56 0.95 1.62 1.07 0.46 0.17 0.11 0.13 0.11 0.12 0.16 0.25 0.36 0.39 0.32 0.16 0.09 0.32 0.41 0.16 0.01 0.00 0.01 0.04 0.05 0.10 0.20 0.20 0.19 0.14 0.06 0.01 0.00 0.00
0.83 0.71 0.60 0.47 0.46 0.41 0.43 0.46 0.37 0.33 0.32 0.27 0.26 0.36 0.68 1.57 1.96 1.59 1.24 1.26 0.79 0.80 1.08 1.12 0.46 0.22 0.07 0.07 0.08 0.05 0.09 0.12 0.17 0.21 0.21 0.19 0.16 0.28 0.31 0.04 0.00 0.00 0.00 0.00 0.01 0.03 0.09 0.04 0.01 0.01 0.00 0.00 0.00 0.01
0.81 0.62 0.45 0.32 0.33 0.43 0.33 0.35 0.42 0.41 0.44 0.46 0.62 0.99 1.29 1.47 1.36 1.13 1.64 1.84 1.45 1.31 1.34 0.88 0.42 0.29 0.13 0.09 0.08 0.08 0.12 0.22 0.17 0.10 0.08 0.13 0.11 0.15 0.10 0.01 0.00 0.00 0.01 0.02 0.00 0.00 0.00 0.00 0.00 0.01 0.01 0.03 0.05 0.04
0.45 0.38 0.35 0.27 0.27 0.34 0.25 0.24 0.39 0.62 0.86 1.06 1.28 1.53 1.67 1.59 1.37 1.01 1.54 1.77 1.80 1.59 1.23 0.61 0.32 0.48 0.16 0.12 0.19 0.23 0.33 0.29 0.21 0.04 0.05 0.08 0.04 0.01 0.00 0.00 0.00 0.00 0.01 0.01 0.01 0.02 0.04 0.05 0.07 0.07 0.06 0.03 0.00 0.00
0.56 0.45 0.38 0.28 0.24 0.33 0.25 0.21 0.42 1.25 2.18 2.18 1.93 1.74 1.45 1.60 1.19 1.31 1.47 1.28 0.90 0.56 0.38 0.19 0.11 0.28 0.26 0.23 0.37 0.42 0.37 0.21 0.19 0.03 0.11 0.08 0.02 0.01 0.01 0.01 0.01 0.01 0.01 0.01 0.01 0.02 0.06 0.11 0.06 0.01 0.00 0.00 0.00 0.00
0.71 0.61 0.47 0.37 0.30 0.36 0.31 0.33 0.69 1.21 1.86 1.91 1.32 1.17 1.36 1.45 1.32 1.23 1.21 0.84 0.31 0.11 0.05 0.04 0.03 0.12 0.31 0.27 0.38 0.48 0.29 0.20 0.12 0.03 0.10 0.08 0.02 0.01 0.02 0.02 0.01 0.01 0.01 0.04 0.08 0.08 0.05 0.01 0.00 0.00 0.00 0.00 0.00 0.00
0.89 0.80 0.72 0.65 0.50 0.50 0.47 0.45 0.53 0.98 1.40 1.59 1.51 1.79 1.78 1.93 1.50 0.94 0.47 0.23 0.11 0.04 0.04 0.02 0.05 0.08 0.21 0.26 0.50 0.48 0.50 0.37 0.15 0.19 0.10 0.04 0.03 0.02 0.03 0.03 0.03 0.02 0.03 0.02 0.02 0.02 0.02 0.00 0.00 0.00 0.00 0.00 0.00 0.00
0.94 0.84 0.73 0.77 0.72 0.64 0.62 0.66 0.76 0.72 0.93 1.55 2.00 2.11 1.79 1.45 0.84 0.44 0.13 0.05 0.05 0.06 0.05 0.03 0.07 0.09 0.17 0.26 0.51 0.62 0.64 0.32 0.35 0.17 0.08 0.12 0.11 0.09 0.05 0.03 0.01 0.02 0.02 0.03 0.04 0.01 0.00 0.00 0.00 0.00 0.00 0.00 0.00 0.00
0.70 0.58 0.61 0.73 0.64 0.54 0.56 0.56 0.45 0.31 0.45 0.88 0.92 1.04 0.91 0.56 0.31 0.19 0.12 0.08 0.09 0.10 0.10 0.15 0.25 0.23 0.25 0.47 0.52 0.44 0.42 0.31 0.22 0.24 0.34 0.32 0.10 0.01 0.00 0.00 0.01 0.01 0.01 0.00 0.00 0.00 0.00 0.00 0.00 0.00 0.00 0.00 0.00 0.00
0.33 0.35 0.47 0.52 0.48 0.47 0.50 0.45 0.33 0.29 0.33 0.35 0.42 0.43 0.36 0.29 0.31 0.25 0.22 0.21 0.23 0.27 0.28 0.33 0.34 0.36 0.44 0.33 0.26 0.27 0.28 0.27 0.33 0.17 0.14 0.09 0.08 0.02 0.00 0.00 0.00 0.00 0.00 0.00 0.00 0.00 0.00 0.00 0.00 0.01 0.01 0.01 0.02 0.01
0.20 0.24 0.24 0.24 0.27 0.27 0.26 0.42 0.40 0.51 0.56 0.33 0.23 0.17 0.15 0.15 0.19 0.20 0.21 0.23 0.22 0.22 0.22 0.21 0.18 0.21 0.23 0.23 0.19 0.18 0.23 0.15 0.05 0.04 0.09 0.06 0.03 0.01 0.01 0.02 0.02 0.00 0.00 0.01 0.01 0.00 0.01 0.01 0.03 0.04 0.04 0.02 0.01 0.01
0.23 0.10 0.05 0.07 0.10 0.11 0.15 0.24 0.31 0.28 0.25 0.31 0.24 0.26 0.16 0.15 0.12 0.11 0.07 0.05 0.03 0.04 0.04 0.05 0.04 0.06 0.09 0.10 0.14 0.06 0.04 0.04 0.05 0.05 0.08 0.07 0.04 0.05 0.02 0.01 0.01 0.00 0.00 0.00 0.00 0.02 0.03 0.03 0.05 0.04 0.02 0.01 0.02 0.03
0.13 0.09 0.04 0.06 0.07 0.07 0.18 0.18 0.16 0.11 0.20 0.29 0.39 0.36 0.26 0.27 0.28 0.23 0.16 0.08 0.04 0.03 0.06 0.05 0.07 0.05 0.08 0.09 0.11 0.09 0.10 0.10 0.11 0.17 0.28 0.32 0.23 0.15 0.12 0.08 0.03 0.01 0.01 0.01 0.02 0.04 0.03 0.02 0.02 0.02 0.03 0.05 0.07 0.07
0.24 0.27 0.17 0.11 0.08 0.13 0.06 0.08 0.04 0.06 0.19 0.23 0.30 0.29 0.23 0.32 0.29 0.21 0.13 0.11 0.07 0.11 0.17 0.18 0.22 0.25 0.25 0.24 0.18 0.17 0.18 0.17 0.12 0.16 0.26 0.31 0.27 0.19 0.17 0.12 0.06 0.03 0.02 0.02 0.03 0.05 0.06 0.05 0.03 0.04 0.08 0.10 0.13 0.10
0.51 0.60 0.47 0.20 0.14 0.13 0.06 0.04 0.06 0.09 0.13 0.19 0.30 0.18 0.28 0.20 0.17 0.12 0.08 0.05 0.10 0.18 0.25 0.33 0.37 0.46 0.39 0.27 0.23 0.19 0.19 0.13 0.11 0.08 0.09 0.14 0.17 0.09 0.10 0.10 0.07 0.07 0.07 0.07 0.07 0.08 0.10 0.09 0.07 0.07 0.09 0.12 0.12 0.11
0.50 0.38 0.36 0.26 0.17 0.04 0.04 0.04 0.05 0.08 0.09 0.20 0.20 0.15 0.21 0.22 0.19 0.13 0.05 0.07 0.17 0.28 0.34 0.33 0.32 0.30 0.22 0.22 0.20 0.15 0.13 0.07 0.06 0.06 0.05 0.03 0.06 0.06 0.06 0.06 0.06 0.08 0.10 0.11 0.11 0.13 0.11 0.07 0.09 0.09 0.08 0.06 0.06 0.08
0.40 0.33 0.32 0.33 0.23 0.14 0.11 0.03 0.05 0.08 0.09 0.15 0.14 0.13 0.16 0.16 0.14 0.04 0.06 0.12 0.21 0.29 0.30 0.22 0.20 0.19 0.16 0.17 0.09 0.08 0.07 0.02 0.03 0.04 0.04 0.04 0.04 0.04 0.04 0.06 0.08 0.12 0.13 0.10 0.10 0.11 0.10 0.08 0.08 0.08 0.06 0.05 0.06 0.08
0.34 0.38 0.39 0.31 0.23 0.18 0.08 0.05 0.05 0.07 0.08 0.08 0.08 0.09 0.14 0.14 0.08 0.05 0.09 0.16 0.28 0.22 0.17 0.19 0.14 0.09 0.06 0.04 0.06 0.08 0.11 0.06 0.05 0.05 0.06 0.07 0.04 0.06 0.07 0.09 0.10 0.10 0.11 0.09 0.08 0.06 0.08 0.08 0.08 0.08 0.10 0.16 0.18 0.17
0.69 0.57 0.31 0.19 0.08 0.07 0.04 0.05 0.05 0.05 0.08 0.07 0.06 0.09 0.11 0.08 0.06 0.07 0.10 0.21 0.16 0.15 0.20 0.21 0.15 0.14 0.13 0.13 0.11 0.11 0.12 0.11 0.06 0.06 0.09 0.11 0.15 0.15 0.11 0.10 0.10 0.09 0.08 0.08 0.13 0.17 0.13 0.14 0.18 0.20 0.17 0.15 0.13 0.10
0.53 0.25 0.12 0.06 0.06 0.04 0.02 0.02 0.03 0.04 0.04 0.05 0.06 0.08 0.08 0.06 0.05 0.08 0.12 0.21 0.17 0.16 0.17 0.19 0.20 0.15 0.13 0.14 0.12 0.12 0.14 0.11 0.10 0.10 0.11 0.13 0.14 0.18 0.21 0.18 0.13 0.08 0.07 0.11 0.17 0.18 0.14 0.11 0.10 0.10 0.09 0.07 0.10 0.13
0.28 0.12 0.05 0.03 0.05 0.08 0.05 0.04 0.04 0.06 0.07 0.09 0.08 0.10 0.14 0.11 0.06 0.13 0.13 0.13 0.13 0.17 0.15 0.14 0.13 0.11 0.12 0.11 0.11 0.12 0.07 0.06 0.09 0.08 0.05 0.06 0.06 0.08 0.15 0.23 0.25 0.18 0.11 0.12 0.15 0.18 0.19 0.14 0.12 0.10 0.11 0.10 0.14 0.20
0.07 0.03 0.04 0.07 0.09 0.11 0.11 0.09 0.09 0.09 0.10 0.10 0.12 0.11 0.16 0.10 0.13 0.17 0.21 0.21 0.15 0.11 0.08 0.07 0.07 0.06 0.08 0.08 0.08 0.08 0.07 0.04 0.02 0.02 0.02 0.06 0.07 0.09 0.09 0.13 0.15 0.13 0.11 0.13 0.15 0.15 0.16 0.18 0.19 0.18 0.19 0.21 0.19 0.17
0.06 0.05 0.05 0.06 0.14 0.18 0.18 0.15 0.17 0.17 0.15 0.17 0.15 0.15 0.16 0.17 0.27 0.25 0.25 0.20 0.15 0.08 0.07 0.08 0.10 0.07 0.04 0.02 0.02 0.05 0.06 0.06 0.09 0.11 0.10 0.12 0.19 0.15 0.09 0.09 0.09 0.10 0.10 0.10 0.12 0.19 0.20 0.22 0.20 0.22 0.25 0.23 0.22 0.26
0.10 0.16 0.18 0.11 0.16 0.22 0.26 0.22 0.21 0.19 0.16 0.15 0.12 0.13 0.11 0.16 0.25 0.19 0.13 0.10 0.07 0.08 0.09 0.08 0.09 0.06 0.07 0.05 0.04 0.06 0.11 0.11 0.15 0.21 0.19 0.14 0.15 0.13 0.12 0.15 0.15 0.15 0.16 0.20 0.18 0.14 0.16 0.17 0.19 0.29 0.28 0.27 0.30 0.31
0.15 0.17 0.16 0.15 0.17 0.16 0.15 0.15 0.14 0.10 0.07 0.06 0.06 0.11 0.14 0.14 0.17 0.12 0.10 0.13 0.08 0.08 0.05 0.04 0.05 0.09 0.10 0.10 0.13 0.12 0.15 0.17 0.12 0.13 0.16 0.17 0.19 0.20 0.21 0.19 0.19 0.19 0.19 0.19 0.17 0.18 0.20 0.22 0.27 0.28 0.23 0.20 0.21 0.20
0.07 0.09 0.11 0.12 0.13 0.14 0.13 0.19 0.17 0.11 0.09 0.07 0.08 0.06 0.10 0.09 0.13 0.18 0.13 0.09 0.05 0.05 0.08 0.09 0.10 0.13 0.16 0.17 0.20 0.19 0.18 0.17 0.14 0.16 0.19 0.20 0.21 0.19 0.17 0.16 0.16 0.15 0.14 0.13 0.13 0.13 0.13 0.14 0.16 0.13 0.13 0.11 0.12 0.10
0.08 0.09 0.11 0.11 0.10 0.08 0.09 0.10 0.10 0.07 0.05 0.06 0.08 0.09 0.09 0.12 0.23 0.26 0.15 0.10 0.13 0.15 0.16 0.18 0.21 0.24 0.26 0.23 0.22 0.20 0.16 0.15 0.14 0.13 0.14 0.14 0.13 0.10 0.10 0.10 0.11 0.11 0.10 0.10 0.11 0.11 0.09 0.09 0.10 0.12 0.11 0.11 0.10 0.08

GFSWCAN_prec_precacc_066.txt.gz
Total_Precipitation_Accumulation
1.28 0.83 0.53 0.42 0.40 0.50 0.45 0.49 0.41 0.34 0.32 0.19 0.12 0.11 0.11 0.11 0.23 0.39 0.43 0.55 0.73 0.65 0.15 0.11 0.02 0.00 0.01 0.03 0.08 0.05 0.07 0.10 0.17 0.22 0.15 0.04 0.02 0.01 0.02 0.00 0.01 0.03 0.09 0.10 0.07 0.16 0.06 0.00 0.03 0.15 0.18 0.08 0.08 0.07
1.18 0.94 0.62 0.46 0.51 0.49 0.41 0.45 0.33 0.27 0.31 0.19 0.13 0.13 0.11 0.09 0.18 0.38 0.44 0.59 0.57 0.84 0.34 0.14 0.03 0.00 0.00 0.00 0.06 0.10 0.05 0.04 0.10 0.10 0.07 0.05 0.02 0.02 0.00 0.02 0.00 0.01 0.01 0.02 0.04 0.03 0.00 0.00 0.03 0.02 0.04 0.10 0.07 0.07
1.42 0.91 0.72 0.60 0.49 0.49 0.42 0.40 0.26 0.22 0.29 0.19 0.16 0.16 0.13 0.10 0.18 0.35 0.40 0.65 0.77 0.75 0.39 0.22 0.11 0.01 0.00 0.00 0.05 0.17 0.06 0.05 0.09 0.14 0.25 0.15 0.16 0.06 0.05 0.04 0.02 0.04 0.02 0.02 0.02 0.01 0.00 0.01 0.01 0.02 0.06 0.08 0.13 0.20
1.32 1.16 0.87 0.65 0.58 0.57 0.43 0.33 0.20 0.24 0.31 0.21 0.13 0.15 0.15 0.08 0.16 0.34 0.40 0.64 1.01 1.20 0.67 0.39 0.24 0.08 0.04 0.03 0.01 0.11 0.11 0.13 0.24 0.32 0.36 0.25 0.27 0.13 0.07 0.03 0.05 0.08 0.06 0.03 0.05 0.01 0.02 0.04 0.07 0.14 0.21 0.31 0.29 0.19
1.05 0.96 0.82 0.66 0.65 0.56 0.34 0.19 0.19 0.30 0.33 0.20 0.15 0.16 0.17 0.10 0.24 0.52 0.51 0.52 1.00 1.40 0.81 0.36 0.25 0.12 0.13 0.11 0.05 0.16 0.33 0.31 0.35 0.33 0.24 0.11 0.04 0.05 0.07 0.09 0.13 0.06 0.03 0.06 0.10 0.06 0.23 0.22 0.33 0.42 0.38 0.27 0.15 0.09
0.78 0.74 0.69 0.64 0.55 0.46 0.28 0.23 0.26 0.36 0.35 0.21 0.16 0.21 0.24 0.31 0.68 1.46 1.27 0.58 0.89 1.12 1.45 0.70 0.31 0.16 0.24 0.27 0.18 0.10 0.18 0.50 0.66 0.37 0.16 0.04 0.03 0.12 0.27 0.14 0.02 0.00 0.01 0.11 0.16 0.13 0.22 0.32 0.34 0.22 0.20 0.13 0.04 0.01
0.78 0.72 0.63 0.57 0.55 0.47 0.42 0.39 0.39 0.37 0.27 0.21 0.21 0.34 0.49 0.76 1.30 1.78 1.15 0.62 0.58 1.01 1.81 1.16 0.47 0.19 0.18 0.27 0.20 0.15 0.17 0.26 0.37 0.39 0.32 0.18 0.10 0.32 0.41 0.16 0.01 0.00 0.01 0.04 0.05 0.10 0.20 0.20 0.19 0.14 0.06 0.01 0.00 0.00
0.85 0.73 0.62 0.51 0.50 0.46 0.47 0.51 0.45 0.36 0.34 0.31 0.33 0.50 0.83 1.63 2.00 1.62 1.26 1.27 0.79 0.83 1.30 1.29 0.48 0.24 0.11 0.16 0.18 0.09 0.13 0.17 0.20 0.22 0.21 0.20 0.23 0.35 0.36 0.04 0.00 0.00 0.00 0.00 0.01 0.03 0.09 0.04 0.01 0.01 0.00 0.00 0.00 0.01
0.82 0.63 0.46 0.33 0.35 0.46 0.39 0.43 0.47 0.45 0.50 0.57 0.77 1.17 1.45 1.52 1.39 1.15 1.69 1.85 1.45 1.35 1.45 0.95 0.47 0.31 0.15 0.12 0.15 0.19 0.16 0.26 0.20 0.14 0.10 0.16 0.16 0.19 0.12 0.02 0.01 0.00 0.01 0.02 0.01 0.00 0.00 0.00 0.00 0.01 0.01 0.03 0.05 0.04
0.45 0.38 0.35 0.27 0.27 0.37 0.28 0.26 0.41 0.65 0.92 1.14 1.38 1.63 1.73 1.61 1.40 1.14 1.69 1.89 1.91 1.66 1.30 0.65 0.33 0.52 0.23 0.15 0.23 0.33 0.39 0.31 0.26 0.08 0.10 0.11 0.05 0.01 0.00 0.00 0.01 0.01 0.01 0.01 0.01 0.02 0.04 0.05 0.07 0.07 0.06 0.03 0.00 0.00
0.56 0.45 0.38 0.28 0.24 0.33 0.25 0.22 0.43 1.25 2.19 2.19 1.94 1.77 1.50 1.67 1.35 1.44 1.58 1.40 0.99 0.60 0.39 0.19 0.12 0.39 0.56 0.35 0.42 0.49 0.44 0.23 0.20 0.05 0.14 0.11 0.02 0.01 0.01 0.01 0.01 0.01 0.01 0.01 0.01 0.02 0.06 0.11 0.06 0.01 0.00 0.00 0.00 0.00
0.71 0.61 0.47 0.37 0.31 0.37 0.31 0.34 0.70 1.21 1.87 1.96 1.44 1.29 1.50 1.51 1.36 1.26 1.25 0.97 0.37 0.12 0.05 0.05 0.04 0.17 0.80 0.65 0.53 0.54 0.37 0.25 0.13 0.03 0.11 0.08 0.02 0.01 0.02 0.02 0.01 0.01 0.01 0.04 0.08 0.08 0.05 0.01 0.02 0.02 0.02 0.03 0.02 0.00
0.89 0.80 0.73 0.65 0.51 0.51 0.48 0.47 0.57 1.05 1.57 1.85 1.69 1.92 1.86 1.98 1.53 0.96 0.51 0.34 0.15 0.04 0.04 0.03 0.06 0.11 0.45 0.61 0.57 0.51 0.51 0.38 0.15 0.19 0.10 0.04 0.03 0.02 0.03 0.03 0.03 0.02 0.03 0.02 0.02 0.03 0.03 0.04 0.04 0.04 0.04 0.01 0.00 0.00
0.94 0.85 0.73 0.78 0.73 0.65 0.64 0.71 0.86 0.95 1.23 1.74 2.04 2.12 1.82 1.49 0.85 0.46 0.15 0.09 0.06 0.06 0.05 0.04 0.08 0.12 0.21 0.29 0.52 0.62 0.64 0.32 0.35 0.17 0.08 0.12 0.11 0.09 0.05 0.03 0.01 0.02 0.03 0.04 0.06 0.06 0.06 0.06 0.06 0.03 0.01 0.00 0.00 0.00
0.71 0.59 0.62 0.74 0.66 0.59 0.65 0.68 0.62 0.54 0.66 0.99 0.93 1.07 0.98 0.59 0.35 0.27 0.17 0.11 0.10 0.10 0.10 0.15 0.25 0.23 0.25 0.47 0.52 0.44 0.42 0.31 0.22 0.24 0.34 0.32 0.10 0.01 0.00 0.00 0.01 0.03 0.05 0.06 0.05 0.03 0.02 0.01 0.01 0.01 0.01 0.00 0.00 0.00
0.34 0.39 0.54 0.59 0.55 0.53 0.56 0.56 0.51 0.48 0.48 0.49 0.52 0.57 0.45 0.34 0.38 0.30 0.23 0.22 0.23 0.27 0.28 0.33 0.34 0.36 0.44 0.33 0.26 0.27 0.28 0.27 0.33 0.18 0.15 0.10 0.09 0.02 0.00 0.00 0.01 0.01 0.01 0.02 0.02 0.04 0.04 0.03 0.03 0.02 0.01 0.01 0.02 0.01
0.22 0.28 0.34 0.32 0.35 0.34 0.38 0.54 0.51 0.64 0.66 0.44 0.39 0.29 0.21 0.20 0.24 0.22 0.21 0.24 0.22 0.22 0.22 0.21 0.18 0.21 0.23 0.23 0.19 0.18 0.24 0.15 0.05 0.05 0.09 0.06 0.04 0.01 0.02 0.03 0.04 0.04 0.06 0.07 0.08 0.05 0.03 0.02 0.03 0.05 0.04 0.02 0.01 0.01
0.33 0.20 0.18 0.18 0.19 0.22 0.26 0.31 0.33 0.29 0.29 0.38 0.32 0.32 0.17 0.16 0.13 0.12 0.08 0.05 0.04 0.04 0.04 0.05 0.04 0.06 0.10 0.10 0.15 0.08 0.06 0.06 0.07 0.07 0.10 0.10 0.06 0.09 0.07 0.06 0.07 0.07 0.06 0.05 0.02 0.02 0.03 0.04 0.05 0.04 0.02 0.01 0.02 0.03
0.29 0.21 0.16 0.16 0.18 0.20 0.26 0.22 0.16 0.12 0.26 0.35 0.46 0.42 0.29 0.29 0.30 0.25 0.16 0.08 0.04 0.03 0.06 0.05 0.07 0.06 0.09 0.12 0.14 0.12 0.13 0.12 0.14 0.23 0.36 0.42 0.32 0.21 0.17 0.11 0.05 0.02 0.02 0.02 0.04 0.06 0.05 0.03 0.02 0.02 0.03 0.05 0.07 0.07
0.31 0.37 0.27 0.21 0.17 0.24 0.10 0.10 0.04 0.08 0.24 0.30 0.38 0.35 0.27 0.37 0.34 0.25 0.15 0.12 0.08 0.12 0.19 0.22 0.26 0.30 0.31 0.31 0.26 0.24 0.24 0.24 0.19 0.23 0.35 0.40 0.37 0.24 0.21 0.13 0.08 0.06 0.05 0.04 0.05 0.07 0.07 0.06 0.04 0.05 0.08 0.11 0.13 0.10
0.51 0.61 0.48 0.22 0.16 0.18 0.12 0.07 0.08 0.11 0.15 0.22 0.35 0.20 0.33 0.24 0.20 0.14 0.09 0.05 0.11 0.21 0.29 0.39 0.44 0.54 0.48 0.36 0.32 0.26 0.26 0.20 0.19 0.14 0.15 0.20 0.25 0.14 0.15 0.14 0.10 0.10 0.09 0.09 0.09 0.10 0.11 0.11 0.08 0.07 0.09 0.12 0.12 0.11
0.50 0.38 0.36 0.26 0.17 0.05 0.07 0.09 0.08 0.11 0.11 0.25 0.24 0.17 0.23 0.24 0.21 0.15 0.05 0.07 0.21 0.32 0.42 0.41 0.40 0.38 0.29 0.29 0.29 0.22 0.23 0.13 0.12 0.10 0.10 0.07 0.09 0.09 0.09 0.10 0.08 0.10 0.11 0.12 0.11 0.14 0.11 0.08 0.09 0.09 0.08 0.06 0.06 0.08
0.40 0.33 0.32 0.33 0.23 0.14 0.13 0.05 0.07 0.12 0.12 0.18 0.16 0.15 0.19 0.18 0.17 0.06 0.08 0.16 0.28 0.36 0.40 0.31 0.31 0.28 0.23 0.26 0.13 0.14 0.14 0.04 0.05 0.07 0.07 0.07 0.06 0.06 0.05 0.07 0.09 0.12 0.14 0.11 0.11 0.12 0.10 0.09 0.08 0.08 0.06 0.05 0.06 0.08
0.34 0.38 0.39 0.31 0.23 0.18 0.08 0.07 0.07 0.10 0.11 0.10 0.10 0.13 0.17 0.17 0.10 0.07 0.12 0.21 0.35 0.29 0.23 0.26 0.21 0.16 0.11 0.07 0.09 0.12 0.16 0.08 0.06 0.06 0.07 0.07 0.04 0.08 0.08 0.10 0.10 0.11 0.12 0.09 0.08 0.07 0.08 0.08 0.08 0.08 0.10 0.16 0.18 0.17
0.69 0.57 0.31 0.19 0.08 0.07 0.04 0.05 0.07 0.07 0.11 0.10 0.09 0.13 0.16 0.11 0.08 0.10 0.14 0.26 0.20 0.20 0.25 0.26 0.19 0.18 0.16 0.16 0.14 0.14 0.14 0.11 0.06 0.07 0.10 0.11 0.15 0.16 0.12 0.10 0.10 0.09 0.08 0.08 0.13 0.17 0.13 0.14 0.18 0.20 0.17 0.15 0.13 0.10
0.54 0.25 0.13 0.07 0.06 0.04 0.02 0.03 0.04 0.05 0.06 0.07 0.09 0.11 0.10 0.07 0.07 0.10 0.15 0.24 0.21 0.21 0.21 0.23 0.23 0.17 0.15 0.15 0.13 0.12 0.14 0.11 0.10 0.10 0.12 0.13 0.14 0.18 0.21 0.18 0.13 0.08 0.07 0.11 0.17 0.18 0.14 0.11 0.10 0.10 0.09 0.07 0.10 0.13
0.28 0.12 0.05 0.03 0.07 0.08 0.05 0.04 0.04 0.06 0.08 0.10 0.10 0.11 0.14 0.12 0.07 0.15 0.15 0.16 0.16 0.21 0.17 0.16 0.14 0.11 0.12 0.12 0.12 0.13 0.07 0.06 0.09 0.08 0.05 0.06 0.06 0.08 0.15 0.23 0.25 0.19 0.12 0.12 0.15 0.18 0.19 0.14 0.12 0.10 0.11 0.10 0.14 0.20
0.08 0.03 0.04 0.07 0.09 0.11 0.11 0.10 0.09 0.10 0.11 0.11 0.12 0.11 0.16 0.10 0.14 0.19 0.22 0.24 0.17 0.12 0.09 0.08 0.07 0.06 0.08 0.09 0.09 0.08 0.07 0.04 0.02 0.02 0.02 0.06 0.07 0.09 0.09 0.13 0.15 0.13 0.11 0.13 0.15 0.15 0.16 0.19 0.19 0.18 0.20 0.21 0.19 0.17
0.06 0.05 0.05 0.06 0.14 0.18 0.18 0.16 0.18 0.18 0.16 0.17 0.15 0.15 0.16 0.18 0.30 0.27 0.27 0.21 0.15 0.08 0.07 0.08 0.10 0.07 0.04 0.02 0.02 0.05 0.06 0.06 0.09 0.11 0.10 0.12 0.19 0.15 0.09 0.09 0.09 0.10 0.10 0.10 0.12 0.19 0.20 0.22 0.20 0.22 0.26 0.23 0.23 0.26
0.10 0.16 0.18 0.11 0.16 0.23 0.28 0.22 0.22 0.20 0.16 0.15 0.12 0.13 0.12 0.18 0.29 0.22 0.15 0.11 0.08 0.08 0.10 0.08 0.09 0.06 0.07 0.05 0.04 0.06 0.11 0.11 0.15 0.21 0.19 0.14 0.15 0.13 0.12 0.15 0.15 0.15 0.16 0.20 0.18 0.14 0.16 0.17 0.19 0.29 0.28 0.27 0.30 0.31
0.15 0.17 0.16 0.15 0.17 0.17 0.16 0.15 0.14 0.10 0.07 0.06 0.06 0.11 0.14 0.16 0.19 0.13 0.11 0.13 0.08 0.08 0.05 0.04 0.05 0.09 0.10 0.10 0.13 0.12 0.15 0.17 0.12 0.13 0.16 0.17 0.19 0.20 0.21 0.19 0.19 0.19 0.19 0.19 0.17 0.18 0.20 0.22 0.27 0.28 0.23 0.20 0.21 0.20
0.07 0.09 0.11 0.13 0.14 0.15 0.13 0.20 0.17 0.11 0.09 0.07 0.08 0.06 0.10 0.09 0.13 0.18 0.14 0.09 0.05 0.05 0.08 0.09 0.10 0.13 0.16 0.17 0.20 0.19 0.18 0.17 0.14 0.16 0.19 0.20 0.21 0.19 0.17 0.16 0.16 0.15 0.14 0.13 0.13 0.14 0.13 0.14 0.16 0.13 0.13 0.11 0.12 0.10
0.08 0.09 0.11 0.12 0.10 0.09 0.10 0.10 0.10 0.08 0.05 0.06 0.08 0.09 0.09 0.12 0.23 0.26 0.15 0.10 0.13 0.15 0.16 0.19 0.21 0.24 0.26 0.23 0.22 0.20 0.16 0.15 0.14 0.13 0.15 0.14 0.13 0.10 0.10 0.10 0.11 0.11 0.10 0.10 0.11 0.11 0.09 0.09 0.10 0.12 0.11 0.11 0.10 0.08

GFSWCAN_prec_precacc_069.txt.gz
Total_Precipitation_Accumulation
1.30 0.85 0.57 0.47 0.45 0.55 0.49 0.52 0.50 0.57 0.57 0.35 0.20 0.15 0.14 0.11 0.23 0.39 0.43 0.55 0.79 0.75 0.20 0.19 0.04 0.01 0.01 0.03 0.08 0.05 0.07 0.10 0.17 0.22 0.15 0.04 0.02 0.01 0.02 0.01 0.01 0.03 0.09 0.10 0.07 0.16 0.06 0.00 0.03 0.15 0.18 0.08 0.08 0.07
1.20 0.96 0.63 0.49 0.56 0.54 0.44 0.51 0.45 0.49 0.48 0.30 0.20 0.18 0.15 0.10 0.19 0.39 0.44 0.60 0.61 0.97 0.38 0.29 0.10 0.01 0.00 0.00 0.06 0.10 0.05 0.04 0.10 0.10 0.07 0.05 0.02 0.02 0.00 0.02 0.00 0.01 0.01 0.02 0.04 0.03 0.00 0.00 0.03 0.02 0.04 0.10 0.07 0.07
1.45 0.94 0.75 0.62 0.51 0.51 0.43 0.50 0.39 0.40 0.42 0.30 0.25 0.21 0.16 0.10 0.19 0.36 0.40 0.68 0.87 0.85 0.44 0.29 0.17 0.04 0.00 0.00 0.05 0.17 0.06 0.05 0.09 0.14 0.25 0.15 0.16 0.06 0.05 0.04 0.02 0.05 0.03 0.03 0.03 0.01 0.00 0.01 0.01 0.02 0.06 0.08 0.13 0.20
1.35 1.17 0.88 0.66 0.60 0.60 0.48 0.50 0.36 0.39 0.46 0.33 0.21 0.19 0.17 0.10 0.18 0.36 0.43 0.72 1.15 1.26 0.79 0.47 0.31 0.16 0.08 0.04 0.01 0.11 0.11 0.13 0.24 0.32 0.36 0.25 0.27 0.13 0.07 0.03 0.05 0.08 0.07 0.04 0.05 0.01 0.02 0.04 0.07 0.14 0.21 0.31 0.29 0.19
1.16 1.04 0.89 0.75 0.76 0.69 0.53 0.40 0.35 0.45 0.47 0.30 0.19 0.20 0.21 0.14 0.28 0.55 0.56 0.61 1.13 1.53 0.89 0.42 0.34 0.18 0.18 0.15 0.06 0.16 0.33 0.31 0.35 0.33 0.25 0.11 0.04 0.06 0.08 0.09 0.13 0.06 0.03 0.06 0.10 0.06 0.23 0.22 0.33 0.42 0.38 0.27 0.15 0.09
0.85 0.83 0.80 0.78 0.70 0.63 0.46 0.38 0.38 0.47 0.43 0.25 0.20 0.25 0.28 0.35 0.71 1.52 1.40 0.65 0.94 1.24 1.54 0.80 0.40 0.27 0.31 0.34 0.26 0.11 0.18 0.50 0.66 0.37 0.16 0.04 0.03 0.12 0.27 0.14 0.02 0.00 0.02 0.11 0.16 0.13 0.22 0.32 0.34 0.22 0.20 0.13 0.04 0.01
0.81 0.77 0.68 0.63 0.62 0.54 0.49 0.44 0.43 0.39 0.29 0.24 0.23 0.36 0.52 0.78 1.32 1.84 1.21 0.63 0.60 1.10 1.87 1.25 0.58 0.28 0.32 0.31 0.24 0.16 0.18 0.26 0.37 0.40 0.33 0.18 0.10 0.32 0.41 0.16 0.01 0.00 0.01 0.04 0.05 0.10 0.20 0.20 0.19 0.14 0.06 0.01 0.00 0.00
0.85 0.74 0.63 0.52 0.51 0.47 0.47 0.52 0.45 0.36 0.35 0.32 0.34 0.51 0.85 1.64 2.02 1.67 1.29 1.28 0.82 0.93 1.34 1.35 0.55 0.28 0.36 0.27 0.22 0.12 0.14 0.17 0.21 0.23 0.21 0.20 0.23 0.35 0.36 0.04 0.00 0.00 0.00 0.00 0.01 0.03 0.09 0.04 0.01 0.01 0.00 0.00 0.00 0.01
0.82 0.63 0.46 0.33 0.35 0.46 0.39 0.43 0.47 0.45 0.50 0.57 0.79 1.21 1.53 1.56 1.40 1.18 1.75 1.89 1.52 1.44 1.50 1.01 0.55 0.34 0.31 0.35 0.25 0.33 0.21 0.29 0.21 0.15 0.10 0.16 0.16 0.19 0.12 0.02 0.01 0.01 0.02 0.02 0.01 0.00 0.00 0.00 0.00 0.01 0.01 0.03 0.05 0.04
0.45 0.39 0.35 0.28 0.28 0.38 0.29 0.26 0.41 0.67 0.97 1.29 1.54 1.76 1.87 1.64 1.42 1.20 1.80 2.10 2.03 1.74 1.33 0.71 0.43 0.59 0.29 0.25 0.29 0.48 0.62 0.35 0.27 0.09 0.11 0.12 0.05 0.01 0.00 0.00 0.01 0.01 0.01 0.01 0.01 0.02 0.04 0.05 0.07 0.07 0.06 0.03 0.00 0.00
0.56 0.47 0.40 0.30 0.25 0.34 0.26 0.22 0.44 1.31 2.35 2.35 2.02 1.83 1.54 1.71 1.40 1.55 1.70 1.49 1.05 0.65 0.41 0.20 0.15 0.45 0.57 0.39 0.48 0.64 0.74 0.45 0.22 0.05 0.14 0.11 0.02 0.01 0.01 0.01 0.01 0.01 0.01 0.01 0.01 0.02 0.06 0.11 0.06 0.01 0.00 0.00 0.01 0.01
0.72 0.61 0.49 0.40 0.33 0.39 0.33 0.36 0.75 1.29 1.91 1.97 1.45 1.33 1.60 1.55 1.47 1.36 1.34 0.99 0.38 0.12 0.05 0.05 0.04 0.17 0.80 0.66 0.59 0.69 0.46 0.40 0.18 0.03 0.11 0.08 0.02 0.01 0.03 0.02 0.01 0.01 0.01 0.04 0.08 0.08 0.05 0.01 0.02 0.02 0.02 0.03 0.05 0.07
0.89 0.80 0.73 0.67 0.54 0.58 0.59 0.54 0.59 1.06 1.58 1.86 1.72 1.97 1.88 2.00 1.62 1.01 0.52 0.34 0.16 0.05 0.05 0.03 0.06 0.11 0.46 0.70 0.83 0.78 0.66 0.47 0.20 0.22 0.11 0.04 0.03 0.02 0.03 0.03 0.03 0.02 0.03 0.02 0.02 0.03 0.03 0.04 0.04 0.05 0.06 0.09 0.09 0.07
0.95 0.85 0.74 0.78 0.73 0.67 0.66 0.72 0.86 1.03 1.28 1.85 2.17 2.16 1.83 1.49 0.88 0.47 0.15 0.09 0.06 0.06 0.06 0.04 0.09 0.14 0.27 0.45 0.71 0.87 0.81 0.36 0.35 0.18 0.08 0.12 0.11 0.09 0.05 0.03 0.01 0.02 0.03 0.04 0.06 0.06 0.06 0.07 0.10 0.12 0.11 0.10 0.07 0.04
0.72 0.59 0.62 0.75 0.67 0.60 0.67 0.71 0.68 0.64 0.74 1.12 0.97 1.09 1.00 0.60 0.35 0.27 0.17 0.12 0.11 0.11 0.12 0.16 0.28 0.27 0.29 0.55 0.55 0.46 0.44 0.32 0.22 0.25 0.35 0.32 0.11 0.02 0.01 0.00 0.01 0.04 0.06 0.08 0.08 0.07 0.08 0.08 0.07 0.08 0.09 0.07 0.04 0.01
0.35 0.40 0.57 0.62 0.58 0.57 0.59 0.59 0.62 0.62 0.59 0.54 0.56 0.63 0.48 0.37 0.44 0.35 0.28 0.30 0.29 0.32 0.31 0.35 0.39 0.39 0.47 0.33 0.26 0.27 0.28 0.27 0.34 0.19 0.16 0.11 0.11 0.04 0.03 0.03 0.05 0.08 0.11 0.13 0.11 0.10 0.10 0.11 0.11 0.08 0.05 0.02 0.02 0.01
0.23 0.31 0.37 0.36 0.38 0.37 0.40 0.58 0.60 0.73 0.73 0.47 0.48 0.39 0.28 0.28 0.43 0.36 0.32 0.34 0.30 0.27 0.26 0.22 0.20 0.22 0.24 0.23 0.20 0.19 0.25 0.17 0.08 0.07 0.11 0.08 0.06 0.04 0.05 0.07 0.09 0.09 0.11 0.13 0.12 0.10 0.07 0.06 0.04 0.05 0.04 0.02 0.01 0.01
0.36 0.23 0.20 0.20 0.21 0.24 0.32 0.40 0.45 0.41 0.35 0.47 0.51 0.52 0.31 0.28 0.25 0.18 0.13 0.10 0.07 0.06 0.04 0.05 0.04 0.06 0.10 0.11 0.17 0.11 0.10 0.11 0.12 0.12 0.14 0.14 0.11 0.13 0.11 0.10 0.12 0.11 0.10 0.09 0.05 0.04 0.04 0.05 0.07 0.06 0.03 0.01 0.02 0.03
0.46 0.30 0.23 0.21 0.20 0.24 0.33 0.30 0.21 0.16 0.31 0.46 0.57 0.50 0.34 0.34 0.34 0.28 0.17 0.09 0.04 0.03 0.06 0.05 0.07 0.07 0.10 0.15 0.19 0.17 0.17 0.17 0.18 0.28 0.42 0.49 0.38 0.26 0.20 0.14 0.08 0.07 0.06 0.07 0.07 0.09 0.08 0.06 0.04 0.03 0.04 0.06 0.09 0.09
0.55 0.61 0.47 0.36 0.28 0.40 0.19 0.17 0.07 0.10 0.28 0.35 0.44 0.40 0.29 0.41 0.37 0.27 0.15 0.12 0.08 0.12 0.20 0.23 0.29 0.33 0.35 0.37 0.34 0.30 0.31 0.32 0.26 0.28 0.41 0.48 0.45 0.29 0.26 0.16 0.12 0.09 0.07 0.07 0.08 0.09 0.09 0.08 0.07 0.08 0.11 0.12 0.14 0.10
0.61 0.74 0.66 0.41 0.32 0.30 0.22 0.16 0.13 0.13 0.17 0.25 0.38 0.21 0.36 0.27 0.23 0.16 0.11 0.06 0.11 0.24 0.33 0.43 0.48 0.60 0.56 0.44 0.40 0.31 0.32 0.25 0.25 0.19 0.19 0.25 0.32 0.16 0.17 0.17 0.12 0.11 0.10 0.10 0.10 0.12 0.12 0.12 0.09 0.07 0.09 0.12 0.12 0.11
0.50 0.40 0.40 0.33 0.25 0.07 0.10 0.15 0.13 0.15 0.14 0.29 0.27 0.18 0.25 0.27 0.24 0.18 0.06 0.08 0.24 0.37 0.48 0.47 0.46 0.45 0.36 0.36 0.37 0.28 0.31 0.19 0.17 0.16 0.16 0.11 0.12 0.11 0.11 0.12 0.09 0.11 0.12 0.13 0.12 0.14 0.12 0.09 0.09 0.09 0.08 0.06 0.06 0.08
0.40 0.33 0.32 0.33 0.23 0.15 0.15 0.07 0.09 0.16 0.14 0.21 0.19 0.17 0.22 0.22 0.22 0.08 0.10 0.20 0.33 0.43 0.48 0.39 0.39 0.37 0.30 0.35 0.18 0.19 0.22 0.08 0.09 0.11 0.11 0.09 0.08 0.07 0.06 0.08 0.09 0.12 0.14 0.12 0.11 0.12 0.11 0.09 0.08 0.08 0.06 0.05 0.06 0.08
0.34 0.38 0.39 0.31 0.23 0.18 0.08 0.08 0.10 0.13 0.13 0.13 0.13 0.17 0.21 0.20 0.12 0.08 0.16 0.25 0.42 0.36 0.30 0.34 0.29 0.23 0.18 0.12 0.13 0.16 0.22 0.11 0.07 0.08 0.09 0.07 0.04 0.08 0.08 0.10 0.10 0.11 0.12 0.10 0.08 0.07 0.08 0.08 0.08 0.08 0.10 0.16 0.18 0.17
0.69 0.57 0.31 0.19 0.08 0.07 0.04 0.05 0.07 0.08 0.14 0.13 0.11 0.17 0.20 0.14 0.10 0.13 0.17 0.30 0.25 0.26 0.31 0.33 0.25 0.23 0.20 0.20 0.18 0.17 0.16 0.11 0.06 0.07 0.11 0.11 0.15 0.16 0.12 0.10 0.10 0.09 0.08 0.08 0.13 0.17 0.13 0.14 0.18 0.20 0.17 0.15 0.13 0.10
0.54 0.26 0.13 0.07 0.06 0.04 0.03 0.03 0.04 0.06 0.08 0.08 0.11 0.14 0.13 0.08 0.08 0.12 0.17 0.28 0.24 0.25 0.26 0.28 0.28 0.20 0.18 0.18 0.16 0.14 0.16 0.11 0.10 0.10 0.12 0.13 0.14 0.18 0.21 0.18 0.13 0.08 0.07 0.11 0.17 0.18 0.14 0.11 0.10 0.10 0.09 0.07 0.10 0.13
0.28 0.13 0.05 0.03 0.07 0.08 0.05 0.04 0.04 0.06 0.08 0.11 0.11 0.13 0.16 0.13 0.09 0.17 0.18 0.19 0.19 0.24 0.21 0.20 0.16 0.13 0.14 0.14 0.12 0.13 0.07 0.06 0.09 0.08 0.05 0.06 0.06 0.08 0.15 0.23 0.25 0.19 0.12 0.12 0.15 0.18 0.19 0.14 0.12 0.10 0.11 0.10 0.14 0.20
0.09 0.03 0.04 0.07 0.09 0.11 0.11 0.10 0.09 0.11 0.12 0.12 0.12 0.11 0.16 0.11 0.15 0.21 0.25 0.27 0.19 0.15 0.11 0.10 0.08 0.07 0.08 0.09 0.09 0.08 0.07 0.04 0.02 0.02 0.02 0.06 0.07 0.09 0.09 0.13 0.15 0.13 0.11 0.13 0.15 0.15 0.17 0.19 0.19 0.18 0.20 0.21 0.19 0.17
0.06 0.05 0.05 0.06 0.14 0.18 0.19 0.17 0.18 0.19 0.17 0.18 0.15 0.15 0.17 0.19 0.31 0.29 0.30 0.23 0.16 0.09 0.08 0.09 0.11 0.07 0.04 0.02 0.02 0.05 0.06 0.06 0.09 0.11 0.10 0.12 0.19 0.15 0.09 0.09 0.09 0.10 0.10 0.10 0.12 0.19 0.21 0.23 0.20 0.22 0.26 0.23 0.23 0.26
0.10 0.16 0.18 0.11 0.16 0.24 0.29 0.23 0.23 0.21 0.17 0.15 0.12 0.13 0.12 0.21 0.32 0.24 0.16 0.12 0.08 0.09 0.10 0.08 0.09 0.06 0.07 0.05 0.04 0.06 0.11 0.11 0.15 0.21 0.19 0.14 0.15 0.13 0.12 0.15 0.15 0.15 0.16 0.20 0.18 0.14 0.16 0.17 0.19 0.29 0.28 0.27 0.30 0.31
0.15 0.17 0.16 0.15 0.18 0.18 0.16 0.15 0.14 0.10 0.07 0.06 0.06 0.11 0.15 0.17 0.20 0.14 0.12 0.14 0.09 0.08 0.05 0.04 0.05 0.09 0.10 0.10 0.13 0.12 0.15 0.18 0.13 0.13 0.16 0.17 0.19 0.20 0.21 0.19 0.19 0.19 0.19 0.19 0.17 0.18 0.20 0.22 0.27 0.28 0.23 0.20 0.21 0.20
0.07 0.09 0.11 0.13 0.14 0.15 0.14 0.20 0.17 0.11 0.09 0.07 0.08 0.06 0.10 0.09 0.13 0.19 0.15 0.10 0.05 0.05 0.08 0.09 0.10 0.13 0.16 0.17 0.20 0.19 0.18 0.17 0.14 0.16 0.19 0.20 0.21 0.19 0.17 0.16 0.16 0.15 0.14 0.13 0.13 0.14 0.13 0.14 0.16 0.13 0.13 0.11 0.12 0.10
0.08 0.09 0.11 0.12 0.11 0.09 0.11 0.10 0.10 0.08 0.05 0.06 0.09 0.09 0.09 0.12 0.24 0.26 0.15 0.10 0.13 0.15 0.16 0.19 0.21 0.24 0.26 0.23 0.22 0.20 0.16 0.15 0.14 0.13 0.15 0.14 0.13 0.10 0.10 0.10 0.11 0.11 0.10 0.10 0.11 0.11 0.09 0.09 0.10 0.12 0.11 0.11 0.10 0.08

GFSWCAN_prec_precacc_072.txt.gz
Total_Precipitation_Accumulation
1.32 0.86 0.57 0.47 0.49 0.67 0.58 0.64 0.61 0.64 0.59 0.43 0.30 0.29 0.27 0.19 0.29 0.42 0.43 0.55 0.79 0.76 0.22 0.23 0.09 0.09 0.02 0.05 0.09 0.05 0.08 0.10 0.17 0.22 0.15 0.04 0.02 0.01 0.02 0.01 0.01 0.03 0.09 0.10 0.07 0.16 0.06 0.00 0.03 0.15 0.18 0.08 0.08 0.07
1.22 0.97 0.64 0.50 0.58 0.62 0.57 0.66 0.57 0.56 0.53 0.38 0.29 0.28 0.28 0.18 0.24 0.40 0.45 0.60 0.61 0.98 0.41 0.33 0.15 0.04 0.09 0.01 0.07 0.11 0.05 0.04 0.10 0.10 0.07 0.05 0.02 0.02 0.00 0.02 0.00 0.01 0.01 0.03 0.04 0.03 0.00 0.00 0.03 0.02 0.04 0.10 0.07 0.07
1.48 0.98 0.78 0.65 0.65 0.63 0.56 0.66 0.49 0.45 0.47 0.37 0.33 0.31 0.28 0.19 0.24 0.38 0.40 0.68 0.88 0.86 0.44 0.29 0.22 0.06 0.04 0.03 0.05 0.18 0.06 0.05 0.09 0.14 0.25 0.15 0.16 0.06 0.05 0.04 0.02 0.05 0.03 0.03 0.03 0.01 0.00 0.01 0.01 0.02 0.06 0.08 0.13 0.20
1.37 1.20 0.91 0.69 0.62 0.62 0.53 0.55 0.40 0.43 0.52 0.41 0.31 0.32 0.28 0.19 0.26 0.38 0.43 0.72 1.16 1.27 0.80 0.47 0.37 0.22 0.09 0.06 0.01 0.11 0.11 0.13 0.24 0.32 0.36 0.25 0.27 0.13 0.07 0.03 0.05 0.08 0.07 0.04 0.05 0.01 0.03 0.04 0.08 0.14 0.21 0.31 0.29 0.19
1.21 1.06 0.91 0.78 0.78 0.72 0.56 0.45 0.44 0.54 0.56 0.40 0.33 0.34 0.34 0.26 0.35 0.56 0.56 0.61 1.13 1.56 0.95 0.43 0.38 0.28 0.23 0.18 0.07 0.16 0.33 0.32 0.37 0.34 0.25 0.11 0.04 0.06 0.08 0.09 0.13 0.06 0.03 0.06 0.10 0.07 0.23 0.22 0.33 0.42 0.38 0.27 0.15 0.09
0.95 0.92 0.89 0.86 0.79 0.72 0.57 0.52 0.50 0.61 0.57 0.40 0.34 0.41 0.42 0.47 0.76 1.53 1.43 0.66 0.95 1.27 1.68 0.87 0.43 0.35 0.43 0.41 0.29 0.12 0.18 0.50 0.68 0.38 0.16 0.04 0.03 0.12 0.27 0.14 0.02 0.00 0.02 0.12 0.17 0.14 0.22 0.32 0.34 0.22 0.20 0.13 0.04 0.01
0.89 0.84 0.75 0.70 0.70 0.63 0.58 0.54 0.55 0.53 0.42 0.35 0.36 0.48 0.63 0.83 1.33 1.85 1.23 0.63 0.60 1.16 2.00 1.41 0.67 0.34 0.55 0.44 0.33 0.21 0.19 0.27 0.39 0.43 0.33 0.19 0.10 0.32 0.41 0.16 0.01 0.00 0.01 0.05 0.06 0.10 0.20 0.20 0.19 0.14 0.06 0.01 0.00 0.00
0.89 0.78 0.69 0.57 0.56 0.51 0.52 0.57 0.51 0.43 0.42 0.38 0.40 0.55 0.86 1.65 2.04 1.69 1.31 1.28 0.82 0.96 1.41 1.49 0.82 0.50 0.75 0.42 0.31 0.18 0.18 0.20 0.22 0.24 0.21 0.21 0.23 0.35 0.36 0.04 0.00 0.00 0.00 0.00 0.01 0.03 0.09 0.04 0.01 0.01 0.00 0.00 0.00 0.01
0.84 0.66 0.48 0.36 0.37 0.48 0.41 0.45 0.49 0.47 0.52 0.58 0.80 1.23 1.55 1.61 1.46 1.21 1.77 1.90 1.54 1.47 1.58 1.10 0.87 0.65 0.56 0.54 0.30 0.37 0.26 0.33 0.22 0.15 0.10 0.17 0.16 0.20 0.12 0.02 0.01 0.01 0.02 0.02 0.01 0.00 0.00 0.00 0.00 0.01 0.01 0.03 0.05 0.04
0.46 0.40 0.36 0.28 0.29 0.38 0.29 0.27 0.42 0.68 0.98 1.31 1.55 1.81 1.92 1.69 1.47 1.29 1.88 2.16 2.07 1.76 1.36 0.80 0.69 1.02 0.64 0.68 0.47 0.55 0.66 0.37 0.28 0.09 0.11 0.12 0.05 0.01 0.00 0.00 0.01 0.01 0.01 0.01 0.01 0.02 0.04 0.05 0.07 0.07 0.06 0.03 0.00 0.00
0.58 0.47 0.41 0.31 0.26 0.34 0.26 0.22 0.45 1.32 2.36 2.39 2.07 1.86 1.57 1.83 1.47 1.60 1.75 1.56 1.10 0.67 0.42 0.21 0.22 0.70 0.98 0.82 0.67 0.75 0.85 0.53 0.25 0.06 0.15 0.11 0.02 0.01 0.01 0.01 0.01 0.01 0.01 0.01 0.01 0.02 0.06 0.11 0.06 0.01 0.00 0.01 0.02 0.03
0.74 0.63 0.51 0.41 0.34 0.39 0.33 0.37 0.76 1.32 1.99 2.04 1.53 1.38 1.74 1.62 1.47 1.39 1.43 1.01 0.40 0.13 0.06 0.06 0.05 0.27 0.95 0.91 0.76 0.79 0.59 0.63 0.34 0.05 0.11 0.08 0.02 0.01 0.03 0.02 0.01 0.01 0.01 0.04 0.08 0.08 0.05 0.01 0.02 0.02 0.02 0.04 0.06 0.09
0.90 0.82 0.75 0.69 0.59 0.65 0.64 0.60 0.70 1.16 1.63 1.91 1.76 2.01 1.91 2.00 1.63 1.06 0.59 0.35 0.16 0.05 0.05 0.04 0.06 0.11 0.46 0.72 0.86 0.80 0.70 0.56 0.31 0.28 0.13 0.05 0.03 0.03 0.04 0.03 0.03 0.02 0.03 0.02 0.02 0.03 0.03 0.04 0.04 0.05 0.07 0.11 0.14 0.16
0.95 0.86 0.77 0.85 0.82 0.73 0.70 0.80 0.96 1.05 1.29 1.87 2.19 2.17 1.84 1.50 0.90 0.48 0.16 0.09 0.06 0.06 0.06 0.04 0.09 0.14 0.27 0.46 0.72 0.94 0.94 0.48 0.43 0.21 0.12 0.15 0.13 0.11 0.06 0.03 0.01 0.02 0.03 0.04 0.06 0.06 0.06 0.07 0.10 0.13 0.15 0.16 0.13 0.12
0.72 0.60 0.63 0.75 0.68 0.60 0.68 0.73 0.68 0.65 0.80 1.19 0.98 1.10 1.00 0.61 0.40 0.31 0.18 0.12 0.11 0.11 0.12 0.16 0.28 0.27 0.31 0.60 0.62 0.54 0.56 0.43 0.30 0.28 0.37 0.34 0.12 0.03 0.02 0.01 0.02 0.04 0.06 0.08 0.09 0.09 0.10 0.10 0.10 0.14 0.17 0.15 0.08 0.04
0.35 0.40 0.57 0.62 0.58 0.57 0.59 0.60 0.64 0.62 0.65 0.59 0.61 0.68 0.51 0.39 0.48 0.39 0.30 0.31 0.29 0.33 0.32 0.36 0.41 0.41 0.53 0.40 0.32 0.29 0.28 0.28 0.36 0.22 0.18 0.13 0.13 0.07 0.06 0.07 0.09 0.12 0.15 0.18 0.17 0.15 0.14 0.16 0.15 0.12 0.07 0.03 0.03 0.04
0.23 0.31 0.37 0.36 0.39 0.38 0.41 0.59 0.61 0.75 0.77 0.56 0.58 0.46 0.31 0.33 0.47 0.40 0.36 0.38 0.35 0.32 0.30 0.25 0.24 0.26 0.30 0.26 0.22 0.21 0.27 0.20 0.11 0.10 0.14 0.12 0.10 0.10 0.11 0.12 0.14 0.14 0.16 0.17 0.15 0.12 0.09 0.07 0.05 0.05 0.04 0.02 0.02 0.01
0.38 0.24 0.20 0.21 0.22 0.26 0.35 0.41 0.46 0.42 0.43 0.57 0.58 0.59 0.34 0.37 0.40 0.34 0.25 0.21 0.19 0.15 0.07 0.07 0.06 0.07 0.12 0.13 0.19 0.14 0.13 0.15 0.16 0.16 0.18 0.19 0.15 0.17 0.15 0.13 0.16 0.14 0.13 0.11 0.06 0.06 0.06 0.07 0.08 0.08 0.04 0.02 0.03 0.04
0.52 0.31 0.23 0.23 0.22 0.29 0.40 0.36 0.23 0.18 0.37 0.60 0.75 0.63 0.46 0.49 0.53 0.46 0.30 0.15 0.09 0.06 0.10 0.09 0.08 0.07 0.12 0.16 0.21 0.20 0.20 0.20 0.22 0.32 0.46 0.54 0.43 0.29 0.23 0.16 0.10 0.08 0.08 0.08 0.08 0.10 0.10 0.07 0.05 0.04 0.05 0.07 0.10 0.10
0.78 0.74 0.56 0.45 0.40 0.54 0.32 0.26 0.13 0.13 0.35 0.47 0.58 0.52 0.40 0.52 0.47 0.37 0.22 0.15 0.08 0.13 0.20 0.24 0.30 0.36 0.38 0.40 0.39 0.34 0.34 0.36 0.29 0.31 0.45 0.53 0.50 0.32 0.29 0.18 0.13 0.11 0.08 0.08 0.09 0.10 0.10 0.09 0.07 0.08 0.11 0.13 0.14 0.11
0.77 0.91 0.80 0.54 0.41 0.35 0.35 0.30 0.23 0.18 0.20 0.29 0.42 0.24 0.38 0.28 0.24 0.17 0.12 0.07 0.11 0.25 0.35 0.46 0.52 0.63 0.60 0.48 0.45 0.34 0.36 0.28 0.30 0.21 0.22 0.28 0.38 0.19 0.20 0.19 0.13 0.12 0.11 0.11 0.10 0.12 0.13 0.12 0.10 0.08 0.10 0.12 0.12 0.12
0.53 0.45 0.46 0.39 0.29 0.09 0.12 0.19 0.16 0.20 0.16 0.31 0.30 0.19 0.26 0.27 0.24 0.19 0.06 0.09 0.26 0.39 0.53 0.51 0.49 0.49 0.40 0.41 0.43 0.33 0.39 0.24 0.22 0.20 0.20 0.14 0.15 0.13 0.13 0.14 0.10 0.11 0.12 0.13 0.12 0.14 0.12 0.09 0.09 0.09 0.08 0.06 0.07 0.08
0.40 0.33 0.32 0.34 0.24 0.15 0.16 0.07 0.10 0.18 0.15 0.23 0.20 0.18 0.23 0.23 0.24 0.08 0.11 0.23 0.37 0.48 0.53 0.44 0.44 0.42 0.35 0.42 0.23 0.25 0.31 0.11 0.12 0.15 0.15 0.12 0.10 0.09 0.07 0.09 0.09 0.12 0.15 0.12 0.11 0.12 0.11 0.09 0.08 0.08 0.06 0.05 0.06 0.08
0.34 0.38 0.39 0.31 0.23 0.18 0.08 0.08 0.10 0.13 0.14 0.14 0.13 0.18 0.23 0.22 0.13 0.08 0.17 0.29 0.48 0.42 0.35 0.39 0.34 0.30 0.24 0.17 0.16 0.20 0.29 0.14 0.09 0.10 0.12 0.08 0.05 0.09 0.08 0.10 0.11 0.11 0.12 0.10 0.08 0.07 0.08 0.08 0.08 0.08 0.10 0.16 0.18 0.17
0.69 0.57 0.31 0.19 0.08 0.07 0.04 0.05 0.07 0.08 0.15 0.13 0.11 0.17 0.21 0.15 0.10 0.13 0.19 0.33 0.30 0.30 0.36 0.39 0.31 0.30 0.25 0.25 0.23 0.21 0.21 0.14 0.07 0.08 0.12 0.11 0.15 0.16 0.12 0.10 0.10 0.09 0.08 0.08 0.13 0.17 0.13 0.14 0.18 0.20 0.17 0.15 0.13 0.10
0.54 0.26 0.13 0.07 0.07 0.04 0.03 0.03 0.05 0.07 0.08 0.08 0.11 0.15 0.13 0.09 0.08 0.12 0.19 0.30 0.28 0.29 0.30 0.32 0.33 0.25 0.22 0.22 0.19 0.17 0.18 0.12 0.10 0.11 0.12 0.13 0.14 0.18 0.21 0.18 0.13 0.08 0.07 0.11 0.17 0.18 0.14 0.11 0.10 0.10 0.09 0.07 0.10 0.14
0.28 0.13 0.05 0.03 0.08 0.09 0.06 0.04 0.04 0.07 0.08 0.11 0.11 0.13 0.16 0.13 0.09 0.18 0.20 0.22 0.21 0.28 0.25 0.23 0.20 0.16 0.16 0.16 0.13 0.14 0.07 0.06 0.09 0.09 0.05 0.06 0.06 0.08 0.15 0.23 0.25 0.20 0.12 0.12 0.15 0.19 0.19 0.15 0.12 0.10 0.12 0.11 0.14 0.20
0.09 0.03 0.04 0.07 0.09 0.11 0.11 0.10 0.10 0.11 0.12 0.13 0.12 0.11 0.17 0.11 0.16 0.23 0.27 0.29 0.22 0.17 0.14 0.13 0.10 0.08 0.08 0.09 0.09 0.08 0.07 0.04 0.02 0.02 0.02 0.06 0.07 0.09 0.09 0.13 0.15 0.13 0.11 0.13 0.15 0.15 0.17 0.19 0.19 0.18 0.20 0.21 0.19 0.17
0.06 0.05 0.05 0.06 0.14 0.18 0.19 0.17 0.19 0.19 0.18 0.18 0.15 0.15 0.17 0.20 0.33 0.31 0.32 0.25 0.19 0.12 0.10 0.10 0.11 0.07 0.04 0.02 0.02 0.05 0.06 0.06 0.09 0.11 0.10 0.12 0.19 0.15 0.09 0.09 0.09 0.10 0.10 0.10 0.12 0.19 0.21 0.23 0.20 0.22 0.26 0.23 0.23 0.26
0.10 0.16 0.18 0.11 0.16 0.24 0.30 0.24 0.24 0.22 0.18 0.15 0.12 0.14 0.13 0.22 0.35 0.27 0.18 0.13 0.09 0.09 0.10 0.08 0.09 0.06 0.07 0.05 0.04 0.06 0.12 0.11 0.15 0.21 0.19 0.14 0.15 0.14 0.12 0.15 0.15 0.15 0.16 0.20 0.18 0.14 0.16 0.17 0.19 0.29 0.28 0.27 0.30 0.31
0.15 0.17 0.16 0.15 0.18 0.19 0.17 0.15 0.14 0.10 0.07 0.06 0.06 0.11 0.15 0.18 0.21 0.15 0.13 0.15 0.09 0.08 0.05 0.04 0.05 0.09 0.10 0.10 0.13 0.12 0.15 0.18 0.13 0.14 0.16 0.17 0.19 0.20 0.21 0.19 0.19 0.19 0.19 0.19 0.17 0.18 0.20 0.22 0.27 0.28 0.23 0.20 0.21 0.20
0.07 0.09 0.11 0.13 0.14 0.16 0.15 0.20 0.17 0.11 0.09 0.07 0.08 0.06 0.10 0.09 0.13 0.19 0.15 0.11 0.05 0.05 0.08 0.09 0.10 0.13 0.17 0.17 0.20 0.19 0.19 0.18 0.14 0.16 0.19 0.20 0.21 0.19 0.17 0.16 0.16 0.16 0.14 0.13 0.13 0.14 0.13 0.14 0.16 0.13 0.13 0.11 0.12 0.10
0.08 0.10 0.11 0.12 0.11 0.09 0.11 0.11 0.10 0.08 0.05 0.06 0.09 0.09 0.10 0.12 0.24 0.27 0.16 0.10 0.13 0.15 0.17 0.19 0.21 0.25 0.26 0.23 0.22 0.20 0.16 0.16 0.14 0.13 0.15 0.15 0.13 0.10 0.10 0.10 0.11 0.11 0.10 0.10 0.11 0.11 0.09 0.09 0.10 0.12 0.11 0.11 0.10 0.08

GFSWCAN_prec_precacc_075.txt.gz
Total_Precipitation_Accumulation
1.38 0.91 0.60 0.49 0.50 0.67 0.58 0.65 0.62 0.66 0.62 0.46 0.32 0.31 0.44 0.42 0.44 0.55 0.49 0.56 0.80 0.78 0.24 0.26 0.10 0.12 0.07 0.07 0.12 0.07 0.15 0.14 0.20 0.24 0.16 0.04 0.02 0.01 0.02 0.01 0.02 0.04 0.12 0.12 0.10 0.18 0.06 0.00 0.03 0.15 0.18 0.08 0.08 0.07
1.26 1.00 0.67 0.52 0.60 0.63 0.60 0.68 0.60 0.59 0.56 0.41 0.31 0.29 0.34 0.33 0.40 0.52 0.48 0.61 0.62 1.01 0.45 0.36 0.17 0.08 0.12 0.02 0.09 0.14 0.07 0.04 0.10 0.11 0.08 0.06 0.03 0.02 0.00 0.02 0.00 0.01 0.02 0.06 0.06 0.03 0.00 0.00 0.03 0.02 0.04 0.10 0.07 0.07
1.51 1.00 0.81 0.69 0.74 0.71 0.67 0.71 0.54 0.49 0.50 0.39 0.35 0.33 0.32 0.31 0.44 0.48 0.43 0.69 0.89 0.89 0.47 0.29 0.22 0.06 0.07 0.07 0.07 0.26 0.09 0.05 0.09 0.14 0.25 0.15 0.16 0.06 0.05 0.04 0.02 0.05 0.03 0.03 0.03 0.01 0.00 0.01 0.01 0.02 0.06 0.08 0.13 0.20
1.40 1.23 0.93 0.71 0.71 0.89 0.74 0.71 0.48 0.48 0.54 0.42 0.32 0.33 0.34 0.37 0.45 0.45 0.44 0.73 1.16 1.28 0.81 0.47 0.37 0.22 0.09 0.09 0.02 0.12 0.14 0.14 0.24 0.32 0.40 0.26 0.27 0.13 0.07 0.03 0.05 0.08 0.07 0.04 0.05 0.01 0.03 0.04 0.08 0.14 0.21 0.31 0.29 0.19
1.25 1.07 0.91 0.80 0.87 0.94 0.75 0.55 0.49 0.58 0.57 0.41 0.35 0.40 0.48 0.50 0.57 0.62 0.57 0.62 1.13 1.56 0.96 0.44 0.38 0.28 0.24 0.19 0.09 0.16 0.35 0.37 0.39 0.37 0.26 0.12 0.04 0.06 0.08 0.09 0.13 0.06 0.03 0.06 0.10 0.07 0.23 0.22 0.33 0.42 0.38 0.27 0.15 0.09
0.98 0.95 0.91 0.87 0.80 0.78 0.64 0.57 0.54 0.63 0.59 0.44 0.41 0.55 0.71 0.78 0.89 1.54 1.48 0.70 0.95 1.27 1.69 0.90 0.45 0.35 0.44 0.41 0.30 0.12 0.19 0.56 0.72 0.39 0.18 0.04 0.03 0.12 0.27 0.14 0.02 0.00 0.02 0.12 0.17 0.14 0.22 0.32 0.34 0.22 0.20 0.13 0.04 0.01
0.95 0.88 0.79 0.74 0.76 0.70 0.64 0.60 0.61 0.60 0.48 0.44 0.50 0.72 0.85 0.91 1.34 1.86 1.26 0.65 0.60 1.17 2.01 1.42 0.69 0.37 0.56 0.45 0.35 0.25 0.22 0.31 0.46 0.50 0.37 0.21 0.11 0.32 0.41 0.16 0.01 0.00 0.01 0.05 0.06 0.10 0.20 0.20 0.19 0.14 0.06 0.01 0.00 0.00
0.95 0.85 0.75 0.62 0.60 0.56 0.58 0.64 0.58 0.50 0.51 0.53 0.58 0.65 0.89 1.66 2.07 1.70 1.34 1.28 0.82 0.96 1.42 1.50 0.84 0.67 0.89 0.53 0.36 0.24 0.24 0.27 0.25 0.31 0.26 0.25 0.26 0.37 0.36 0.04 0.00 0.00 0.00 0.00 0.01 0.03 0.09 0.04 0.01 0.01 0.00 0.00 0.00 0.01
0.86 0.68 0.50 0.37 0.39 0.50 0.44 0.49 0.55 0.54 0.61 0.69 0.89 1.32 1.67 1.68 1.49 1.23 1.78 1.91 1.54 1.48 1.59 1.10 0.90 1.01 1.13 0.85 0.41 0.46 0.38 0.40 0.26 0.18 0.13 0.22 0.18 0.21 0.12 0.02 0.01 0.01 0.02 0.02 0.01 0.00 0.00 0.00 0.00 0.01 0.01 0.03 0.05 0.04
0.47 0.41 0.37 0.29 0.29 0.39 0.30 0.29 0.45 0.72 1.04 1.36 1.61 1.86 2.00 1.72 1.49 1.33 1.93 2.21 2.10 1.78 1.40 0.81 0.71 1.18 1.11 1.22 0.62 0.62 0.75 0.43 0.29 0.10 0.13 0.15 0.07 0.02 0.00 0.00 0.01 0.01 0.01 0.01 0.01 0.02 0.04 0.05 0.07 0.07 0.06 0.03 0.00 0.00
0.58 0.48 0.41 0.31 0.26 0.35 0.27 0.23 0.45 1.32 2.37 2.39 2.07 1.88 1.59 1.88 1.60 1.70 1.80 1.61 1.13 0.68 0.43 0.22 0.25 0.84 1.25 1.35 0.86 0.88 0.91 0.59 0.28 0.08 0.18 0.12 0.03 0.02 0.01 0.01 0.01 0.01 0.01 0.01 0.01 0.02 0.06 0.11 0.06 0.01 0.00 0.01 0.02 0.04
0.74 0.64 0.51 0.42 0.34 0.40 0.34 0.37 0.76 1.33 1.99 2.05 1.54 1.43 1.88 1.76 1.56 1.41 1.44 1.02 0.41 0.14 0.07 0.07 0.12 0.39 1.24 1.43 1.04 0.94 0.66 0.66 0.36 0.07 0.13 0.09 0.02 0.01 0.03 0.02 0.01 0.01 0.01 0.04 0.08 0.08 0.05 0.01 0.02 0.02 0.02 0.04 0.06 0.10
0.90 0.82 0.75 0.70 0.59 0.65 0.64 0.60 0.70 1.18 1.65 1.94 1.79 2.07 1.96 2.02 1.63 1.07 0.61 0.35 0.16 0.06 0.07 0.09 0.20 0.22 0.66 1.21 1.23 0.90 0.78 0.62 0.38 0.34 0.15 0.06 0.03 0.03 0.04 0.03 0.03 0.02 0.03 0.02 0.02 0.03 0.03 0.04 0.04 0.05 0.07 0.12 0.16 0.20
0.95 0.86 0.78 0.86 0.82 0.73 0.70 0.86 1.01 1.08 1.35 1.89 2.20 2.17 1.84 1.50 0.91 0.49 0.18 0.10 0.07 0.07 0.07 0.10 0.21 0.26 0.41 0.64 0.85 1.03 1.06 0.63 0.59 0.34 0.19 0.19 0.14 0.12 0.07 0.03 0.02 0.02 0.03 0.04 0.06 0.06 0.06 0.07 0.10 0.15 0.17 0.19 0.15 0.15
0.72 0.61 0.65 0.76 0.68 0.61 0.72 0.81 0.71 0.70 0.81 1.20 0.98 1.10 1.00 0.61 0.40 0.32 0.18 0.12 0.11 0.12 0.12 0.17 0.31 0.34 0.36 0.63 0.66 0.64 0.72 0.58 0.39 0.34 0.43 0.40 0.17 0.09 0.08 0.08 0.09 0.09 0.09 0.10 0.11 0.10 0.12 0.12 0.11 0.16 0.20 0.18 0.09 0.06
0.36 0.41 0.58 0.62 0.58 0.58 0.60 0.61 0.65 0.63 0.65 0.60 0.61 0.69 0.51 0.42 0.54 0.43 0.31 0.31 0.30 0.33 0.32 0.37 0.43 0.49 0.57 0.42 0.37 0.38 0.33 0.32 0.41 0.28 0.25 0.17 0.17 0.12 0.11 0.12 0.14 0.17 0.19 0.21 0.20 0.17 0.17 0.18 0.16 0.14 0.11 0.06 0.07 0.06
0.24 0.32 0.38 0.36 0.39 0.38 0.41 0.59 0.61 0.75 0.77 0.56 0.59 0.47 0.33 0.37 0.53 0.46 0.38 0.40 0.38 0.35 0.31 0.27 0.27 0.31 0.33 0.30 0.29 0.23 0.30 0.24 0.15 0.15 0.18 0.16 0.14 0.14 0.16 0.17 0.19 0.19 0.20 0.20 0.17 0.13 0.10 0.08 0.05 0.06 0.05 0.04 0.03 0.02
0.38 0.24 0.20 0.21 0.22 0.26 0.35 0.41 0.47 0.44 0.46 0.58 0.60 0.62 0.37 0.40 0.43 0.36 0.27 0.25 0.25 0.21 0.10 0.09 0.07 0.08 0.16 0.20 0.25 0.18 0.16 0.19 0.21 0.20 0.22 0.23 0.19 0.21 0.19 0.16 0.19 0.17 0.15 0.13 0.06 0.06 0.06 0.07 0.09 0.08 0.04 0.02 0.03 0.04
0.54 0.31 0.24 0.23 0.24 0.32 0.43 0.37 0.24 0.22 0.44 0.65 0.79 0.66 0.48 0.53 0.60 0.53 0.36 0.21 0.16 0.15 0.14 0.13 0.11 0.09 0.15 0.20 0.25 0.24 0.24 0.23 0.26 0.37 0.51 0.59 0.48 0.33 0.26 0.18 0.12 0.09 0.08 0.09 0.09 0.11 0.10 0.07 0.06 0.04 0.05 0.07 0.10 0.10
0.87 0.80 0.63 0.52 0.46 0.59 0.37 0.31 0.16 0.19 0.44 0.56 0.67 0.59 0.47 0.63 0.60 0.48 0.33 0.24 0.15 0.17 0.27 0.33 0.38 0.41 0.41 0.45 0.44 0.36 0.37 0.39 0.32 0.33 0.49 0.57 0.55 0.34 0.31 0.19 0.14 0.11 0.09 0.08 0.09 0.10 0.10 0.09 0.07 0.09 0.11 0.13 0.14 0.11
0.86 1.01 0.89 0.60 0.45 0.40 0.44 0.41 0.32 0.26 0.29 0.40 0.54 0.35 0.50 0.40 0.36 0.29 0.20 0.12 0.15 0.29 0.40 0.53 0.59 0.67 0.64 0.53 0.49 0.37 0.40 0.31 0.33 0.23 0.23 0.31 0.43 0.21 0.22 0.20 0.14 0.12 0.11 0.11 0.11 0.13 0.13 0.12 0.10 0.08 0.10 0.13 0.13 0.12
0.56 0.48 0.49 0.41 0.30 0.10 0.15 0.24 0.20 0.25 0.22 0.38 0.35 0.25 0.31 0.32 0.29 0.23 0.09 0.11 0.29 0.44 0.58 0.55 0.53 0.52 0.43 0.45 0.47 0.37 0.43 0.27 0.25 0.23 0.23 0.16 0.17 0.14 0.14 0.14 0.10 0.11 0.12 0.13 0.12 0.15 0.12 0.09 0.10 0.09 0.08 0.06 0.07 0.08
0.40 0.33 0.32 0.34 0.24 0.15 0.17 0.09 0.12 0.21 0.19 0.27 0.23 0.19 0.25 0.25 0.25 0.08 0.12 0.24 0.39 0.52 0.58 0.47 0.48 0.46 0.38 0.47 0.26 0.30 0.38 0.14 0.15 0.19 0.19 0.14 0.11 0.09 0.07 0.09 0.09 0.12 0.15 0.12 0.11 0.12 0.11 0.09 0.08 0.08 0.06 0.05 0.06 0.08
0.34 0.38 0.39 0.31 0.23 0.18 0.08 0.08 0.11 0.14 0.15 0.14 0.14 0.19 0.24 0.23 0.13 0.09 0.18 0.31 0.51 0.45 0.38 0.42 0.38 0.33 0.27 0.20 0.19 0.24 0.36 0.18 0.11 0.13 0.14 0.09 0.05 0.09 0.08 0.10 0.11 0.11 0.12 0.10 0.08 0.07 0.08 0.08 0.08 0.08 0.10 0.16 0.18 0.17
0.69 0.57 0.31 0.19 0.08 0.07 0.04 0.05 0.07 0.09 0.15 0.14 0.12 0.18 0.22 0.15 0.10 0.14 0.20 0.35 0.32 0.33 0.40 0.43 0.35 0.33 0.28 0.29 0.26 0.24 0.25 0.16 0.08 0.09 0.12 0.11 0.15 0.16 0.12 0.10 0.10 0.09 0.08 0.08 0.13 0.17 0.13 0.14 0.18 0.20 0.17 0.15 0.13 0.10
0.54 0.26 0.13 0.08 0.07 0.05 0.03 0.03 0.05 0.07 0.08 0.09 0.12 0.16 0.14 0.09 0.08 0.13 0.19 0.32 0.30 0.31 0.33 0.37 0.38 0.29 0.26 0.25 0.22 0.19 0.19 0.12 0.10 0.11 0.12 0.13 0.14 0.18 0.21 0.18 0.13 0.08 0.07 0.11 0.17 0.18 0.14 0.11 0.10 0.10 0.09 0.07 0.10 0.14
0.28 0.13 0.05 0.03 0.08 0.09 0.06 0.05 0.04 0.07 0.08 0.11 0.12 0.13 0.16 0.13 0.09 0.19 0.21 0.23 0.23 0.30 0.27 0.26 0.22 0.18 0.19 0.18 0.15 0.14 0.07 0.06 0.09 0.09 0.05 0.06 0.06 0.08 0.15 0.23 0.25 0.20 0.12 0.12 0.15 0.19 0.19 0.15 0.12 0.10 0.12 0.11 0.14 0.20
0.09 0.03 0.04 0.07 0.09 0.11 0.11 0.10 0.10 0.12 0.13 0.13 0.12 0.11 0.17 0.11 0.17 0.24 0.28 0.31 0.24 0.19 0.16 0.15 0.13 0.09 0.09 0.09 0.09 0.08 0.07 0.04 0.02 0.02 0.02 0.06 0.07 0.09 0.09 0.13 0.15 0.13 0.11 0.13 0.15 0.15 0.17 0.19 0.19 0.18 0.20 0.21 0.19 0.17
0.07 0.05 0.05 0.06 0.14 0.18 0.19 0.18 0.20 0.20 0.18 0.19 0.15 0.16 0.18 0.21 0.36 0.33 0.34 0.27 0.21 0.14 0.12 0.12 0.12 0.07 0.04 0.02 0.02 0.05 0.06 0.06 0.09 0.11 0.10 0.12 0.19 0.15 0.09 0.09 0.09 0.10 0.10 0.10 0.12 0.19 0.21 0.23 0.20 0.22 0.26 0.23 0.23 0.26
0.10 0.16 0.18 0.11 0.16 0.25 0.31 0.25 0.25 0.23 0.18 0.15 0.13 0.14 0.13 0.24 0.38 0.30 0.20 0.16 0.12 0.12 0.11 0.09 0.09 0.06 0.07 0.05 0.04 0.06 0.12 0.11 0.15 0.21 0.19 0.14 0.15 0.14 0.12 0.15 0.15 0.15 0.16 0.20 0.18 0.14 0.16 0.17 0.19 0.29 0.28 0.27 0.30 0.31
0.15 0.17 0.16 0.15 0.18 0.20 0.18 0.17 0.15 0.10 0.07 0.07 0.06 0.11 0.16 0.19 0.23 0.17 0.15 0.17 0.11 0.09 0.05 0.04 0.05 0.09 0.10 0.10 0.13 0.12 0.15 0.18 0.13 0.14 0.16 0.17 0.19 0.20 0.21 0.19 0.19 0.20 0.19 0.19 0.17 0.18 0.20 0.22 0.27 0.28 0.23 0.20 0.21 0.20
0.07 0.09 0.11 0.13 0.15 0.16 0.15 0.21 0.17 0.12 0.10 0.07 0.09 0.07 0.10 0.10 0.14 0.20 0.16 0.13 0.06 0.06 0.09 0.09 0.10 0.13 0.17 0.17 0.20 0.19 0.19 0.18 0.14 0.16 0.19 0.20 0.21 0.19 0.17 0.16 0.16 0.16 0.14 0.13 0.13 0.14 0.13 0.14 0.16 0.13 0.13 0.11 0.12 0.10
0.08 0.10 0.11 0.12 0.11 0.10 0.11 0.11 0.10 0.08 0.06 0.07 0.09 0.09 0.10 0.13 0.24 0.27 0.16 0.11 0.14 0.16 0.17 0.19 0.21 0.25 0.26 0.23 0.22 0.20 0.16 0.16 0.14 0.13 0.15 0.15 0.13 0.10 0.10 0.10 0.11 0.11 0.10 0.10 0.11 0.11 0.09 0.09 0.10 0.12 0.11 0.11 0.10 0.08

GFSWCAN_prec_precacc_078.txt.gz
Total_Precipitation_Accumulation
1.38 0.92 0.62 0.52 0.52 0.68 0.59 0.66 0.64 0.67 0.63 0.47 0.35 0.34 0.46 0.49 0.61 0.83 0.71 0.59 0.83 0.80 0.25 0.26 0.13 0.13 0.08 0.08 0.14 0.07 0.18 0.17 0.26 0.29 0.19 0.06 0.03 0.01 0.02 0.01 0.04 0.12 0.16 0.14 0.12 0.21 0.07 0.00 0.03 0.15 0.18 0.08 0.08 0.07
1.27 1.04 0.71 0.54 0.61 0.65 0.61 0.69 0.61 0.60 0.57 0.42 0.33 0.32 0.37 0.40 0.51 0.81 0.70 0.64 0.66 1.06 0.52 0.40 0.19 0.10 0.12 0.02 0.09 0.15 0.08 0.05 0.11 0.13 0.10 0.07 0.03 0.02 0.00 0.02 0.00 0.01 0.04 0.09 0.07 0.04 0.00 0.00 0.03 0.02 0.04 0.10 0.07 0.07
1.55 1.04 0.83 0.70 0.75 0.73 0.69 0.72 0.54 0.50 0.51 0.40 0.36 0.35 0.34 0.38 0.54 0.75 0.55 0.71 0.98 1.09 0.59 0.33 0.23 0.06 0.07 0.07 0.07 0.29 0.11 0.05 0.09 0.14 0.26 0.17 0.17 0.06 0.06 0.04 0.02 0.05 0.03 0.03 0.03 0.01 0.01 0.03 0.02 0.02 0.06 0.08 0.13 0.20
1.43 1.25 0.94 0.72 0.88 1.10 0.84 0.76 0.49 0.49 0.56 0.43 0.34 0.35 0.36 0.47 0.61 0.68 0.50 0.76 1.29 1.45 0.87 0.49 0.37 0.22 0.09 0.09 0.02 0.13 0.15 0.15 0.31 0.34 0.44 0.32 0.30 0.13 0.07 0.03 0.05 0.08 0.07 0.04 0.05 0.01 0.03 0.04 0.08 0.14 0.21 0.31 0.29 0.19
1.26 1.07 0.92 0.84 1.13 1.02 0.76 0.56 0.51 0.59 0.60 0.43 0.39 0.41 0.56 0.72 0.81 0.75 0.61 0.65 1.15 1.57 0.97 0.44 0.39 0.28 0.24 0.19 0.09 0.17 0.35 0.40 0.62 0.48 0.33 0.13 0.04 0.06 0.08 0.09 0.13 0.06 0.03 0.06 0.10 0.07 0.23 0.22 0.33 0.42 0.38 0.27 0.15 0.09
0.99 0.95 0.91 0.92 0.95 0.87 0.67 0.58 0.56 0.65 0.63 0.51 0.47 0.62 0.95 1.06 1.09 1.66 1.74 0.83 0.98 1.30 1.71 0.91 0.45 0.35 0.44 0.42 0.30 0.12 0.19 0.59 0.88 0.59 0.23 0.06 0.03 0.12 0.27 0.14 0.02 0.00 0.02 0.12 0.17 0.14 0.22 0.32 0.34 0.22 0.20 0.13 0.04 0.01
0.96 0.89 0.79 0.77 0.83 0.77 0.70 0.65 0.66 0.65 0.57 0.52 0.60 0.91 1.02 1.01 1.37 1.93 1.38 0.75 0.64 1.18 2.02 1.42 0.70 0.40 0.56 0.45 0.35 0.25 0.23 0.33 0.55 0.65 0.41 0.23 0.11 0.32 0.41 0.16 0.01 0.00 0.01 0.05 0.06 0.10 0.20 0.20 0.19 0.14 0.06 0.01 0.00 0.00
1.00 0.87 0.75 0.63 0.62 0.60 0.63 0.70 0.63 0.56 0.59 0.63 0.71 0.79 1.03 1.76 2.17 1.74 1.34 1.28 0.82 0.97 1.42 1.50 0.85 0.72 0.94 0.55 0.37 0.24 0.25 0.31 0.32 0.41 0.31 0.27 0.29 0.41 0.37 0.04 0.00 0.00 0.00 0.00 0.01 0.03 0.09 0.04 0.01 0.01 0.00 0.00 0.00 0.01
0.94 0.74 0.53 0.40 0.42 0.53 0.48 0.53 0.60 0.61 0.71 0.82 1.07 1.49 1.79 1.76 1.55 1.25 1.78 1.91 1.54 1.49 1.60 1.11 0.90 1.08 1.36 0.92 0.44 0.48 0.43 0.52 0.33 0.26 0.19 0.30 0.23 0.25 0.13 0.02 0.01 0.01 0.02 0.02 0.01 0.00 0.00 0.00 0.00 0.01 0.01 0.03 0.05 0.04
0.52 0.46 0.41 0.32 0.32 0.42 0.33 0.33 0.50 0.78 1.12 1.43 1.68 1.99 2.23 1.87 1.51 1.33 1.93 2.23 2.10 1.79 1.43 0.82 0.72 1.24 1.36 1.42 0.71 0.68 0.82 0.51 0.34 0.13 0.19 0.20 0.10 0.02 0.01 0.00 0.01 0.01 0.01 0.01 0.01 0.02 0.04 0.05 0.07 0.07 0.06 0.03 0.00 0.00
0.61 0.52 0.46 0.35 0.31 0.39 0.31 0.27 0.48 1.35 2.41 2.44 2.15 1.94 1.65 1.90 1.61 1.71 1.83 1.62 1.14 0.70 0.44 0.23 0.26 0.86 1.35 1.53 1.09 0.97 0.96 0.65 0.31 0.10 0.22 0.15 0.04 0.06 0.02 0.01 0.01 0.01 0.01 0.01 0.01 0.02 0.06 0.11 0.06 0.01 0.00 0.01 0.02 0.04
0.75 0.65 0.54 0.47 0.42 0.50 0.47 0.48 0.83 1.38 2.03 2.06 1.55 1.45 1.90 1.81 1.59 1.42 1.47 1.04 0.41 0.16 0.08 0.09 0.13 0.40 1.29 1.50 1.21 1.06 0.73 0.78 0.41 0.12 0.16 0.11 0.03 0.01 0.03 0.02 0.01 0.01 0.01 0.04 0.08 0.08 0.05 0.01 0.02 0.02 0.03 0.04 0.07 0.11
0.90 0.83 0.76 0.71 0.60 0.66 0.65 0.60 0.71 1.18 1.67 1.95 1.79 2.07 2.00 2.05 1.64 1.08 0.62 0.36 0.17 0.08 0.10 0.12 0.23 0.27 0.75 1.28 1.36 1.12 0.91 0.71 0.46 0.39 0.17 0.06 0.03 0.03 0.04 0.03 0.03 0.02 0.03 0.02 0.02 0.03 0.03 0.04 0.04 0.06 0.09 0.16 0.20 0.24
0.95 0.86 0.78 0.86 0.82 0.73 0.70 0.86 1.01 1.08 1.38 1.90 2.20 2.17 1.85 1.50 0.93 0.52 0.20 0.11 0.07 0.08 0.09 0.11 0.27 0.42 0.59 0.83 1.06 1.19 1.22 0.74 0.71 0.36 0.21 0.21 0.15 0.12 0.07 0.03 0.02 0.02 0.03 0.04 0.06 0.06 0.06 0.08 0.12 0.19 0.26 0.31 0.26 0.25
0.72 0.61 0.65 0.76 0.68 0.61 0.73 0.81 0.71 0.71 0.82 1.20 0.98 1.11 1.02 0.62 0.41 0.33 0.18 0.13 0.12 0.13 0.14 0.22 0.42 0.58 0.70 0.92 0.86 0.71 0.81 0.74 0.50 0.37 0.46 0.45 0.21 0.11 0.10 0.10 0.11 0.12 0.12 0.13 0.16 0.16 0.21 0.22 0.19 0.24 0.27 0.23 0.12 0.08
0.36 0.41 0.58 0.62 0.58 0.58 0.61 0.62 0.68 0.65 0.65 0.60 0.62 0.70 0.52 0.43 0.58 0.45 0.32 0.32 0.30 0.33 0.34 0.43 0.62 0.68 0.76 0.58 0.48 0.47 0.40 0.38 0.47 0.34 0.31 0.24 0.25 0.19 0.18 0.19 0.23 0.28 0.33 0.35 0.33 0.27 0.24 0.22 0.17 0.16 0.13 0.09 0.09 0.08
0.24 0.32 0.39 0.36 0.39 0.38 0.41 0.61 0.61 0.75 0.77 0.57 0.60 0.48 0.35 0.44 0.59 0.49 0.40 0.42 0.40 0.36 0.32 0.32 0.37 0.50 0.40 0.34 0.40 0.33 0.38 0.34 0.25 0.26 0.29 0.26 0.23 0.23 0.25 0.25 0.29 0.28 0.28 0.26 0.23 0.16 0.12 0.10 0.06 0.06 0.06 0.05 0.03 0.03
0.39 0.24 0.20 0.21 0.22 0.26 0.35 0.42 0.47 0.45 0.46 0.59 0.61 0.65 0.43 0.46 0.48 0.41 0.31 0.29 0.28 0.23 0.12 0.10 0.16 0.16 0.28 0.31 0.37 0.30 0.26 0.30 0.31 0.30 0.31 0.32 0.26 0.28 0.24 0.21 0.24 0.20 0.18 0.15 0.08 0.07 0.07 0.07 0.09 0.08 0.04 0.02 0.03 0.04
0.54 0.31 0.24 0.23 0.24 0.32 0.43 0.37 0.24 0.22 0.45 0.66 0.81 0.69 0.52 0.56 0.63 0.56 0.39 0.25 0.21 0.20 0.18 0.17 0.22 0.18 0.25 0.31 0.35 0.32 0.30 0.29 0.31 0.44 0.58 0.66 0.53 0.37 0.30 0.20 0.14 0.11 0.09 0.09 0.09 0.11 0.10 0.07 0.06 0.04 0.05 0.07 0.11 0.11
0.88 0.81 0.64 0.52 0.46 0.60 0.38 0.32 0.17 0.20 0.45 0.58 0.69 0.61 0.48 0.66 0.62 0.50 0.35 0.26 0.16 0.19 0.30 0.38 0.50 0.56 0.51 0.55 0.49 0.40 0.41 0.43 0.34 0.35 0.54 0.63 0.59 0.37 0.33 0.20 0.15 0.12 0.09 0.08 0.09 0.10 0.10 0.09 0.08 0.09 0.12 0.13 0.15 0.12
0.93 1.07 0.93 0.63 0.46 0.41 0.47 0.46 0.36 0.28 0.32 0.43 0.56 0.38 0.54 0.44 0.38 0.31 0.23 0.14 0.16 0.32 0.44 0.61 0.69 0.80 0.73 0.60 0.55 0.41 0.45 0.34 0.37 0.25 0.25 0.35 0.47 0.23 0.24 0.21 0.14 0.12 0.11 0.11 0.11 0.13 0.13 0.13 0.10 0.08 0.10 0.13 0.13 0.12
0.58 0.51 0.52 0.43 0.31 0.11 0.20 0.30 0.26 0.30 0.28 0.44 0.42 0.30 0.38 0.40 0.35 0.28 0.12 0.13 0.34 0.53 0.67 0.64 0.62 0.59 0.48 0.50 0.52 0.42 0.47 0.29 0.28 0.26 0.25 0.17 0.19 0.15 0.15 0.15 0.10 0.11 0.12 0.14 0.12 0.15 0.13 0.09 0.10 0.09 0.08 0.06 0.07 0.08
0.40 0.33 0.32 0.34 0.24 0.15 0.19 0.13 0.16 0.26 0.24 0.32 0.27 0.23 0.30 0.31 0.31 0.11 0.15 0.30 0.45 0.59 0.65 0.52 0.54 0.51 0.43 0.52 0.30 0.34 0.42 0.16 0.17 0.21 0.20 0.15 0.12 0.10 0.07 0.09 0.09 0.13 0.15 0.12 0.11 0.12 0.11 0.09 0.08 0.08 0.06 0.05 0.06 0.08
0.34 0.38 0.39 0.31 0.23 0.19 0.09 0.09 0.12 0.16 0.16 0.15 0.15 0.20 0.26 0.25 0.14 0.10 0.21 0.34 0.55 0.48 0.41 0.47 0.41 0.36 0.29 0.22 0.22 0.28 0.42 0.21 0.13 0.16 0.16 0.09 0.05 0.09 0.08 0.10 0.11 0.11 0.12 0.10 0.08 0.07 0.08 0.08 0.08 0.08 0.10 0.16 0.18 0.17
0.69 0.57 0.31 0.19 0.08 0.07 0.04 0.06 0.08 0.09 0.16 0.14 0.12 0.19 0.22 0.16 0.10 0.14 0.21 0.38 0.34 0.36 0.43 0.46 0.37 0.36 0.31 0.32 0.30 0.29 0.31 0.20 0.10 0.09 0.13 0.11 0.15 0.16 0.12 0.10 0.10 0.09 0.08 0.08 0.13 0.17 0.13 0.14 0.18 0.20 0.17 0.15 0.13 0.10
0.54 0.27 0.13 0.08 0.07 0.05 0.03 0.04 0.06 0.08 0.08 0.09 0.13 0.16 0.14 0.09 0.08 0.14 0.21 0.34 0.32 0.34 0.37 0.40 0.41 0.31 0.29 0.29 0.25 0.23 0.22 0.14 0.11 0.11 0.12 0.13 0.14 0.18 0.21 0.18 0.13 0.08 0.07 0.11 0.17 0.18 0.14 0.11 0.10 0.10 0.09 0.07 0.10 0.14
0.28 0.13 0.05 0.03 0.08 0.10 0.06 0.05 0.04 0.07 0.09 0.12 0.13 0.14 0.16 0.13 0.10 0.20 0.22 0.24 0.24 0.32 0.30 0.29 0.25 0.22 0.22 0.22 0.17 0.16 0.08 0.06 0.09 0.09 0.05 0.06 0.06 0.08 0.15 0.23 0.25 0.20 0.12 0.12 0.16 0.19 0.19 0.15 0.12 0.10 0.12 0.11 0.14 0.20
0.09 0.03 0.05 0.07 0.10 0.11 0.11 0.10 0.10 0.12 0.13 0.13 0.13 0.11 0.17 0.12 0.19 0.26 0.30 0.32 0.25 0.21 0.17 0.17 0.15 0.12 0.10 0.10 0.09 0.08 0.07 0.04 0.02 0.02 0.02 0.06 0.07 0.09 0.09 0.13 0.15 0.13 0.11 0.13 0.16 0.15 0.17 0.19 0.19 0.18 0.20 0.21 0.20 0.18
0.07 0.06 0.05 0.06 0.14 0.19 0.20 0.18 0.20 0.21 0.19 0.20 0.16 0.16 0.18 0.22 0.40 0.35 0.36 0.30 0.24 0.16 0.15 0.14 0.15 0.08 0.05 0.02 0.02 0.05 0.06 0.06 0.09 0.11 0.10 0.12 0.19 0.15 0.10 0.10 0.09 0.10 0.10 0.10 0.12 0.19 0.21 0.23 0.20 0.22 0.26 0.24 0.23 0.26
0.10 0.16 0.18 0.11 0.16 0.25 0.32 0.26 0.26 0.25 0.19 0.15 0.13 0.15 0.14 0.25 0.41 0.32 0.23 0.18 0.14 0.14 0.14 0.12 0.11 0.07 0.07 0.05 0.04 0.06 0.12 0.11 0.16 0.21 0.19 0.14 0.15 0.14 0.13 0.15 0.16 0.16 0.17 0.20 0.19 0.14 0.16 0.17 0.19 0.29 0.28 0.27 0.30 0.32
0.15 0.17 0.16 0.15 0.19 0.21 0.19 0.17 0.16 0.11 0.08 0.07 0.07 0.11 0.17 0.21 0.24 0.19 0.17 0.20 0.14 0.11 0.08 0.06 0.07 0.09 0.10 0.10 0.13 0.12 0.15 0.18 0.13 0.14 0.16 0.17 0.20 0.21 0.21 0.20 0.20 0.20 0.19 0.19 0.17 0.19 0.20 0.22 0.27 0.28 0.23 0.20 0.21 0.20
0.08 0.09 0.11 0.13 0.16 0.16 0.16 0.23 0.18 0.13 0.11 0.08 0.09 0.07 0.11 0.10 0.15 0.21 0.17 0.15 0.08 0.07 0.10 0.10 0.10 0.13 0.17 0.17 0.21 0.19 0.19 0.18 0.15 0.16 0.19 0.21 0.21 0.20 0.17 0.16 0.16 0.16 0.14 0.13 0.13 0.14 0.13 0.14 0.16 0.13 0.13 0.11 0.12 0.10
0.09 0.10 0.11 0.12 0.12 0.10 0.12 0.12 0.10 0.09 0.06 0.07 0.10 0.10 0.11 0.13 0.25 0.28 0.16 0.12 0.16 0.17 0.18 0.19 0.21 0.25 0.26 0.23 0.22 0.20 0.17 0.16 0.15 0.13 0.15 0.15 0.13 0.11 0.10 0.11 0.12 0.11 0.10 0.10 0.11 0.11 0.09 0.09 0.10 0.12 0.11 0.11 0.10 0.08

GFSWCAN_prec_precacc_084.txt.gz
Total_Precipitation_Accumulation
1.40 0.94 0.63 0.53 0.54 0.72 0.64 0.71 0.69 0.72 0.68 0.52 0.39 0.37 0.48 0.51 0.65 0.92 0.88 0.76 1.11 1.24 0.32 0.27 0.20 0.15 0.09 0.09 0.14 0.07 0.19 0.17 0.31 0.31 0.21 0.08 0.05 0.02 0.03 0.04 0.12 0.17 0.16 0.15 0.13 0.23 0.08 0.00 0.03 0.15 0.18 0.08 0.08 0.07
1.28 1.04 0.73 0.59 0.68 0.73 0.70 0.78 0.70 0.68 0.64 0.50 0.42 0.43 0.44 0.44 0.55 0.90 0.85 0.73 0.76 1.40 0.71 0.44 0.21 0.11 0.13 0.02 0.10 0.16 0.08 0.05 0.15 0.17 0.12 0.08 0.05 0.03 0.00 0.02 0.01 0.03 0.05 0.09 0.07 0.04 0.00 0.01 0.03 0.02 0.04 0.10 0.07 0.07
1.56 1.08 0.89 0.75 0.79 0.76 0.73 0.77 0.60 0.57 0.60 0.49 0.45 0.48 0.53 0.49 0.63 0.87 0.73 0.79 1.12 1.62 0.96 0.47 0.25 0.07 0.14 0.08 0.13 0.37 0.11 0.05 0.10 0.17 0.34 0.23 0.20 0.07 0.06 0.04 0.02 0.05 0.03 0.03 0.04 0.01 0.02 0.05 0.05 0.02 0.06 0.09 0.13 0.20
1.48 1.30 0.96 0.73 0.93 1.20 1.01 0.95 0.60 0.55 0.60 0.50 0.42 0.44 0.54 0.70 0.76 0.88 0.68 0.84 1.49 2.11 1.28 0.59 0.39 0.24 0.12 0.15 0.05 0.21 0.17 0.19 0.34 0.41 0.64 0.48 0.34 0.15 0.07 0.03 0.05 0.08 0.07 0.04 0.06 0.01 0.03 0.04 0.08 0.15 0.21 0.32 0.29 0.20
1.31 1.09 0.93 0.88 1.19 1.04 0.78 0.64 0.63 0.66 0.66 0.48 0.45 0.48 0.72 0.99 1.05 1.09 0.76 0.73 1.28 1.78 1.13 0.47 0.40 0.30 0.27 0.23 0.16 0.23 0.42 0.50 0.68 0.54 0.42 0.23 0.10 0.12 0.10 0.10 0.13 0.06 0.03 0.06 0.10 0.07 0.23 0.22 0.33 0.42 0.38 0.27 0.15 0.09
1.01 0.96 0.92 0.97 0.96 0.88 0.68 0.62 0.66 0.74 0.70 0.55 0.52 0.69 1.13 1.39 1.50 2.24 2.35 1.14 1.05 1.39 1.89 0.96 0.47 0.38 0.47 0.43 0.36 0.17 0.24 0.65 0.93 0.73 0.30 0.12 0.06 0.24 0.35 0.15 0.02 0.00 0.02 0.12 0.17 0.14 0.22 0.32 0.34 0.22 0.20 0.14 0.05 0.02
0.99 0.90 0.80 0.80 0.84 0.78 0.71 0.68 0.75 0.74 0.64 0.60 0.67 1.07 1.34 1.45 1.81 2.39 1.84 1.16 0.82 1.36 2.41 1.50 0.72 0.45 0.63 0.47 0.37 0.29 0.24 0.36 0.59 0.81 0.64 0.28 0.14 0.42 0.48 0.17 0.01 0.00 0.01 0.05 0.06 0.10 0.20 0.20 0.20 0.14 0.06 0.01 0.00 0.01
1.04 0.89 0.77 0.66 0.66 0.62 0.66 0.74 0.71 0.67 0.72 0.77 0.94 1.17 1.44 2.15 2.45 1.86 1.35 1.29 0.88 1.26 1.74 1.54 0.89 0.78 1.05 0.59 0.37 0.25 0.26 0.35 0.35 0.51 0.48 0.44 0.33 0.46 0.39 0.04 0.00 0.00 0.00 0.00 0.01 0.03 0.09 0.04 0.01 0.01 0.00 0.00 0.00 0.01
1.03 0.81 0.60 0.45 0.46 0.58 0.53 0.60 0.70 0.75 0.90 1.14 1.55 2.00 2.27 2.14 1.85 1.42 1.86 2.01 1.65 1.76 1.70 1.11 0.91 1.09 1.38 0.93 0.45 0.50 0.44 0.53 0.36 0.30 0.24 0.47 0.46 0.35 0.14 0.02 0.01 0.01 0.02 0.02 0.01 0.00 0.00 0.01 0.00 0.01 0.01 0.03 0.05 0.04
0.64 0.57 0.51 0.44 0.43 0.51 0.41 0.40 0.60 0.96 1.35 1.69 1.92 2.30 2.86 2.16 1.60 1.41 2.10 2.48 2.30 1.89 1.45 0.82 0.72 1.24 1.38 1.46 0.76 0.71 0.86 0.54 0.39 0.15 0.25 0.30 0.23 0.13 0.09 0.14 0.03 0.01 0.01 0.01 0.01 0.02 0.04 0.05 0.07 0.07 0.06 0.03 0.00 0.00
0.71 0.68 0.67 0.58 0.52 0.58 0.48 0.43 0.61 1.44 2.47 2.50 2.26 2.32 2.05 2.06 1.68 1.81 2.00 1.75 1.21 0.72 0.45 0.23 0.26 0.86 1.35 1.54 1.14 1.04 1.05 0.68 0.33 0.13 0.27 0.26 0.07 0.14 0.20 0.18 0.09 0.03 0.02 0.01 0.01 0.02 0.06 0.11 0.06 0.01 0.00 0.01 0.02 0.04
0.82 0.74 0.66 0.62 0.62 0.71 0.62 0.58 0.88 1.40 2.05 2.07 1.59 1.57 1.98 1.84 1.60 1.43 1.49 1.07 0.42 0.16 0.08 0.09 0.13 0.40 1.30 1.50 1.24 1.17 0.83 0.94 0.43 0.19 0.19 0.15 0.10 0.03 0.05 0.06 0.07 0.06 0.05 0.06 0.09 0.09 0.05 0.02 0.02 0.02 0.03 0.04 0.07 0.11
0.93 0.86 0.81 0.77 0.66 0.72 0.70 0.63 0.71 1.18 1.67 1.95 1.79 2.07 2.00 2.06 1.64 1.09 0.63 0.36 0.18 0.09 0.10 0.13 0.23 0.28 0.77 1.30 1.39 1.26 1.01 0.78 0.58 0.50 0.19 0.07 0.06 0.08 0.04 0.03 0.03 0.04 0.12 0.05 0.03 0.03 0.04 0.04 0.05 0.06 0.10 0.16 0.21 0.29
0.95 0.87 0.78 0.89 0.86 0.74 0.71 0.86 1.01 1.08 1.38 1.90 2.20 2.18 1.86 1.53 0.98 0.57 0.22 0.11 0.08 0.09 0.10 0.11 0.29 0.50 0.68 0.90 1.14 1.28 1.34 0.79 0.86 0.47 0.22 0.22 0.16 0.14 0.11 0.07 0.02 0.03 0.10 0.18 0.07 0.07 0.06 0.08 0.12 0.20 0.28 0.33 0.30 0.35
0.72 0.61 0.65 0.76 0.68 0.61 0.73 0.81 0.71 0.71 0.82 1.20 0.99 1.13 1.06 0.70 0.50 0.39 0.21 0.14 0.14 0.14 0.16 0.31 0.58 0.76 0.96 1.13 1.01 0.85 1.08 0.87 0.58 0.46 0.49 0.48 0.23 0.13 0.12 0.12 0.13 0.13 0.12 0.14 0.17 0.19 0.24 0.25 0.23 0.34 0.40 0.36 0.22 0.20
0.36 0.41 0.58 0.62 0.58 0.58 0.61 0.62 0.68 0.65 0.65 0.60 0.63 0.73 0.56 0.45 0.59 0.47 0.34 0.34 0.32 0.35 0.43 0.72 1.04 1.08 1.10 0.87 0.75 0.62 0.56 0.45 0.51 0.38 0.36 0.29 0.29 0.24 0.23 0.23 0.27 0.32 0.37 0.40 0.40 0.36 0.37 0.36 0.31 0.33 0.31 0.25 0.24 0.18
0.24 0.32 0.39 0.36 0.39 0.38 0.41 0.61 0.61 0.75 0.77 0.57 0.62 0.50 0.38 0.45 0.62 0.53 0.45 0.45 0.42 0.40 0.46 0.57 0.70 0.80 0.67 0.50 0.49 0.38 0.43 0.38 0.30 0.32 0.37 0.34 0.32 0.33 0.35 0.36 0.39 0.38 0.40 0.38 0.38 0.32 0.31 0.28 0.19 0.15 0.17 0.16 0.09 0.06
0.39 0.24 0.20 0.21 0.22 0.26 0.35 0.42 0.47 0.45 0.47 0.61 0.63 0.68 0.44 0.49 0.52 0.45 0.36 0.34 0.33 0.30 0.23 0.24 0.27 0.32 0.46 0.43 0.46 0.40 0.37 0.41 0.44 0.44 0.48 0.50 0.43 0.46 0.39 0.36 0.42 0.36 0.33 0.30 0.21 0.20 0.17 0.14 0.14 0.13 0.08 0.04 0.04 0.05
0.55 0.31 0.24 0.23 0.24 0.32 0.43 0.37 0.24 0.23 0.46 0.67 0.84 0.75 0.58 0.61 0.67 0.61 0.44 0.31 0.31 0.38 0.35 0.31 0.34 0.38 0.45 0.54 0.52 0.51 0.50 0.47 0.52 0.69 0.83 0.90 0.76 0.57 0.50 0.38 0.31 0.27 0.23 0.21 0.16 0.18 0.17 0.12 0.09 0.06 0.06 0.08 0.12 0.12
0.88 0.81 0.64 0.52 0.46 0.60 0.38 0.32 0.18 0.21 0.47 0.60 0.74 0.68 0.54 0.72 0.65 0.51 0.36 0.27 0.20 0.27 0.42 0.48 0.65 0.83 0.83 0.85 0.69 0.58 0.62 0.67 0.52 0.56 0.81 0.91 0.85 0.58 0.54 0.36 0.30 0.22 0.16 0.14 0.13 0.13 0.11 0.10 0.08 0.09 0.12 0.13 0.15 0.13
0.94 1.08 0.94 0.63 0.46 0.41 0.48 0.47 0.38 0.31 0.35 0.47 0.64 0.43 0.59 0.45 0.39 0.31 0.23 0.14 0.18 0.39 0.58 0.78 0.86 1.13 1.09 0.86 0.74 0.55 0.62 0.50 0.59 0.42 0.41 0.56 0.70 0.37 0.38 0.33 0.22 0.18 0.15 0.14 0.13 0.14 0.13 0.14 0.11 0.09 0.11 0.14 0.13 0.12
0.65 0.56 0.54 0.44 0.31 0.12 0.22 0.32 0.27 0.32 0.29 0.48 0.46 0.33 0.41 0.42 0.36 0.29 0.12 0.14 0.41 0.65 0.83 0.79 0.77 0.78 0.64 0.71 0.73 0.58 0.61 0.42 0.42 0.41 0.38 0.26 0.29 0.25 0.24 0.23 0.14 0.14 0.14 0.14 0.13 0.15 0.13 0.09 0.10 0.09 0.08 0.06 0.07 0.08
0.41 0.35 0.33 0.35 0.25 0.18 0.27 0.21 0.23 0.34 0.32 0.40 0.32 0.28 0.35 0.34 0.34 0.13 0.17 0.34 0.56 0.76 0.79 0.65 0.69 0.66 0.56 0.69 0.41 0.48 0.54 0.24 0.28 0.31 0.29 0.23 0.19 0.15 0.10 0.11 0.10 0.13 0.15 0.12 0.11 0.12 0.11 0.09 0.08 0.08 0.06 0.05 0.06 0.08
0.34 0.38 0.39 0.31 0.23 0.21 0.10 0.11 0.16 0.19 0.19 0.20 0.18 0.25 0.33 0.32 0.17 0.11 0.25 0.43 0.69 0.59 0.54 0.59 0.51 0.47 0.39 0.30 0.31 0.40 0.56 0.31 0.20 0.24 0.24 0.13 0.07 0.11 0.08 0.10 0.11 0.11 0.12 0.10 0.08 0.07 0.08 0.08 0.08 0.08 0.10 0.16 0.18 0.17
0.69 0.57 0.31 0.19 0.08 0.07 0.04 0.06 0.08 0.09 0.16 0.14 0.13 0.20 0.26 0.18 0.12 0.17 0.26 0.46 0.41 0.46 0.53 0.55 0.44 0.44 0.38 0.41 0.40 0.39 0.43 0.30 0.16 0.14 0.19 0.14 0.16 0.16 0.12 0.10 0.10 0.10 0.08 0.08 0.13 0.17 0.13 0.14 0.18 0.20 0.17 0.15 0.13 0.10
0.55 0.27 0.13 0.08 0.08 0.05 0.04 0.05 0.07 0.09 0.09 0.10 0.14 0.18 0.15 0.09 0.08 0.15 0.24 0.39 0.35 0.39 0.44 0.46 0.47 0.36 0.36 0.36 0.33 0.31 0.33 0.23 0.16 0.15 0.17 0.14 0.14 0.18 0.21 0.18 0.13 0.09 0.07 0.11 0.17 0.18 0.14 0.11 0.10 0.10 0.09 0.07 0.10 0.14
0.29 0.14 0.05 0.03 0.09 0.11 0.07 0.06 0.05 0.07 0.09 0.13 0.14 0.14 0.16 0.13 0.11 0.24 0.25 0.27 0.27 0.37 0.34 0.33 0.29 0.26 0.28 0.30 0.26 0.23 0.13 0.10 0.12 0.11 0.06 0.06 0.06 0.08 0.15 0.23 0.26 0.21 0.12 0.12 0.16 0.19 0.19 0.15 0.12 0.10 0.12 0.11 0.14 0.20
0.09 0.03 0.05 0.08 0.10 0.11 0.11 0.11 0.10 0.13 0.14 0.14 0.14 0.12 0.18 0.13 0.21 0.29 0.32 0.35 0.28 0.24 0.21 0.22 0.20 0.17 0.16 0.14 0.11 0.09 0.08 0.05 0.02 0.02 0.02 0.06 0.07 0.09 0.09 0.13 0.15 0.13 0.11 0.13 0.16 0.15 0.17 0.19 0.19 0.18 0.20 0.21 0.20 0.18
0.08 0.06 0.05 0.06 0.14 0.19 0.20 0.19 0.21 0.22 0.20 0.21 0.17 0.17 0.20 0.28 0.46 0.39 0.41 0.34 0.27 0.19 0.18 0.19 0.21 0.13 0.10 0.07 0.06 0.08 0.08 0.07 0.09 0.11 0.10 0.12 0.19 0.16 0.10 0.10 0.10 0.11 0.10 0.10 0.12 0.19 0.21 0.23 0.20 0.22 0.26 0.24 0.23 0.26
0.11 0.16 0.18 0.11 0.17 0.26 0.34 0.27 0.28 0.26 0.19 0.15 0.13 0.15 0.15 0.29 0.47 0.36 0.26 0.21 0.18 0.19 0.20 0.17 0.16 0.10 0.09 0.07 0.06 0.07 0.12 0.11 0.16 0.21 0.19 0.14 0.16 0.14 0.13 0.15 0.16 0.16 0.17 0.20 0.19 0.14 0.16 0.17 0.19 0.29 0.28 0.27 0.30 0.32
0.15 0.17 0.16 0.15 0.20 0.22 0.20 0.18 0.16 0.11 0.09 0.08 0.07 0.12 0.17 0.23 0.27 0.21 0.22 0.26 0.17 0.15 0.11 0.10 0.11 0.14 0.12 0.11 0.13 0.12 0.15 0.18 0.13 0.14 0.16 0.17 0.20 0.21 0.21 0.20 0.20 0.20 0.19 0.19 0.17 0.19 0.20 0.22 0.27 0.28 0.23 0.20 0.21 0.20
0.08 0.09 0.11 0.13 0.16 0.17 0.18 0.27 0.19 0.14 0.12 0.08 0.10 0.09 0.13 0.11 0.16 0.22 0.19 0.19 0.11 0.10 0.14 0.13 0.13 0.15 0.17 0.18 0.21 0.19 0.19 0.18 0.15 0.16 0.19 0.21 0.21 0.20 0.17 0.16 0.16 0.16 0.14 0.13 0.13 0.14 0.13 0.14 0.16 0.13 0.13 0.11 0.12 0.10
0.09 0.10 0.11 0.12 0.12 0.11 0.12 0.14 0.11 0.09 0.08 0.08 0.11 0.11 0.12 0.14 0.26 0.29 0.18 0.15 0.19 0.18 0.19 0.21 0.22 0.25 0.26 0.23 0.22 0.20 0.17 0.16 0.15 0.13 0.15 0.15 0.13 0.11 0.10 0.11 0.12 0.11 0.10 0.10 0.11 0.11 0.09 0.09 0.10 0.12 0.11 0.11 0.10 0.08